weatherino

Wetterdaten aus der Harmsstraße 54 in 24114 Kiel (4. OG, außen), die per BME280 und einem ESP-32 erhoben werden.

Unter https://wetter.janbpunkt.de/weather.xml steht eine entsprechende XML bereit, die das jüngste Messergebnis enthält.

Da der weatherino ab und zu ausfällt/gewartet wird, können Messpunkte fehlen.

Keine Garantie auf Korrektheit der Werte. Keine Haftung für direkte oder indirekte Schäden, die aus der Verwendung der Daten resultieren. Die Daten der Website werden per SSL verschlüsselt übertragen, es werden keine Cookies gesetzt und keine IP-Adressen geloggt. Weiterhin findet keine Verarbeitung von personenbezogenen Daten statt.

Mehr zu dem Projekt findet man hier.

Impressum
Letzte Messung
Zeitpunkt Temperatur Luftfeuchte Luftdruck
2024-07-22 10:10:48 21.9 ℃ 100 % 1011.37 hPa

Zeitpunkt Temperatur Luftfeuchte Luftdruck
2024-07-22 10:10:48 21.9 ℃ 100 % 1011.37 hPa
2024-07-22 10:00:48 22.06 ℃ 100 % 1011.22 hPa
2024-07-22 09:50:48 21.92 ℃ 100 % 1011.11 hPa
2024-07-22 09:40:49 21.82 ℃ 100 % 1011.01 hPa
2024-07-22 09:30:49 21.8 ℃ 100 % 1010.91 hPa
2024-07-22 09:20:49 21.65 ℃ 100 % 1010.83 hPa
2024-07-22 09:10:49 21.56 ℃ 100 % 1010.72 hPa
2024-07-22 09:00:49 21.37 ℃ 100 % 1010.62 hPa
2024-07-22 08:50:49 21.76 ℃ 100 % 1010.43 hPa
2024-07-22 08:40:49 22.04 ℃ 100 % 1010.28 hPa
2024-07-22 08:30:49 22.39 ℃ 100 % 1010.19 hPa
2024-07-22 08:20:49 22.66 ℃ 100 % 1010.07 hPa
2024-07-22 08:10:49 22.79 ℃ 100 % 1009.97 hPa
2024-07-22 08:00:49 22.78 ℃ 100 % 1009.84 hPa
2024-07-22 07:50:49 22.9 ℃ 100 % 1009.75 hPa
2024-07-22 07:40:49 22.81 ℃ 100 % 1009.65 hPa
2024-07-22 07:30:49 22.83 ℃ 100 % 1009.57 hPa
2024-07-22 07:20:49 22.64 ℃ 100 % 1009.49 hPa
2024-07-22 07:10:49 22.65 ℃ 100 % 1009.38 hPa
2024-07-22 07:00:49 22.59 ℃ 100 % 1009.3 hPa
2024-07-22 06:50:49 22.6 ℃ 100 % 1009.23 hPa
2024-07-22 06:40:49 22.65 ℃ 100 % 1009.16 hPa
2024-07-22 06:30:49 22.91 ℃ 100 % 1009.08 hPa
2024-07-22 06:20:49 22.96 ℃ 100 % 1008.99 hPa
2024-07-22 06:10:49 23.48 ℃ 100 % 1008.9 hPa
2024-07-22 06:00:49 23.27 ℃ 100 % 1008.92 hPa
2024-07-22 05:50:49 23.13 ℃ 100 % 1008.95 hPa
2024-07-22 05:40:49 23.46 ℃ 100 % 1008.88 hPa
2024-07-22 05:30:49 23.49 ℃ 100 % 1008.86 hPa
2024-07-22 05:20:49 23.7 ℃ 100 % 1008.83 hPa
2024-07-22 05:10:49 23.84 ℃ 100 % 1008.79 hPa
2024-07-22 05:00:49 24.07 ℃ 100 % 1008.73 hPa
2024-07-22 04:50:49 24.09 ℃ 100 % 1008.71 hPa
2024-07-22 04:40:49 24.02 ℃ 100 % 1008.72 hPa
2024-07-22 04:30:49 23.88 ℃ 100 % 1008.74 hPa
2024-07-22 04:20:49 23.78 ℃ 100 % 1008.71 hPa
2024-07-22 04:10:49 23.76 ℃ 100 % 1008.7 hPa
2024-07-22 04:00:49 24.13 ℃ 100 % 1008.67 hPa
2024-07-22 03:50:49 24.29 ℃ 100 % 1008.63 hPa
2024-07-22 03:40:49 24.51 ℃ 100 % 1008.6 hPa
2024-07-22 03:30:49 24.71 ℃ 100 % 1008.59 hPa
2024-07-22 03:20:49 25.06 ℃ 100 % 1008.53 hPa
2024-07-22 03:10:49 25.78 ℃ 100 % 1008.47 hPa
2024-07-22 03:00:49 26.02 ℃ 100 % 1008.45 hPa
2024-07-22 02:50:49 26.16 ℃ 100 % 1008.48 hPa
2024-07-22 02:40:49 25.9 ℃ 100 % 1008.56 hPa
2024-07-22 02:30:49 25.73 ℃ 100 % 1008.57 hPa
2024-07-22 02:20:49 25.62 ℃ 100 % 1008.63 hPa
2024-07-22 02:10:49 25.78 ℃ 100 % 1008.67 hPa
2024-07-22 02:00:49 25.48 ℃ 100 % 1008.58 hPa
2024-07-22 01:50:49 25.45 ℃ 100 % 1008.52 hPa
2024-07-22 01:40:49 25.8 ℃ 100 % 1008.46 hPa
2024-07-22 01:30:49 26.13 ℃ 100 % 1008.47 hPa
2024-07-22 01:20:49 25.98 ℃ 100 % 1008.45 hPa
2024-07-22 01:10:49 25.52 ℃ 100 % 1008.35 hPa
2024-07-22 01:00:49 25.47 ℃ 100 % 1008.25 hPa
2024-07-22 00:50:49 25.03 ℃ 100 % 1008.22 hPa
2024-07-22 00:40:49 25.22 ℃ 100 % 1008.24 hPa
2024-07-22 00:30:49 25.48 ℃ 100 % 1008.26 hPa
2024-07-22 00:20:49 25.84 ℃ 100 % 1008.27 hPa
2024-07-22 00:10:49 26.03 ℃ 100 % 1008.27 hPa
2024-07-22 00:00:49 26.07 ℃ 100 % 1008.26 hPa
2024-07-21 23:50:49 26.3 ℃ 100 % 1008.2 hPa
2024-07-21 23:40:49 26.27 ℃ 100 % 1008.14 hPa
2024-07-21 23:30:49 25.88 ℃ 100 % 1008.08 hPa
2024-07-21 23:20:49 25.66 ℃ 100 % 1008.07 hPa
2024-07-21 23:10:49 25.96 ℃ 100 % 1008.02 hPa
2024-07-21 23:00:49 26.14 ℃ 100 % 1008 hPa
2024-07-21 22:50:49 26.57 ℃ 100 % 1007.97 hPa
2024-07-21 22:40:49 26.87 ℃ 100 % 1007.96 hPa
2024-07-21 22:30:49 27.19 ℃ 100 % 1007.94 hPa
2024-07-21 22:20:49 27.06 ℃ 100 % 1007.95 hPa
2024-07-21 22:10:49 27.07 ℃ 100 % 1007.94 hPa
2024-07-21 22:00:50 27.06 ℃ 100 % 1007.93 hPa
2024-07-21 21:50:49 27 ℃ 100 % 1007.99 hPa
2024-07-21 21:40:49 27.18 ℃ 100 % 1007.99 hPa
2024-07-21 21:30:49 27.49 ℃ 100 % 1007.98 hPa
2024-07-21 21:20:49 27.44 ℃ 100 % 1007.97 hPa
2024-07-21 21:10:50 27.25 ℃ 100 % 1007.9 hPa
2024-07-21 21:00:50 27.11 ℃ 100 % 1007.9 hPa
2024-07-21 20:50:50 27.51 ℃ 100 % 1007.89 hPa
2024-07-21 20:40:50 27.99 ℃ 100 % 1007.88 hPa
2024-07-21 20:30:50 28.73 ℃ 100 % 1007.77 hPa
2024-07-21 20:20:50 28.61 ℃ 99.99 % 1007.63 hPa
2024-07-21 20:10:50 27.96 ℃ 99.98 % 1007.44 hPa
2024-07-21 20:00:50 27.96 ℃ 99.96 % 1007.45 hPa
2024-07-21 19:50:50 27.87 ℃ 99.93 % 1007.37 hPa
2024-07-21 19:40:50 28.16 ℃ 99.86 % 1007.34 hPa
2024-07-21 19:30:50 29.16 ℃ 99.72 % 1007.23 hPa
2024-07-21 19:20:50 29.95 ℃ 99.44 % 1007.18 hPa
2024-07-21 19:10:50 30.84 ℃ 98.88 % 1007.03 hPa
2024-07-21 19:00:50 31.2 ℃ 97.75 % 1006.75 hPa
2024-07-21 18:50:50 31.51 ℃ 95.51 % 1006.65 hPa
2024-07-21 18:40:50 31.35 ℃ 94.72 % 1006.62 hPa
2024-07-21 18:30:50 31.75 ℃ 90.38 % 1006.59 hPa
2024-07-21 18:20:51 31.69 ℃ 89.92 % 1006.55 hPa
2024-07-21 18:10:50 32.27 ℃ 86.07 % 1006.55 hPa
2024-07-21 18:00:50 32.41 ℃ 84.27 % 1006.57 hPa
2024-07-21 17:50:50 32.77 ℃ 81.92 % 1006.58 hPa
2024-07-21 17:40:50 32.87 ℃ 81.18 % 1006.62 hPa
2024-07-21 17:30:50 32.96 ℃ 80.06 % 1006.66 hPa
2024-07-21 17:20:50 33.01 ℃ 79.37 % 1006.63 hPa
2024-07-21 17:10:50 33.03 ℃ 79.39 % 1006.54 hPa
2024-07-21 17:00:53 33.05 ℃ 79.97 % 1006.53 hPa
2024-07-21 16:50:50 33.14 ℃ 78.64 % 1006.54 hPa
2024-07-21 16:40:50 33.4 ℃ 76.52 % 1006.59 hPa
2024-07-21 16:30:50 33.59 ℃ 75.47 % 1006.63 hPa
2024-07-21 16:20:50 33.66 ℃ 74.43 % 1006.59 hPa
2024-07-21 16:10:50 33.62 ℃ 73.89 % 1006.5 hPa
2024-07-21 16:00:50 33.64 ℃ 73.66 % 1006.38 hPa
2024-07-21 15:50:50 33.3 ℃ 73.75 % 1006.34 hPa
2024-07-21 15:40:50 33.55 ℃ 72.88 % 1006.38 hPa
2024-07-21 15:30:50 33.41 ℃ 73.64 % 1006.41 hPa
2024-07-21 15:20:50 33.69 ℃ 72.4 % 1006.47 hPa
2024-07-21 15:10:51 33.55 ℃ 73.01 % 1006.54 hPa
2024-07-21 15:00:50 33.48 ℃ 73.66 % 1006.55 hPa
2024-07-21 14:50:50 33.34 ℃ 74.41 % 1006.51 hPa
2024-07-21 14:40:50 32.78 ℃ 77.05 % 1006.48 hPa
2024-07-21 14:30:50 32.85 ℃ 78.5 % 1006.5 hPa
2024-07-21 14:20:50 32.63 ℃ 80.44 % 1006.53 hPa
2024-07-21 14:10:50 32.93 ℃ 79.06 % 1006.6 hPa
2024-07-21 14:00:50 33.42 ℃ 78.8 % 1006.72 hPa
2024-07-21 13:50:50 33.7 ℃ 79.96 % 1006.81 hPa
2024-07-21 13:40:50 33.17 ℃ 82.86 % 1006.84 hPa
2024-07-21 13:30:50 32.7 ℃ 84.53 % 1006.85 hPa
2024-07-21 11:59:47 31.77 ℃ 92.98 % 1007.17 hPa
2024-07-21 11:49:47 31.49 ℃ 94.91 % 1007.1 hPa
2024-07-21 11:39:47 31.24 ℃ 97.84 % 1007.17 hPa
2024-07-21 11:29:47 31.29 ℃ 98.66 % 1007.15 hPa
2024-07-21 11:19:47 31.04 ℃ 98.63 % 1007.13 hPa
2024-07-21 11:09:47 30.79 ℃ 99.92 % 1007.12 hPa
2024-07-21 10:59:47 30.81 ℃ 99.85 % 1007.14 hPa
2024-07-21 10:49:47 30.72 ℃ 99.69 % 1007.15 hPa
2024-07-21 10:39:47 30.49 ℃ 99.38 % 1007.18 hPa
2024-07-21 10:29:47 29.82 ℃ 100 % 1007.24 hPa
2024-07-21 10:19:47 29.23 ℃ 100 % 1007.29 hPa
2024-07-21 10:09:47 28.7 ℃ 100 % 1007.37 hPa
2024-07-21 09:59:47 28.49 ℃ 100 % 1007.4 hPa
2024-07-21 09:49:47 28.28 ℃ 100 % 1007.45 hPa
2024-07-21 09:39:47 27.81 ℃ 100 % 1007.5 hPa
2024-07-21 09:29:47 27.57 ℃ 100 % 1007.59 hPa
2024-07-21 09:19:47 28.11 ℃ 100 % 1007.63 hPa
2024-07-21 09:09:47 27.94 ℃ 100 % 1007.64 hPa
2024-07-21 08:59:47 27.79 ℃ 100 % 1007.67 hPa
2024-07-21 08:49:47 27.17 ℃ 100 % 1007.61 hPa
2024-07-21 08:39:47 27.09 ℃ 100 % 1007.62 hPa
2024-07-21 08:29:47 26.71 ℃ 100 % 1007.65 hPa
2024-07-21 08:19:47 25.81 ℃ 100 % 1007.67 hPa
2024-07-21 08:09:47 25.62 ℃ 100 % 1007.65 hPa
2024-07-21 07:59:47 25.28 ℃ 100 % 1007.63 hPa
2024-07-21 07:49:47 25.45 ℃ 100 % 1007.58 hPa
2024-07-21 07:39:47 25.45 ℃ 100 % 1007.55 hPa
2024-07-21 07:29:47 25.02 ℃ 100 % 1007.56 hPa
2024-07-21 07:19:47 24.95 ℃ 100 % 1007.58 hPa
2024-07-21 07:09:47 24.92 ℃ 100 % 1007.61 hPa
2024-07-21 06:59:47 24.27 ℃ 100 % 1007.54 hPa
2024-07-21 06:49:47 23.81 ℃ 100 % 1007.52 hPa
2024-07-21 06:39:47 23.63 ℃ 100 % 1007.5 hPa
2024-07-21 06:29:47 23.14 ℃ 100 % 1007.5 hPa
2024-07-21 06:19:47 22.89 ℃ 100 % 1007.57 hPa
2024-07-21 06:09:49 22.35 ℃ 100 % 1007.64 hPa
2024-07-21 05:59:48 22.07 ℃ 100 % 1007.69 hPa
2024-07-21 05:49:47 22.07 ℃ 100 % 1007.72 hPa
2024-07-21 05:39:47 22.24 ℃ 100 % 1007.81 hPa
2024-07-21 05:29:47 22.07 ℃ 100 % 1007.87 hPa
2024-07-21 05:19:47 22.3 ℃ 100 % 1007.92 hPa
2024-07-21 05:09:47 22.3 ℃ 100 % 1007.93 hPa
2024-07-21 04:59:47 22.32 ℃ 100 % 1007.96 hPa
2024-07-21 04:49:47 22.32 ℃ 100 % 1007.94 hPa
2024-07-21 04:39:48 22.37 ℃ 100 % 1008 hPa
2024-07-21 04:29:48 22.6 ℃ 100 % 1008.14 hPa
2024-07-21 04:19:47 22.56 ℃ 100 % 1008.22 hPa
2024-07-21 04:09:47 22.22 ℃ 100 % 1008.35 hPa
2024-07-21 03:59:48 22.27 ℃ 100 % 1008.44 hPa
2024-07-21 03:49:48 22.6 ℃ 100 % 1008.51 hPa
2024-07-21 03:39:48 23.03 ℃ 100 % 1008.62 hPa
2024-07-21 03:29:48 22.85 ℃ 100 % 1008.74 hPa
2024-07-21 03:19:48 22.56 ℃ 100 % 1008.89 hPa
2024-07-21 03:09:48 22.53 ℃ 100 % 1008.92 hPa
2024-07-21 02:59:48 22.65 ℃ 100 % 1009 hPa
2024-07-21 02:49:48 22.83 ℃ 100 % 1009.1 hPa
2024-07-21 02:39:48 22.74 ℃ 100 % 1009.12 hPa
2024-07-21 02:29:48 22.99 ℃ 100 % 1009.17 hPa
2024-07-21 02:19:48 22.91 ℃ 100 % 1009.24 hPa
2024-07-21 02:09:48 22.92 ℃ 100 % 1009.3 hPa
2024-07-21 01:59:48 23.16 ℃ 100 % 1009.34 hPa
2024-07-21 01:49:48 23.16 ℃ 100 % 1009.35 hPa
2024-07-21 01:39:48 23.25 ℃ 100 % 1009.38 hPa
2024-07-21 01:29:48 23.21 ℃ 100 % 1009.43 hPa
2024-07-21 01:19:48 23.05 ℃ 100 % 1009.49 hPa
2024-07-21 01:09:48 23.04 ℃ 100 % 1009.5 hPa
2024-07-21 00:59:48 23.27 ℃ 100 % 1009.54 hPa
2024-07-21 00:49:48 23.03 ℃ 100 % 1009.6 hPa
2024-07-21 00:39:48 23.13 ℃ 100 % 1009.61 hPa
2024-07-21 00:29:48 23.27 ℃ 100 % 1009.62 hPa
2024-07-21 00:19:48 23.06 ℃ 100 % 1009.7 hPa
2024-07-21 00:09:48 23.18 ℃ 100 % 1009.74 hPa
2024-07-20 23:59:48 23.46 ℃ 100 % 1009.84 hPa
2024-07-20 23:49:48 23.43 ℃ 100 % 1009.94 hPa
2024-07-20 23:39:48 23.57 ℃ 100 % 1010.02 hPa
2024-07-20 23:29:49 23.24 ℃ 100 % 1010.1 hPa
2024-07-20 23:19:48 23.34 ℃ 100 % 1010.13 hPa
2024-07-20 23:09:48 23.43 ℃ 100 % 1010.16 hPa
2024-07-20 22:59:48 23.53 ℃ 100 % 1010.17 hPa
2024-07-20 22:49:48 23.42 ℃ 100 % 1010.18 hPa
2024-07-20 22:39:48 23.74 ℃ 100 % 1010.23 hPa
2024-07-20 22:29:48 23.86 ℃ 100 % 1010.26 hPa
2024-07-20 22:19:48 23.99 ℃ 100 % 1010.26 hPa
2024-07-20 22:09:48 24 ℃ 100 % 1010.28 hPa
2024-07-20 21:59:48 24.19 ℃ 100 % 1010.28 hPa
2024-07-20 21:49:48 24.5 ℃ 100 % 1010.22 hPa
2024-07-20 21:39:48 25.01 ℃ 100 % 1010.15 hPa
2024-07-20 21:29:48 25.06 ℃ 100 % 1010.12 hPa
2024-07-20 21:19:48 24.99 ℃ 100 % 1010.11 hPa
2024-07-20 21:09:48 25.29 ℃ 100 % 1010.17 hPa
2024-07-20 20:59:48 25.82 ℃ 100 % 1010.2 hPa
2024-07-20 20:49:48 25.98 ℃ 100 % 1010.22 hPa
2024-07-20 20:39:48 25.97 ℃ 100 % 1010.26 hPa
2024-07-20 20:29:48 26.26 ℃ 100 % 1010.31 hPa
2024-07-20 20:19:48 25.96 ℃ 100 % 1010.38 hPa
2024-07-20 20:09:48 26.24 ℃ 100 % 1010.4 hPa
2024-07-20 19:59:48 26.29 ℃ 100 % 1010.47 hPa
2024-07-20 19:49:48 26.44 ℃ 100 % 1010.53 hPa
2024-07-20 19:39:48 26.68 ℃ 100 % 1010.55 hPa
2024-07-20 19:29:48 26.84 ℃ 100 % 1010.61 hPa
2024-07-20 19:19:48 26.94 ℃ 100 % 1010.57 hPa
2024-07-20 19:09:48 27.04 ℃ 100 % 1010.59 hPa
2024-07-20 18:59:48 27.46 ℃ 100 % 1010.6 hPa
2024-07-20 18:49:48 27.73 ℃ 100 % 1010.63 hPa
2024-07-20 18:39:48 27.61 ℃ 100 % 1010.7 hPa
2024-07-20 18:29:48 27.88 ℃ 100 % 1010.77 hPa
2024-07-20 18:19:48 28.05 ℃ 100 % 1010.82 hPa
2024-07-20 18:09:49 28.15 ℃ 100 % 1010.83 hPa
2024-07-20 17:59:48 28.69 ℃ 100 % 1010.87 hPa
2024-07-20 17:49:48 28.77 ℃ 100 % 1010.89 hPa
2024-07-20 17:39:48 28.96 ℃ 100 % 1010.98 hPa
2024-07-20 17:29:48 28.7 ℃ 100 % 1011.09 hPa
2024-07-20 17:19:48 28.85 ℃ 100 % 1011.15 hPa
2024-07-20 17:09:48 28.72 ℃ 100 % 1011.25 hPa
2024-07-20 16:59:49 28.52 ℃ 100 % 1011.37 hPa
2024-07-20 16:49:48 28.52 ℃ 100 % 1011.49 hPa
2024-07-20 16:39:48 28.72 ℃ 100 % 1011.59 hPa
2024-07-20 16:29:49 28.75 ℃ 100 % 1011.69 hPa
2024-07-20 16:19:48 28.6 ℃ 100 % 1011.76 hPa
2024-07-20 16:09:48 28.16 ℃ 100 % 1011.88 hPa
2024-07-20 15:59:48 28.36 ℃ 100 % 1011.94 hPa
2024-07-20 15:49:48 28.01 ℃ 100 % 1012.07 hPa
2024-07-20 15:39:49 28.2 ℃ 100 % 1012.15 hPa
2024-07-20 15:29:48 28.29 ℃ 100 % 1012.24 hPa
2024-07-20 15:19:48 28.34 ℃ 100 % 1012.25 hPa
2024-07-20 15:09:49 28.53 ℃ 100 % 1012.22 hPa
2024-07-20 14:59:49 28.37 ℃ 100 % 1012.24 hPa
2024-07-20 11:45:48 29.29 ℃ 100 % 1013.96 hPa
2024-07-20 11:35:48 29.12 ℃ 100 % 1013.99 hPa
2024-07-20 11:25:48 28.62 ℃ 100 % 1014.07 hPa
2024-07-20 11:15:48 28.13 ℃ 100 % 1014.13 hPa
2024-07-20 11:05:48 28.24 ℃ 100 % 1014.2 hPa
2024-07-20 10:55:48 28.44 ℃ 100 % 1014.24 hPa
2024-07-20 10:45:48 28.54 ℃ 100 % 1014.27 hPa
2024-07-20 10:35:48 28.12 ℃ 100 % 1014.34 hPa
2024-07-20 10:25:48 27.76 ℃ 100 % 1014.37 hPa
2024-07-20 10:15:48 28.16 ℃ 100 % 1014.44 hPa
2024-07-20 10:05:48 27.57 ℃ 100 % 1014.55 hPa
2024-07-20 09:55:48 27.11 ℃ 100 % 1014.64 hPa
2024-07-20 09:45:48 26.86 ℃ 100 % 1014.71 hPa
2024-07-20 09:35:48 26.91 ℃ 100 % 1014.71 hPa
2024-07-20 09:25:48 26.76 ℃ 100 % 1014.76 hPa
2024-07-20 09:15:48 26.47 ℃ 100 % 1014.8 hPa
2024-07-20 09:05:48 26.24 ℃ 100 % 1014.84 hPa
2024-07-20 08:55:48 25.96 ℃ 100 % 1014.88 hPa
2024-07-20 08:45:48 25.3 ℃ 100 % 1014.94 hPa
2024-07-20 08:35:48 24.17 ℃ 100 % 1014.99 hPa
2024-07-20 08:25:48 24.35 ℃ 100 % 1015.05 hPa
2024-07-20 08:15:48 23.69 ℃ 100 % 1015.19 hPa
2024-07-20 08:05:48 22.99 ℃ 100 % 1015.26 hPa
2024-07-20 07:55:48 23 ℃ 100 % 1015.28 hPa
2024-07-20 07:45:48 23.33 ℃ 100 % 1015.28 hPa
2024-07-20 07:35:48 22.39 ℃ 100 % 1015.31 hPa
2024-07-20 07:25:48 23.01 ℃ 100 % 1015.34 hPa
2024-07-20 07:15:48 22.58 ℃ 100 % 1015.45 hPa
2024-07-20 07:05:48 22.63 ℃ 100 % 1015.47 hPa
2024-07-20 06:55:48 23.35 ℃ 100 % 1015.52 hPa
2024-07-20 06:45:48 25.23 ℃ 100 % 1015.55 hPa
2024-07-20 06:35:48 25.38 ℃ 100 % 1015.62 hPa
2024-07-20 06:25:48 25.83 ℃ 100 % 1015.69 hPa
2024-07-20 06:15:48 24.89 ℃ 100 % 1015.77 hPa
2024-07-20 06:05:48 24.6 ℃ 100 % 1015.86 hPa
2024-07-20 05:55:48 23.7 ℃ 100 % 1015.99 hPa
2024-07-20 05:45:48 22.95 ℃ 100 % 1016.12 hPa
2024-07-20 05:35:48 22.57 ℃ 100 % 1016.19 hPa
2024-07-20 05:25:48 22.49 ℃ 100 % 1016.21 hPa
2024-07-20 05:15:49 22.01 ℃ 100 % 1016.2 hPa
2024-07-20 05:05:49 22 ℃ 100 % 1016.25 hPa
2024-07-20 04:55:48 22.29 ℃ 100 % 1016.27 hPa
2024-07-20 04:45:48 22.29 ℃ 100 % 1016.31 hPa
2024-07-20 04:35:48 22.96 ℃ 100 % 1016.34 hPa
2024-07-20 04:25:48 23.4 ℃ 100 % 1016.39 hPa
2024-07-20 04:15:49 23.52 ℃ 100 % 1016.46 hPa
2024-07-20 04:05:49 23.7 ℃ 100 % 1016.56 hPa
2024-07-20 03:55:50 23.59 ℃ 100 % 1016.63 hPa
2024-07-20 03:45:48 23.45 ℃ 100 % 1016.73 hPa
2024-07-20 03:35:49 23.34 ℃ 100 % 1016.88 hPa
2024-07-20 03:25:49 23.21 ℃ 100 % 1016.99 hPa
2024-07-20 03:15:49 23.15 ℃ 100 % 1017.04 hPa
2024-07-20 03:05:49 23.26 ℃ 100 % 1017.13 hPa
2024-07-20 02:55:49 23.24 ℃ 100 % 1017.23 hPa
2024-07-20 02:45:49 23.45 ℃ 100 % 1017.36 hPa
2024-07-20 02:35:49 23.62 ℃ 100 % 1017.48 hPa
2024-07-20 02:25:49 23.36 ℃ 100 % 1017.59 hPa
2024-07-20 02:15:49 23.48 ℃ 100 % 1017.66 hPa
2024-07-20 02:05:49 23.67 ℃ 100 % 1017.71 hPa
2024-07-20 01:55:49 23.59 ℃ 100 % 1017.76 hPa
2024-07-20 01:45:49 23.44 ℃ 100 % 1017.81 hPa
2024-07-20 01:35:49 23.58 ℃ 100 % 1017.89 hPa
2024-07-20 01:25:49 23.96 ℃ 100 % 1017.97 hPa
2024-07-20 01:15:49 23.99 ℃ 100 % 1018.05 hPa
2024-07-20 01:05:49 23.84 ℃ 100 % 1018.08 hPa
2024-07-20 00:55:49 23.72 ℃ 100 % 1018.17 hPa
2024-07-20 00:45:49 23.55 ℃ 100 % 1018.26 hPa
2024-07-20 00:35:49 24.22 ℃ 100 % 1018.31 hPa
2024-07-20 00:25:49 24.8 ℃ 100 % 1018.36 hPa
2024-07-20 00:15:49 24.83 ℃ 100 % 1018.43 hPa
2024-07-20 00:05:49 24.81 ℃ 100 % 1018.45 hPa
2024-07-19 23:55:49 24.66 ℃ 100 % 1018.47 hPa
2024-07-19 23:45:49 24.87 ℃ 100 % 1018.48 hPa
2024-07-19 23:35:49 24.91 ℃ 100 % 1018.48 hPa
2024-07-19 23:25:49 24.74 ℃ 100 % 1018.49 hPa
2024-07-19 23:15:49 24.83 ℃ 100 % 1018.48 hPa
2024-07-19 23:05:49 24.28 ℃ 100 % 1018.49 hPa
2024-07-19 22:55:49 24.01 ℃ 100 % 1018.49 hPa
2024-07-19 22:45:49 23.85 ℃ 100 % 1018.48 hPa
2024-07-19 22:35:49 23.98 ℃ 100 % 1018.52 hPa
2024-07-19 22:25:49 24.21 ℃ 100 % 1018.58 hPa
2024-07-19 22:15:49 23.95 ℃ 100 % 1018.61 hPa
2024-07-19 22:05:49 23.73 ℃ 100 % 1018.64 hPa
2024-07-19 21:55:49 24.25 ℃ 100 % 1018.67 hPa
2024-07-19 21:45:49 24.1 ℃ 100 % 1018.67 hPa
2024-07-19 21:35:50 24.49 ℃ 100 % 1018.64 hPa
2024-07-19 21:25:49 24.84 ℃ 100 % 1018.62 hPa
2024-07-19 21:15:49 25.04 ℃ 100 % 1018.68 hPa
2024-07-19 21:05:49 24.9 ℃ 100 % 1018.71 hPa
2024-07-19 20:55:49 25.18 ℃ 100 % 1018.73 hPa
2024-07-19 20:45:49 24.92 ℃ 100 % 1018.8 hPa
2024-07-19 20:35:49 25.44 ℃ 100 % 1018.82 hPa
2024-07-19 20:25:49 25.77 ℃ 100 % 1018.81 hPa
2024-07-19 20:15:49 25.8 ℃ 100 % 1018.85 hPa
2024-07-19 20:05:49 26.04 ℃ 100 % 1018.89 hPa
2024-07-19 19:55:49 26.17 ℃ 100 % 1018.93 hPa
2024-07-19 19:45:49 26.41 ℃ 100 % 1018.99 hPa
2024-07-19 19:35:49 26.25 ℃ 100 % 1019.05 hPa
2024-07-19 19:25:49 26 ℃ 100 % 1019.14 hPa
2024-07-19 19:15:49 25.87 ℃ 100 % 1019.22 hPa
2024-07-19 19:05:49 25.99 ℃ 100 % 1019.33 hPa
2024-07-19 18:55:49 26.17 ℃ 100 % 1019.43 hPa
2024-07-19 18:45:49 25.9 ℃ 100 % 1019.54 hPa
2024-07-19 18:35:49 26.27 ℃ 100 % 1019.6 hPa
2024-07-19 18:25:49 26.28 ℃ 100 % 1019.7 hPa
2024-07-19 18:15:49 26.61 ℃ 100 % 1019.75 hPa
2024-07-19 18:05:49 26.24 ℃ 100 % 1019.87 hPa
2024-07-19 17:55:49 26.6 ℃ 100 % 1019.92 hPa
2024-07-19 17:45:49 25.79 ℃ 100 % 1020.06 hPa
2024-07-19 17:35:49 25.94 ℃ 100 % 1020.2 hPa
2024-07-19 17:25:49 25.82 ℃ 100 % 1020.25 hPa
2024-07-19 17:15:50 25.98 ℃ 100 % 1020.26 hPa
2024-07-19 17:05:49 25.84 ℃ 100 % 1020.36 hPa
2024-07-19 16:55:50 25.67 ℃ 100 % 1020.42 hPa
2024-07-19 16:45:49 25.7 ℃ 100 % 1020.51 hPa
2024-07-19 16:35:49 25.42 ℃ 100 % 1020.57 hPa
2024-07-19 16:25:49 25.2 ℃ 100 % 1020.61 hPa
2024-07-19 16:15:49 25.44 ℃ 100 % 1020.69 hPa
2024-07-19 16:05:50 25.72 ℃ 100 % 1020.77 hPa
2024-07-19 15:55:49 25.74 ℃ 100 % 1020.84 hPa
2024-07-19 15:45:49 25.61 ℃ 100 % 1020.9 hPa
2024-07-19 15:35:50 25.68 ℃ 100 % 1020.96 hPa
2024-07-19 15:25:50 25.89 ℃ 100 % 1020.99 hPa
2024-07-19 15:15:49 25.75 ℃ 100 % 1021.13 hPa
2024-07-19 15:05:50 25.56 ℃ 100 % 1021.2 hPa
2024-07-19 14:55:50 25.33 ℃ 100 % 1021.19 hPa
2024-07-19 14:45:50 25.58 ℃ 100 % 1021.22 hPa
2024-07-19 14:35:50 25.23 ℃ 100 % 1021.24 hPa
2024-07-19 14:25:50 24.88 ℃ 100 % 1021.29 hPa
2024-07-19 14:15:50 25.34 ℃ 100 % 1021.31 hPa
2024-07-19 14:05:50 25.22 ℃ 100 % 1021.34 hPa
2024-07-19 13:55:50 25.52 ℃ 100 % 1021.39 hPa
2024-07-19 13:45:50 25.96 ℃ 100 % 1021.38 hPa
2024-07-19 13:35:50 26.77 ℃ 100 % 1021.39 hPa
2024-07-19 13:25:50 27.12 ℃ 100 % 1021.46 hPa
2024-07-19 13:15:50 26.98 ℃ 100 % 1021.54 hPa
2024-07-19 13:05:50 27.34 ℃ 100 % 1021.59 hPa
2024-07-19 12:55:50 27.76 ℃ 100 % 1021.65 hPa
2024-07-19 12:45:50 26.97 ℃ 100 % 1021.72 hPa
2024-07-19 12:35:50 26.78 ℃ 100 % 1021.77 hPa
2024-07-19 12:25:50 25.95 ℃ 100 % 1021.86 hPa
2024-07-19 12:15:50 25.76 ℃ 100 % 1021.91 hPa
2024-07-19 12:05:50 26.01 ℃ 100 % 1021.96 hPa
2024-07-19 11:55:50 26.42 ℃ 100 % 1021.97 hPa
2024-07-19 11:45:50 27.74 ℃ 100 % 1022 hPa
2024-07-19 11:35:50 27.12 ℃ 100 % 1022.08 hPa
2024-07-19 11:25:50 27.67 ℃ 100 % 1022.11 hPa
2024-07-19 11:15:50 27.64 ℃ 100 % 1022.14 hPa
2024-07-19 11:05:50 27.39 ℃ 100 % 1022.18 hPa
2024-07-19 10:55:50 27.06 ℃ 100 % 1022.26 hPa
2024-07-19 10:45:50 27.62 ℃ 100 % 1022.29 hPa
2024-07-19 10:35:50 27.21 ℃ 100 % 1022.32 hPa
2024-07-19 10:25:50 26.73 ℃ 100 % 1022.39 hPa
2024-07-19 10:15:50 26.45 ℃ 100 % 1022.42 hPa
2024-07-19 10:05:50 26.1 ℃ 100 % 1022.42 hPa
2024-07-19 09:55:50 26.07 ℃ 100 % 1022.47 hPa
2024-07-19 09:45:50 25.36 ℃ 100 % 1022.49 hPa
2024-07-19 09:35:50 24.66 ℃ 100 % 1022.56 hPa
2024-07-19 09:25:50 24.57 ℃ 100 % 1022.6 hPa
2024-07-19 09:15:50 23.79 ℃ 100 % 1022.67 hPa
2024-07-19 09:05:50 22.81 ℃ 100 % 1022.75 hPa
2024-07-19 08:55:50 22.06 ℃ 100 % 1022.81 hPa
2024-07-19 08:45:50 22.1 ℃ 100 % 1022.83 hPa
2024-07-19 08:35:50 21.77 ℃ 100 % 1022.84 hPa
2024-07-19 08:25:50 21.17 ℃ 100 % 1022.88 hPa
2024-07-19 08:15:50 20.58 ℃ 100 % 1022.91 hPa
2024-07-19 08:05:50 20.81 ℃ 100 % 1022.88 hPa
2024-07-19 07:55:50 20.99 ℃ 100 % 1022.88 hPa
2024-07-19 07:45:50 21.57 ℃ 100 % 1022.83 hPa
2024-07-19 07:35:50 21.69 ℃ 100 % 1022.84 hPa
2024-07-19 07:25:50 22.84 ℃ 100 % 1022.81 hPa
2024-07-19 07:15:50 23.68 ℃ 100 % 1022.83 hPa
2024-07-19 07:05:50 24.18 ℃ 100 % 1022.84 hPa
2024-07-19 06:55:50 24.83 ℃ 100 % 1022.82 hPa
2024-07-19 06:45:50 25.39 ℃ 100 % 1022.84 hPa
2024-07-19 06:35:50 25.86 ℃ 100 % 1022.81 hPa
2024-07-19 06:25:50 26.27 ℃ 100 % 1022.81 hPa
2024-07-19 06:15:50 26.31 ℃ 100 % 1022.78 hPa
2024-07-19 06:05:50 25.52 ℃ 100 % 1022.78 hPa
2024-07-19 05:55:50 24.15 ℃ 100 % 1022.8 hPa
2024-07-19 05:45:50 22.27 ℃ 100 % 1022.87 hPa
2024-07-19 05:35:50 20.5 ℃ 100 % 1022.89 hPa
2024-07-19 05:25:50 20.09 ℃ 100 % 1022.89 hPa
2024-07-19 05:15:50 19.71 ℃ 100 % 1022.93 hPa
2024-07-19 05:05:50 20.14 ℃ 100 % 1022.9 hPa
2024-07-19 04:55:50 20.4 ℃ 100 % 1022.89 hPa
2024-07-19 04:45:50 20.47 ℃ 100 % 1022.89 hPa
2024-07-19 04:35:50 20.39 ℃ 100 % 1022.91 hPa
2024-07-19 04:25:50 20.62 ℃ 100 % 1022.87 hPa
2024-07-19 04:15:51 20.72 ℃ 100 % 1022.84 hPa
2024-07-19 04:05:50 20.86 ℃ 100 % 1022.82 hPa
2024-07-19 03:55:50 21.23 ℃ 100 % 1022.8 hPa
2024-07-19 03:45:51 21.3 ℃ 100 % 1022.82 hPa
2024-07-19 03:35:50 21.64 ℃ 100 % 1022.83 hPa
2024-07-19 03:25:51 21.83 ℃ 100 % 1022.9 hPa
2024-07-19 03:15:50 22.26 ℃ 100 % 1022.96 hPa
2024-07-19 03:05:51 22.36 ℃ 100 % 1023 hPa
2024-07-19 02:55:51 22.48 ℃ 100 % 1023.04 hPa
2024-07-19 02:45:51 22.45 ℃ 100 % 1023.06 hPa
2024-07-19 02:35:51 22.24 ℃ 100 % 1023.08 hPa
2024-07-19 02:25:51 22.14 ℃ 100 % 1023.18 hPa
2024-07-19 02:15:51 22.12 ℃ 100 % 1023.24 hPa
2024-07-19 02:05:51 22.04 ℃ 100 % 1023.31 hPa
2024-07-19 01:55:51 21.96 ℃ 100 % 1023.32 hPa
2024-07-19 01:45:51 21.97 ℃ 100 % 1023.34 hPa
2024-07-19 01:35:51 22.08 ℃ 100 % 1023.34 hPa
2024-07-19 01:25:51 22.69 ℃ 100 % 1023.33 hPa
2024-07-19 01:15:51 22.7 ℃ 100 % 1023.31 hPa
2024-07-19 01:05:51 22.77 ℃ 100 % 1023.26 hPa
2024-07-19 00:55:51 22.84 ℃ 100 % 1023.25 hPa
2024-07-19 00:45:51 22.79 ℃ 100 % 1023.23 hPa
2024-07-19 00:35:51 23.28 ℃ 100 % 1023.24 hPa
2024-07-19 00:25:51 23.42 ℃ 100 % 1023.25 hPa
2024-07-19 00:15:51 23.52 ℃ 100 % 1023.24 hPa
2024-07-19 00:05:51 23.58 ℃ 100 % 1023.22 hPa
2024-07-18 23:55:51 23.78 ℃ 100 % 1023.19 hPa
2024-07-18 23:45:51 24.03 ℃ 100 % 1023.18 hPa
2024-07-18 23:35:51 23.88 ℃ 100 % 1023.17 hPa
2024-07-18 23:25:51 23.96 ℃ 100 % 1023.19 hPa
2024-07-18 23:15:51 24.43 ℃ 100 % 1023.18 hPa
2024-07-18 23:05:51 24.61 ℃ 100 % 1023.14 hPa
2024-07-18 22:55:51 24.66 ℃ 100 % 1023.16 hPa
2024-07-18 22:45:51 24.83 ℃ 100 % 1023.16 hPa
2024-07-18 22:35:51 24.94 ℃ 100 % 1023.17 hPa
2024-07-18 22:25:51 25.01 ℃ 100 % 1023.16 hPa
2024-07-18 22:15:51 24.83 ℃ 100 % 1023.18 hPa
2024-07-18 22:05:51 25.3 ℃ 100 % 1023.15 hPa
2024-07-18 21:55:51 25.08 ℃ 100 % 1023.11 hPa
2024-07-18 21:45:51 24.82 ℃ 100 % 1023.06 hPa
2024-07-18 21:35:51 24.36 ℃ 100 % 1023.02 hPa
2024-07-18 21:25:51 24.35 ℃ 100 % 1022.97 hPa
2024-07-18 21:15:51 24.41 ℃ 100 % 1022.94 hPa
2024-07-18 21:05:51 24.71 ℃ 100 % 1022.89 hPa
2024-07-18 20:55:51 24.67 ℃ 100 % 1022.87 hPa
2024-07-18 20:45:51 24.58 ℃ 100 % 1022.86 hPa
2024-07-18 20:35:51 24.61 ℃ 100 % 1022.81 hPa
2024-07-18 20:25:51 24.55 ℃ 100 % 1022.82 hPa
2024-07-18 20:15:51 24.67 ℃ 100 % 1022.78 hPa
2024-07-18 20:05:51 24.61 ℃ 100 % 1022.78 hPa
2024-07-18 19:55:51 24.79 ℃ 100 % 1022.76 hPa
2024-07-18 19:45:51 24.77 ℃ 100 % 1022.76 hPa
2024-07-18 19:35:51 25.11 ℃ 100 % 1022.77 hPa
2024-07-18 19:25:51 25.27 ℃ 100 % 1022.75 hPa
2024-07-18 19:15:51 25.35 ℃ 100 % 1022.74 hPa
2024-07-18 19:05:51 25.28 ℃ 100 % 1022.77 hPa
2024-07-18 18:55:51 25.8 ℃ 100 % 1022.75 hPa
2024-07-18 18:45:51 26.11 ℃ 100 % 1022.76 hPa
2024-07-18 18:35:52 26.19 ℃ 100 % 1022.81 hPa
2024-07-18 18:25:51 26.31 ℃ 100 % 1022.87 hPa
2024-07-18 18:15:51 26.5 ℃ 100 % 1022.91 hPa
2024-07-18 18:05:51 26.44 ℃ 100 % 1022.92 hPa
2024-07-18 17:55:51 26.74 ℃ 100 % 1022.95 hPa
2024-07-18 17:45:51 26.96 ℃ 100 % 1023 hPa
2024-07-18 17:35:51 27.03 ℃ 100 % 1023.01 hPa
2024-07-18 17:25:51 26.76 ℃ 100 % 1023.03 hPa
2024-07-18 17:15:51 26.86 ℃ 100 % 1023.02 hPa
2024-07-18 17:05:51 26.76 ℃ 100 % 1022.98 hPa
2024-07-18 16:55:51 26.59 ℃ 100 % 1023 hPa
2024-07-18 16:45:51 26.32 ℃ 100 % 1023.04 hPa
2024-07-18 16:35:51 26.61 ℃ 100 % 1023.07 hPa
2024-07-18 16:25:51 26.7 ℃ 100 % 1023.09 hPa
2024-07-18 16:15:51 26.69 ℃ 100 % 1023.13 hPa
2024-07-18 16:05:51 27.02 ℃ 100 % 1023.13 hPa
2024-07-18 15:55:51 27.14 ℃ 100 % 1023.11 hPa
2024-07-18 15:45:51 27.4 ℃ 100 % 1023.14 hPa
2024-07-18 15:35:52 27.24 ℃ 100 % 1023.19 hPa
2024-07-18 15:25:51 27.06 ℃ 100 % 1023.22 hPa
2024-07-18 15:15:52 27.4 ℃ 100 % 1023.24 hPa
2024-07-18 15:05:52 26.89 ℃ 100 % 1023.27 hPa
2024-07-18 14:55:52 26.6 ℃ 100 % 1023.31 hPa
2024-07-18 14:45:52 26.16 ℃ 100 % 1023.3 hPa
2024-07-18 14:35:52 26.37 ℃ 100 % 1023.33 hPa
2024-07-18 14:25:52 26.21 ℃ 100 % 1023.35 hPa
2024-07-18 14:15:52 26.21 ℃ 100 % 1023.4 hPa
2024-07-18 14:05:52 26.3 ℃ 100 % 1023.47 hPa
2024-07-18 13:55:52 26.46 ℃ 100 % 1023.55 hPa
2024-07-18 13:45:52 26.14 ℃ 100 % 1023.63 hPa
2024-07-18 13:35:52 25.72 ℃ 100 % 1023.71 hPa
2024-07-18 13:25:52 25.96 ℃ 100 % 1023.72 hPa
2024-07-18 13:15:52 25.59 ℃ 100 % 1023.73 hPa
2024-07-18 13:05:52 25.52 ℃ 100 % 1023.83 hPa
2024-07-18 12:55:52 25.41 ℃ 100 % 1023.9 hPa
2024-07-18 12:45:52 25.03 ℃ 100 % 1023.95 hPa
2024-07-18 12:35:52 24.79 ℃ 100 % 1023.96 hPa
2024-07-18 12:25:52 24.27 ℃ 100 % 1024.03 hPa
2024-07-18 12:15:52 24.48 ℃ 100 % 1024.04 hPa
2024-07-18 12:05:52 23.99 ℃ 100 % 1024.05 hPa
2024-07-18 11:55:52 23.7 ℃ 100 % 1024.09 hPa
2024-07-18 11:45:52 23.92 ℃ 100 % 1024.09 hPa
2024-07-18 11:35:52 23.62 ℃ 100 % 1024.07 hPa
2024-07-18 11:25:52 24.05 ℃ 100 % 1024 hPa
2024-07-18 11:15:52 23.99 ℃ 100 % 1023.94 hPa
2024-07-18 11:05:52 23.36 ℃ 100 % 1023.93 hPa
2024-07-18 10:55:52 23.81 ℃ 100 % 1023.94 hPa
2024-07-18 10:45:52 23.3 ℃ 100 % 1023.93 hPa
2024-07-18 10:35:52 23.08 ℃ 100 % 1023.95 hPa
2024-07-18 10:25:52 22.69 ℃ 100 % 1023.98 hPa
2024-07-18 10:15:52 22.68 ℃ 100 % 1024.02 hPa
2024-07-18 10:05:52 22.79 ℃ 100 % 1024 hPa
2024-07-18 09:55:52 22.58 ℃ 100 % 1023.99 hPa
2024-07-18 09:45:52 22.41 ℃ 100 % 1024.01 hPa
2024-07-18 09:35:52 22.24 ℃ 100 % 1024.07 hPa
2024-07-18 09:25:52 21.81 ℃ 100 % 1024.09 hPa
2024-07-18 09:15:52 21.11 ℃ 100 % 1024.12 hPa
2024-07-18 09:05:52 21.21 ℃ 100 % 1024.11 hPa
2024-07-18 08:55:52 20.92 ℃ 100 % 1024.04 hPa
2024-07-18 08:45:52 20.74 ℃ 100 % 1024.02 hPa
2024-07-18 08:35:52 20.49 ℃ 100 % 1023.99 hPa
2024-07-18 08:25:52 20.19 ℃ 100 % 1023.96 hPa
2024-07-18 08:15:52 20.12 ℃ 100 % 1023.95 hPa
2024-07-18 08:05:52 19.71 ℃ 100 % 1023.9 hPa
2024-07-18 07:55:52 20.01 ℃ 100 % 1023.76 hPa
2024-07-18 07:45:52 19.97 ℃ 100 % 1023.65 hPa
2024-07-18 07:35:52 19.79 ℃ 100 % 1023.55 hPa
2024-07-18 07:25:52 19.55 ℃ 100 % 1023.5 hPa
2024-07-18 07:15:52 19.29 ℃ 100 % 1023.42 hPa
2024-07-18 07:05:52 19.15 ℃ 100 % 1023.38 hPa
2024-07-18 06:55:52 19.05 ℃ 100 % 1023.35 hPa
2024-07-18 06:45:52 19.14 ℃ 100 % 1023.29 hPa
2024-07-18 06:35:52 19.14 ℃ 100 % 1023.17 hPa
2024-07-18 06:25:52 18.7 ℃ 100 % 1023.12 hPa
2024-07-18 06:15:52 18.52 ℃ 100 % 1023 hPa
2024-07-18 06:05:52 18.7 ℃ 100 % 1022.9 hPa
2024-07-18 05:55:52 18.87 ℃ 100 % 1022.86 hPa
2024-07-18 05:45:52 18.91 ℃ 100 % 1022.76 hPa
2024-07-18 05:35:52 18.89 ℃ 100 % 1022.7 hPa
2024-07-18 05:25:52 18.85 ℃ 100 % 1022.66 hPa
2024-07-18 05:15:52 18.75 ℃ 100 % 1022.63 hPa
2024-07-18 05:05:52 18.99 ℃ 100 % 1022.6 hPa
2024-07-18 04:55:52 18.93 ℃ 100 % 1022.6 hPa
2024-07-18 04:45:52 18.93 ℃ 100 % 1022.56 hPa
2024-07-18 04:35:52 19.2 ℃ 100 % 1022.58 hPa
2024-07-18 04:25:53 19.64 ℃ 100 % 1022.52 hPa
2024-07-18 04:15:52 19.86 ℃ 100 % 1022.48 hPa
2024-07-18 04:05:53 19.85 ℃ 100 % 1022.47 hPa
2024-07-18 03:55:53 19.71 ℃ 100 % 1022.49 hPa
2024-07-18 03:45:52 19.65 ℃ 100 % 1022.52 hPa
2024-07-18 03:35:52 19.61 ℃ 100 % 1022.53 hPa
2024-07-18 03:25:53 19.96 ℃ 100 % 1022.49 hPa
2024-07-18 03:15:52 19.93 ℃ 100 % 1022.44 hPa
2024-07-18 03:05:52 20.12 ℃ 100 % 1022.41 hPa
2024-07-18 02:55:53 19.72 ℃ 100 % 1022.36 hPa
2024-07-18 02:45:53 19.74 ℃ 100 % 1022.32 hPa
2024-07-18 02:35:53 19.77 ℃ 100 % 1022.29 hPa
2024-07-18 02:25:53 20.11 ℃ 100 % 1022.27 hPa
2024-07-18 02:15:53 20.1 ℃ 100 % 1022.23 hPa
2024-07-18 02:05:53 20.07 ℃ 100 % 1022.25 hPa
2024-07-18 01:55:53 20.03 ℃ 100 % 1022.27 hPa
2024-07-18 01:45:53 19.89 ℃ 100 % 1022.3 hPa
2024-07-18 01:35:53 19.66 ℃ 100 % 1022.26 hPa
2024-07-18 01:25:53 19.56 ℃ 100 % 1022.19 hPa
2024-07-18 01:15:53 19.46 ℃ 100 % 1022.16 hPa
2024-07-18 01:05:53 19.49 ℃ 100 % 1022.1 hPa
2024-07-18 00:55:53 19.55 ℃ 100 % 1022.05 hPa
2024-07-18 00:45:53 19.66 ℃ 100 % 1021.96 hPa
2024-07-18 00:35:53 19.43 ℃ 100 % 1021.85 hPa
2024-07-18 00:25:53 19.19 ℃ 100 % 1021.79 hPa
2024-07-18 00:15:53 19.39 ℃ 100 % 1021.7 hPa
2024-07-18 00:05:53 19.35 ℃ 100 % 1021.63 hPa
2024-07-17 23:55:53 19.49 ℃ 100 % 1021.58 hPa
2024-07-17 23:45:53 19.49 ℃ 100 % 1021.54 hPa
2024-07-17 23:35:53 19.56 ℃ 100 % 1021.55 hPa
2024-07-17 23:25:53 19.58 ℃ 100 % 1021.54 hPa
2024-07-17 23:15:53 19.33 ℃ 100 % 1021.53 hPa
2024-07-17 23:05:53 19.51 ℃ 100 % 1021.48 hPa
2024-07-17 22:55:53 19.71 ℃ 100 % 1021.37 hPa
2024-07-17 22:45:53 19.66 ℃ 100 % 1021.34 hPa
2024-07-17 22:35:53 19.83 ℃ 100 % 1021.33 hPa
2024-07-17 22:25:53 20.16 ℃ 100 % 1021.24 hPa
2024-07-17 22:15:53 20.25 ℃ 100 % 1021.2 hPa
2024-07-17 22:05:53 20.54 ℃ 100 % 1021.13 hPa
2024-07-17 21:55:53 20.37 ℃ 100 % 1021.06 hPa
2024-07-17 21:45:53 20.29 ℃ 100 % 1020.98 hPa
2024-07-17 21:35:53 20.4 ℃ 100 % 1020.87 hPa
2024-07-17 21:25:53 20.3 ℃ 100 % 1020.78 hPa
2024-07-17 21:15:53 20.2 ℃ 100 % 1020.66 hPa
2024-07-17 21:05:53 20.25 ℃ 100 % 1020.6 hPa
2024-07-17 20:55:53 20.36 ℃ 100 % 1020.48 hPa
2024-07-17 20:45:53 20.54 ℃ 100 % 1020.38 hPa
2024-07-17 20:35:53 20.65 ℃ 100 % 1020.25 hPa
2024-07-17 20:25:53 20.68 ℃ 100 % 1020.14 hPa
2024-07-17 20:15:53 20.86 ℃ 100 % 1020.07 hPa
2024-07-17 20:05:53 21.1 ℃ 100 % 1020 hPa
2024-07-17 19:55:53 20.68 ℃ 100 % 1019.96 hPa
2024-07-17 19:45:53 20.85 ℃ 100 % 1019.84 hPa
2024-07-17 19:35:53 20.78 ℃ 100 % 1019.73 hPa
2024-07-17 19:25:53 20.89 ℃ 100 % 1019.61 hPa
2024-07-17 19:15:53 20.88 ℃ 100 % 1019.52 hPa
2024-07-17 19:05:53 20.49 ℃ 100 % 1019.46 hPa
2024-07-17 18:55:53 20.37 ℃ 100 % 1019.39 hPa
2024-07-17 18:45:53 20.26 ℃ 100 % 1019.31 hPa
2024-07-17 18:35:53 19.73 ℃ 100 % 1019.26 hPa
2024-07-17 18:25:53 19.61 ℃ 100 % 1019.19 hPa
2024-07-17 18:15:53 19.65 ℃ 100 % 1019.12 hPa
2024-07-17 18:05:53 19.62 ℃ 100 % 1019.02 hPa
2024-07-17 17:55:53 19.53 ℃ 100 % 1018.95 hPa
2024-07-17 17:45:53 19.58 ℃ 100 % 1018.89 hPa
2024-07-17 17:35:54 19.38 ℃ 100 % 1018.82 hPa
2024-07-17 14:49:21 21.83 ℃ 100 % 1016.86 hPa
2024-07-17 14:39:21 21.66 ℃ 100 % 1016.75 hPa
2024-07-17 14:29:21 21.99 ℃ 100 % 1016.59 hPa
2024-07-17 14:19:21 22.04 ℃ 100 % 1016.54 hPa
2024-07-17 14:09:21 22.03 ℃ 100 % 1016.46 hPa
2024-07-17 13:59:21 22.3 ℃ 100 % 1016.36 hPa
2024-07-17 13:49:21 22.28 ℃ 100 % 1016.26 hPa
2024-07-17 13:39:21 22.12 ℃ 100 % 1016.16 hPa
2024-07-17 13:29:21 22.07 ℃ 100 % 1016.05 hPa
2024-07-17 13:19:21 21.95 ℃ 100 % 1015.91 hPa
2024-07-17 13:09:21 22.16 ℃ 100 % 1015.78 hPa
2024-07-17 12:59:21 22.42 ℃ 100 % 1015.68 hPa
2024-07-17 12:49:21 22.15 ℃ 100 % 1015.61 hPa
2024-07-17 12:39:21 21.98 ℃ 100 % 1015.57 hPa
2024-07-17 12:29:21 22.03 ℃ 100 % 1015.52 hPa
2024-07-17 12:19:21 22.31 ℃ 100 % 1015.41 hPa
2024-07-17 12:09:21 22.45 ℃ 100 % 1015.29 hPa
2024-07-17 11:59:21 22.71 ℃ 100 % 1015.18 hPa
2024-07-17 11:49:21 22.53 ℃ 100 % 1015.09 hPa
2024-07-17 11:39:22 22.18 ℃ 100 % 1014.99 hPa
2024-07-17 11:29:21 22.23 ℃ 100 % 1014.91 hPa
2024-07-17 11:19:21 22.77 ℃ 100 % 1014.76 hPa
2024-07-17 11:09:21 22.53 ℃ 100 % 1014.67 hPa
2024-07-17 10:59:22 22.41 ℃ 100 % 1014.56 hPa
2024-07-17 10:49:22 22.27 ℃ 100 % 1014.47 hPa
2024-07-17 10:39:21 22.38 ℃ 100 % 1014.43 hPa
2024-07-17 10:29:21 22.39 ℃ 100 % 1014.33 hPa
2024-07-17 10:19:21 22.76 ℃ 100 % 1014.17 hPa
2024-07-17 10:09:21 22.59 ℃ 100 % 1014.07 hPa
2024-07-17 09:59:22 22.47 ℃ 100 % 1013.96 hPa
2024-07-17 09:49:21 22.68 ℃ 100 % 1013.82 hPa
2024-07-17 09:39:21 22.5 ℃ 100 % 1013.75 hPa
2024-07-17 09:29:21 22.61 ℃ 100 % 1013.66 hPa
2024-07-17 09:19:22 22.99 ℃ 100 % 1013.59 hPa
2024-07-17 09:09:21 22.51 ℃ 100 % 1013.56 hPa
2024-07-17 08:59:22 21.77 ℃ 100 % 1013.49 hPa
2024-07-17 08:49:22 21.44 ℃ 100 % 1013.4 hPa
2024-07-17 08:39:22 21.63 ℃ 100 % 1013.24 hPa
2024-07-17 08:29:22 22.32 ℃ 100 % 1013.09 hPa
2024-07-17 08:19:22 21.98 ℃ 100 % 1012.98 hPa
2024-07-17 08:09:22 21.89 ℃ 100 % 1012.88 hPa
2024-07-17 07:59:22 21.73 ℃ 100 % 1012.79 hPa
2024-07-17 07:49:22 20.97 ℃ 100 % 1012.78 hPa
2024-07-17 07:39:22 20.73 ℃ 100 % 1012.72 hPa
2024-07-17 07:29:22 20.5 ℃ 100 % 1012.63 hPa
2024-07-17 07:19:22 20.71 ℃ 100 % 1012.57 hPa
2024-07-17 07:09:22 20.6 ℃ 100 % 1012.51 hPa
2024-07-17 06:59:22 20.26 ℃ 100 % 1012.47 hPa
2024-07-17 06:49:22 20.16 ℃ 100 % 1012.45 hPa
2024-07-17 06:39:22 20.34 ℃ 100 % 1012.43 hPa
2024-07-17 06:29:22 19.84 ℃ 100 % 1012.43 hPa
2024-07-17 06:19:22 20.01 ℃ 100 % 1012.39 hPa
2024-07-17 06:09:22 20.16 ℃ 100 % 1012.32 hPa
2024-07-17 05:59:22 20.18 ℃ 100 % 1012.27 hPa
2024-07-17 05:49:22 19.98 ℃ 100 % 1012.21 hPa
2024-07-17 05:39:22 20.04 ℃ 100 % 1012.13 hPa
2024-07-17 05:29:22 20.16 ℃ 100 % 1012.07 hPa
2024-07-17 05:19:22 20.45 ℃ 100 % 1012 hPa
2024-07-17 05:09:22 20.52 ℃ 100 % 1011.93 hPa
2024-07-17 04:59:22 20.51 ℃ 100 % 1011.92 hPa
2024-07-17 04:49:22 20.34 ℃ 100 % 1011.91 hPa
2024-07-17 04:39:22 20.38 ℃ 100 % 1011.85 hPa
2024-07-17 04:29:22 20.48 ℃ 100 % 1011.78 hPa
2024-07-17 04:19:22 20.65 ℃ 100 % 1011.7 hPa
2024-07-17 04:09:22 20.52 ℃ 100 % 1011.65 hPa
2024-07-17 03:59:22 20.71 ℃ 100 % 1011.6 hPa
2024-07-17 03:49:22 20.68 ℃ 100 % 1011.63 hPa
2024-07-17 03:39:22 21 ℃ 100 % 1011.6 hPa
2024-07-17 03:29:22 20.88 ℃ 100 % 1011.59 hPa
2024-07-17 03:19:22 20.7 ℃ 100 % 1011.68 hPa
2024-07-17 03:09:22 20.87 ℃ 100 % 1011.74 hPa
2024-07-17 02:59:22 20.88 ℃ 100 % 1011.82 hPa
2024-07-17 02:49:22 21.01 ℃ 100 % 1011.82 hPa
2024-07-17 02:39:22 21.24 ℃ 100 % 1011.87 hPa
2024-07-17 02:29:22 21.28 ℃ 100 % 1011.93 hPa
2024-07-17 02:19:22 21.62 ℃ 100 % 1011.96 hPa
2024-07-17 02:09:22 21.53 ℃ 100 % 1012.01 hPa
2024-07-17 01:59:22 21.54 ℃ 100 % 1012.02 hPa
2024-07-17 01:49:22 21.85 ℃ 100 % 1012.02 hPa
2024-07-17 01:39:22 21.71 ℃ 100 % 1011.99 hPa
2024-07-17 01:29:22 21.73 ℃ 100 % 1011.96 hPa
2024-07-17 01:19:23 21.95 ℃ 100 % 1011.87 hPa
2024-07-17 01:09:22 22.05 ℃ 100 % 1011.89 hPa
2024-07-17 00:59:22 22.4 ℃ 100 % 1011.9 hPa
2024-07-17 00:49:22 22.4 ℃ 100 % 1011.94 hPa
2024-07-17 00:39:22 22.47 ℃ 100 % 1011.97 hPa
2024-07-17 00:29:22 22.67 ℃ 100 % 1011.98 hPa
2024-07-17 00:19:22 22.85 ℃ 100 % 1011.93 hPa
2024-07-17 00:09:22 22.99 ℃ 100 % 1011.87 hPa
2024-07-16 23:59:22 23.09 ℃ 100 % 1011.84 hPa
2024-07-16 23:49:22 23.54 ℃ 100 % 1011.73 hPa
2024-07-16 23:39:22 23.52 ℃ 100 % 1011.69 hPa
2024-07-16 23:29:22 23.47 ℃ 100 % 1011.64 hPa
2024-07-16 23:19:22 23.6 ℃ 100 % 1011.6 hPa
2024-07-16 23:09:22 23.73 ℃ 100 % 1011.58 hPa
2024-07-16 22:59:23 23.67 ℃ 100 % 1011.58 hPa
2024-07-16 22:49:22 23.53 ℃ 100 % 1011.55 hPa
2024-07-16 22:39:22 23.55 ℃ 100 % 1011.53 hPa
2024-07-16 22:29:22 23.63 ℃ 100 % 1011.52 hPa
2024-07-16 22:19:22 23.76 ℃ 100 % 1011.42 hPa
2024-07-16 22:09:22 23.87 ℃ 100 % 1011.31 hPa
2024-07-16 21:59:22 23.77 ℃ 100 % 1011.13 hPa
2024-07-16 21:49:22 23.36 ℃ 100 % 1011.05 hPa
2024-07-16 21:39:22 23.17 ℃ 100 % 1010.91 hPa
2024-07-16 21:29:22 23.28 ℃ 100 % 1010.7 hPa
2024-07-16 21:19:23 23.89 ℃ 100 % 1010.42 hPa
2024-07-16 21:09:22 24.11 ℃ 100 % 1010.23 hPa
2024-07-16 20:59:23 23.89 ℃ 100 % 1010.1 hPa
2024-07-16 20:49:23 23.71 ℃ 100 % 1010.23 hPa
2024-07-16 20:39:23 24.3 ℃ 100 % 1010.14 hPa
2024-07-16 20:29:23 25.16 ℃ 100 % 1009.88 hPa
2024-07-16 20:19:23 25.6 ℃ 100 % 1009.86 hPa
2024-07-16 20:09:23 25.18 ℃ 100 % 1009.9 hPa
2024-07-16 19:59:23 25.57 ℃ 100 % 1009.81 hPa
2024-07-16 19:49:23 26.26 ℃ 100 % 1009.73 hPa
2024-07-16 19:39:23 25.89 ℃ 100 % 1009.69 hPa
2024-07-16 19:29:23 25.84 ℃ 100 % 1009.68 hPa
2024-07-16 19:19:23 25.84 ℃ 100 % 1009.7 hPa
2024-07-16 19:09:23 26.09 ℃ 100 % 1009.65 hPa
2024-07-16 18:59:23 26.06 ℃ 100 % 1009.63 hPa
2024-07-16 18:49:23 26.15 ℃ 100 % 1009.65 hPa
2024-07-16 18:39:23 26 ℃ 100 % 1009.71 hPa
2024-07-16 18:29:23 26.43 ℃ 100 % 1009.78 hPa
2024-07-16 18:19:23 26.59 ℃ 100 % 1009.88 hPa
2024-07-16 18:09:23 27.2 ℃ 100 % 1009.93 hPa
2024-07-16 17:59:23 26.68 ℃ 100 % 1009.93 hPa
2024-07-16 17:49:23 26.28 ℃ 100 % 1009.9 hPa
2024-07-16 17:39:23 25.93 ℃ 100 % 1009.94 hPa
2024-07-16 17:29:23 26.24 ℃ 100 % 1009.98 hPa
2024-07-16 17:19:23 26.6 ℃ 100 % 1010.04 hPa
2024-07-16 17:09:23 26.75 ℃ 100 % 1010.09 hPa
2024-07-16 16:59:23 26.84 ℃ 100 % 1010.09 hPa
2024-07-16 16:49:23 26.73 ℃ 100 % 1010.05 hPa
2024-07-16 16:39:23 26.71 ℃ 100 % 1010.01 hPa
2024-07-16 16:29:23 26.72 ℃ 100 % 1009.93 hPa
2024-07-16 16:19:23 26.33 ℃ 100 % 1009.85 hPa
2024-07-16 16:09:23 26.27 ℃ 100 % 1009.79 hPa
2024-07-16 15:59:23 25.65 ℃ 100 % 1009.64 hPa
2024-07-16 15:49:23 25.44 ℃ 100 % 1009.47 hPa
2024-07-16 15:39:23 25.17 ℃ 100 % 1009.39 hPa
2024-07-16 15:29:23 25.3 ℃ 100 % 1009.4 hPa
2024-07-16 15:19:23 25.42 ℃ 100 % 1009.45 hPa
2024-07-16 15:09:23 24.99 ℃ 100 % 1009.48 hPa
2024-07-16 14:59:23 24.66 ℃ 100 % 1009.5 hPa
2024-07-16 14:49:23 24.5 ℃ 100 % 1009.46 hPa
2024-07-16 14:39:23 24.78 ℃ 100 % 1009.36 hPa
2024-07-16 14:29:23 25.13 ℃ 100 % 1009.29 hPa
2024-07-16 14:19:23 25.27 ℃ 100 % 1009.22 hPa
2024-07-16 14:09:23 25.67 ℃ 100 % 1009.15 hPa
2024-07-16 13:59:23 26.83 ℃ 100 % 1008.98 hPa
2024-07-16 13:49:23 27.48 ℃ 100 % 1008.86 hPa
2024-07-16 13:39:23 27.88 ℃ 100 % 1008.87 hPa
2024-07-16 13:29:23 27.29 ℃ 100 % 1009 hPa
2024-07-16 13:19:23 26.41 ℃ 100 % 1009.07 hPa
2024-07-16 13:09:23 25.99 ℃ 100 % 1009.12 hPa
2024-07-16 12:59:23 25.63 ℃ 100 % 1009.18 hPa
2024-07-16 12:49:23 25.37 ℃ 100 % 1009.17 hPa
2024-07-16 12:39:23 24.9 ℃ 100 % 1009.2 hPa
2024-07-16 12:29:23 24.61 ℃ 100 % 1009.26 hPa
2024-07-16 12:19:23 23.57 ℃ 100 % 1009.38 hPa
2024-07-16 12:09:23 23.47 ℃ 100 % 1009.32 hPa
2024-07-16 11:59:23 23.2 ℃ 100 % 1009.2 hPa
2024-07-16 11:49:23 23.06 ℃ 100 % 1009.16 hPa
2024-07-16 11:39:23 22.9 ℃ 100 % 1009.08 hPa
2024-07-16 11:29:23 22.86 ℃ 100 % 1009.01 hPa
2024-07-16 11:19:23 22.84 ℃ 100 % 1008.9 hPa
2024-07-16 11:09:23 22.59 ℃ 100 % 1008.83 hPa
2024-07-16 10:59:23 22.14 ℃ 100 % 1008.82 hPa
2024-07-16 10:49:23 21.82 ℃ 100 % 1008.83 hPa
2024-07-16 10:39:23 21.58 ℃ 100 % 1008.88 hPa
2024-07-16 10:29:23 21.45 ℃ 100 % 1008.96 hPa
2024-07-16 10:19:23 21.13 ℃ 100 % 1009.01 hPa
2024-07-16 10:09:23 20.87 ℃ 100 % 1009.06 hPa
2024-07-16 09:59:23 20.81 ℃ 100 % 1009.12 hPa
2024-07-16 09:49:23 20.64 ℃ 100 % 1009.11 hPa
2024-07-16 09:39:23 20.64 ℃ 100 % 1009.08 hPa
2024-07-16 09:29:24 20.09 ℃ 100 % 1009.01 hPa
2024-07-16 09:19:23 20.08 ℃ 100 % 1009.05 hPa
2024-07-16 09:09:23 19.76 ℃ 100 % 1009.15 hPa
2024-07-16 08:59:23 19.51 ℃ 100 % 1009.21 hPa
2024-07-16 08:49:23 19.53 ℃ 100 % 1009.29 hPa
2024-07-16 08:39:23 20.03 ℃ 100 % 1009.33 hPa
2024-07-16 08:29:24 19.46 ℃ 100 % 1009.35 hPa
2024-07-16 08:19:24 19.57 ℃ 100 % 1009.43 hPa
2024-07-16 08:09:24 19.53 ℃ 100 % 1009.47 hPa
2024-07-16 07:59:24 19.39 ℃ 100 % 1009.52 hPa
2024-07-16 07:49:24 19.3 ℃ 100 % 1009.52 hPa
2024-07-16 07:39:24 19.48 ℃ 100 % 1009.5 hPa
2024-07-16 07:29:24 19.36 ℃ 100 % 1009.48 hPa
2024-07-16 07:19:24 19.5 ℃ 100 % 1009.46 hPa
2024-07-16 07:09:24 19.56 ℃ 100 % 1009.49 hPa
2024-07-16 06:59:24 19.59 ℃ 100 % 1009.55 hPa
2024-07-16 06:49:24 19.83 ℃ 100 % 1009.57 hPa
2024-07-16 06:39:24 19.72 ℃ 100 % 1009.66 hPa
2024-07-16 06:29:24 20 ℃ 100 % 1009.73 hPa
2024-07-16 06:19:24 20.43 ℃ 100 % 1009.75 hPa
2024-07-16 06:09:24 20.64 ℃ 100 % 1009.79 hPa
2024-07-16 05:59:24 20.84 ℃ 100 % 1009.81 hPa
2024-07-16 05:49:24 20.87 ℃ 100 % 1009.89 hPa
2024-07-16 05:39:24 21.04 ℃ 100 % 1009.95 hPa
2024-07-16 05:29:24 21.27 ℃ 100 % 1009.98 hPa
2024-07-16 05:19:24 21.08 ℃ 100 % 1009.89 hPa
2024-07-16 05:09:24 20.95 ℃ 100 % 1009.85 hPa
2024-07-16 04:59:24 20.65 ℃ 100 % 1009.76 hPa
2024-07-16 04:49:24 20.38 ℃ 100 % 1009.77 hPa
2024-07-16 04:39:24 20.29 ℃ 100 % 1009.91 hPa
2024-07-16 04:29:24 20.41 ℃ 100 % 1009.98 hPa
2024-07-16 04:19:24 20.38 ℃ 100 % 1009.99 hPa
2024-07-16 04:09:24 20.53 ℃ 100 % 1010.02 hPa
2024-07-16 03:59:24 20.63 ℃ 100 % 1010.07 hPa
2024-07-16 03:49:24 20.52 ℃ 100 % 1010.16 hPa
2024-07-16 03:39:24 20.82 ℃ 100 % 1010.25 hPa
2024-07-16 03:29:24 20.66 ℃ 100 % 1010.31 hPa
2024-07-16 03:19:24 20.48 ℃ 100 % 1010.37 hPa
2024-07-16 03:09:24 20.37 ℃ 100 % 1010.44 hPa
2024-07-16 02:59:24 20.14 ℃ 100 % 1010.55 hPa
2024-07-16 02:49:24 19.87 ℃ 100 % 1010.66 hPa
2024-07-16 02:39:24 19.8 ℃ 100 % 1010.84 hPa
2024-07-16 02:29:24 19.82 ℃ 100 % 1010.98 hPa
2024-07-16 02:19:24 19.93 ℃ 100 % 1011.05 hPa
2024-07-16 02:09:24 19.8 ℃ 100 % 1011.07 hPa
2024-07-16 01:59:24 19.52 ℃ 100 % 1011.09 hPa
2024-07-16 01:49:24 19.6 ℃ 100 % 1011.17 hPa
2024-07-16 01:39:24 19.59 ℃ 100 % 1011.25 hPa
2024-07-16 01:29:24 19.87 ℃ 100 % 1011.43 hPa
2024-07-16 01:19:24 19.78 ℃ 100 % 1011.6 hPa
2024-07-16 01:09:24 19.86 ℃ 100 % 1011.71 hPa
2024-07-16 00:59:24 20.16 ℃ 100 % 1011.73 hPa
2024-07-16 00:49:24 20.3 ℃ 100 % 1011.79 hPa
2024-07-16 00:39:24 20.09 ℃ 100 % 1011.76 hPa
2024-07-16 00:29:24 20.25 ℃ 100 % 1011.83 hPa
2024-07-16 00:19:24 20.35 ℃ 100 % 1011.85 hPa
2024-07-16 00:09:24 20.45 ℃ 100 % 1011.89 hPa
2024-07-15 23:59:24 20.41 ℃ 100 % 1011.93 hPa
2024-07-15 23:49:24 20.7 ℃ 100 % 1011.99 hPa
2024-07-15 23:39:24 20.54 ℃ 100 % 1011.98 hPa
2024-07-15 23:29:24 20.96 ℃ 100 % 1012.02 hPa
2024-07-15 23:19:24 20.61 ℃ 100 % 1012.01 hPa
2024-07-15 23:09:24 20.63 ℃ 100 % 1012.04 hPa
2024-07-15 22:59:24 20.58 ℃ 100 % 1012.04 hPa
2024-07-15 22:49:24 20.66 ℃ 100 % 1012.09 hPa
2024-07-15 22:39:24 20.95 ℃ 100 % 1012.24 hPa
2024-07-15 22:29:25 21.45 ℃ 100 % 1012.35 hPa
2024-07-15 22:19:24 21.55 ℃ 100 % 1012.35 hPa
2024-07-15 22:09:25 21.86 ℃ 100 % 1012.3 hPa
2024-07-15 21:59:24 21.96 ℃ 100 % 1012.34 hPa
2024-07-15 21:49:24 22.01 ℃ 100 % 1012.39 hPa
2024-07-15 21:39:24 22.09 ℃ 100 % 1012.3 hPa
2024-07-15 21:29:24 22.14 ℃ 100 % 1012.18 hPa
2024-07-15 21:19:24 22.31 ℃ 100 % 1012.13 hPa
2024-07-15 21:09:25 22.61 ℃ 100 % 1012.18 hPa
2024-07-15 20:59:25 23.05 ℃ 100 % 1012.14 hPa
2024-07-15 20:49:24 23.61 ℃ 100 % 1012.19 hPa
2024-07-15 20:39:25 24.72 ℃ 100 % 1012.14 hPa
2024-07-15 20:29:25 26.45 ℃ 100 % 1012.1 hPa
2024-07-15 20:19:25 27.02 ℃ 100 % 1012.15 hPa
2024-07-15 20:09:25 27.23 ℃ 100 % 1012.12 hPa
2024-07-15 19:59:25 27.36 ℃ 100 % 1012.09 hPa
2024-07-15 19:49:25 27.25 ℃ 100 % 1012.12 hPa
2024-07-15 19:39:25 27.28 ℃ 100 % 1012.09 hPa
2024-07-15 19:29:25 26.98 ℃ 100 % 1012.1 hPa
2024-07-15 19:19:25 27.39 ℃ 100 % 1012.12 hPa
2024-07-15 19:09:25 27.28 ℃ 100 % 1012.1 hPa
2024-07-15 18:59:25 27.1 ℃ 100 % 1012.06 hPa
2024-07-15 18:49:25 26.9 ℃ 100 % 1012.13 hPa
2024-07-15 18:39:25 26.85 ℃ 100 % 1012.17 hPa
2024-07-15 18:29:25 26.39 ℃ 100 % 1012.21 hPa
2024-07-15 18:19:25 26.54 ℃ 100 % 1012.25 hPa
2024-07-15 18:09:25 26.01 ℃ 100 % 1012.38 hPa
2024-07-15 17:59:25 26.17 ℃ 100 % 1012.34 hPa
2024-07-15 17:49:25 26.25 ℃ 100 % 1012.32 hPa
2024-07-15 17:39:25 26.19 ℃ 100 % 1012.35 hPa
2024-07-15 17:29:25 26.54 ℃ 100 % 1012.39 hPa
2024-07-15 17:19:25 26.32 ℃ 100 % 1012.44 hPa
2024-07-15 17:09:25 26.48 ℃ 100 % 1012.5 hPa
2024-07-15 16:59:25 26.65 ℃ 100 % 1012.53 hPa
2024-07-15 16:49:25 26.3 ℃ 100 % 1012.63 hPa
2024-07-15 16:39:25 26 ℃ 100 % 1012.72 hPa
2024-07-15 16:29:25 25.61 ℃ 100 % 1012.84 hPa
2024-07-15 16:19:25 25.84 ℃ 100 % 1012.92 hPa
2024-07-15 16:09:25 26.09 ℃ 100 % 1012.91 hPa
2024-07-15 15:59:25 25.84 ℃ 100 % 1012.9 hPa
2024-07-15 15:49:25 26.08 ℃ 100 % 1012.86 hPa
2024-07-15 15:39:25 26.1 ℃ 100 % 1012.83 hPa
2024-07-15 15:29:25 26.1 ℃ 100 % 1012.85 hPa
2024-07-15 15:19:25 25.94 ℃ 100 % 1012.87 hPa
2024-07-15 15:09:25 25.74 ℃ 100 % 1012.89 hPa
2024-07-15 14:59:25 25.51 ℃ 100 % 1012.84 hPa
2024-07-15 14:49:25 25.66 ℃ 100 % 1012.69 hPa
2024-07-15 14:39:25 25.38 ℃ 100 % 1012.7 hPa
2024-07-15 14:29:25 25 ℃ 100 % 1012.7 hPa
2024-07-15 14:19:25 24.89 ℃ 100 % 1012.66 hPa
2024-07-15 14:09:25 25.02 ℃ 100 % 1012.65 hPa
2024-07-15 13:59:25 25.28 ℃ 100 % 1012.6 hPa
2024-07-15 13:49:25 25.99 ℃ 100 % 1012.53 hPa
2024-07-15 13:39:25 26.3 ℃ 100 % 1012.49 hPa
2024-07-15 13:29:25 26.47 ℃ 100 % 1012.5 hPa
2024-07-15 13:19:25 25.89 ℃ 100 % 1012.51 hPa
2024-07-15 13:09:25 25.64 ℃ 100 % 1012.54 hPa
2024-07-15 12:59:25 25.37 ℃ 100 % 1012.52 hPa
2024-07-15 12:49:25 25.06 ℃ 100 % 1012.46 hPa
2024-07-15 12:39:25 24.48 ℃ 100 % 1012.47 hPa
2024-07-15 12:29:25 24.74 ℃ 100 % 1012.43 hPa
2024-07-15 12:19:25 25.15 ℃ 100 % 1012.42 hPa
2024-07-15 12:09:25 25.07 ℃ 100 % 1012.35 hPa
2024-07-15 11:59:25 25 ℃ 100 % 1012.34 hPa
2024-07-15 11:49:25 24.91 ℃ 100 % 1012.33 hPa
2024-07-15 11:39:25 24.52 ℃ 100 % 1012.27 hPa
2024-07-15 11:29:25 24.38 ℃ 100 % 1012.27 hPa
2024-07-15 11:19:25 24.46 ℃ 100 % 1012.31 hPa
2024-07-15 11:09:25 24.5 ℃ 100 % 1012.34 hPa
2024-07-15 10:59:25 24.35 ℃ 100 % 1012.34 hPa
2024-07-15 10:49:25 24.23 ℃ 100 % 1012.31 hPa
2024-07-15 10:39:25 23.94 ℃ 100 % 1012.28 hPa
2024-07-15 10:29:25 23.9 ℃ 100 % 1012.23 hPa
2024-07-15 10:19:25 23.7 ℃ 100 % 1012.23 hPa
2024-07-15 10:09:25 23.77 ℃ 100 % 1012.22 hPa
2024-07-15 09:59:25 23.89 ℃ 100 % 1012.17 hPa
2024-07-15 09:49:25 23.31 ℃ 100 % 1012.11 hPa
2024-07-15 09:39:25 23.14 ℃ 100 % 1012.12 hPa
2024-07-15 09:29:25 23.36 ℃ 100 % 1012.09 hPa
2024-07-15 09:19:25 23.54 ℃ 100 % 1012.02 hPa
2024-07-15 09:09:25 23.88 ℃ 100 % 1012 hPa
2024-07-15 08:59:25 23.75 ℃ 100 % 1011.97 hPa
2024-07-15 08:49:26 23.68 ℃ 100 % 1011.94 hPa
2024-07-15 08:39:25 23.88 ℃ 100 % 1011.85 hPa
2024-07-15 08:29:26 23.4 ℃ 100 % 1011.81 hPa
2024-07-15 08:19:25 23.34 ℃ 100 % 1011.8 hPa
2024-07-15 08:09:26 23.19 ℃ 100 % 1011.81 hPa
2024-07-15 07:59:26 23.08 ℃ 100 % 1011.8 hPa
2024-07-15 07:49:26 23.32 ℃ 100 % 1011.79 hPa
2024-07-15 07:39:26 23.41 ℃ 100 % 1011.79 hPa
2024-07-15 07:29:26 23.21 ℃ 100 % 1011.75 hPa
2024-07-15 07:19:26 22.79 ℃ 100 % 1011.72 hPa
2024-07-15 07:09:26 22.75 ℃ 100 % 1011.63 hPa
2024-07-15 06:59:26 22.56 ℃ 100 % 1011.52 hPa
2024-07-15 06:49:26 22.47 ℃ 100 % 1011.46 hPa
2024-07-15 06:39:26 22.09 ℃ 100 % 1011.45 hPa
2024-07-15 06:29:26 21.55 ℃ 100 % 1011.46 hPa
2024-07-15 06:19:26 20.59 ℃ 100 % 1011.49 hPa
2024-07-15 06:09:26 20.13 ℃ 100 % 1011.49 hPa
2024-07-15 05:59:26 20.43 ℃ 100 % 1011.46 hPa
2024-07-15 05:49:26 19.82 ℃ 100 % 1011.48 hPa
2024-07-15 05:39:26 19.62 ℃ 100 % 1011.45 hPa
2024-07-15 05:29:26 19.41 ℃ 100 % 1011.48 hPa
2024-07-15 05:19:26 19.43 ℃ 100 % 1011.51 hPa
2024-07-15 05:09:26 19.51 ℃ 100 % 1011.53 hPa
2024-07-15 04:59:26 19.74 ℃ 100 % 1011.52 hPa
2024-07-15 04:49:26 19.68 ℃ 100 % 1011.53 hPa
2024-07-15 04:39:26 19.93 ℃ 100 % 1011.52 hPa
2024-07-15 04:29:26 19.85 ℃ 100 % 1011.54 hPa
2024-07-15 04:19:26 20.05 ℃ 100 % 1011.58 hPa
2024-07-15 04:09:26 19.94 ℃ 100 % 1011.59 hPa
2024-07-15 03:59:26 19.88 ℃ 100 % 1011.64 hPa
2024-07-15 03:49:26 19.99 ℃ 100 % 1011.7 hPa
2024-07-15 03:39:26 19.83 ℃ 100 % 1011.72 hPa
2024-07-15 03:29:26 20.15 ℃ 100 % 1011.72 hPa
2024-07-15 03:19:26 19.94 ℃ 100 % 1011.71 hPa
2024-07-15 03:09:26 19.68 ℃ 100 % 1011.68 hPa
2024-07-15 02:59:26 20.03 ℃ 100 % 1011.67 hPa
2024-07-15 02:49:26 20.2 ℃ 100 % 1011.69 hPa
2024-07-15 02:39:26 20.17 ℃ 100 % 1011.67 hPa
2024-07-15 02:29:26 19.99 ℃ 100 % 1011.69 hPa
2024-07-15 02:19:26 20.24 ℃ 100 % 1011.69 hPa
2024-07-15 02:09:26 20.6 ℃ 100 % 1011.67 hPa
2024-07-15 01:59:26 20.68 ℃ 100 % 1011.73 hPa
2024-07-15 01:49:26 20.41 ℃ 100 % 1011.76 hPa
2024-07-15 01:39:26 20.43 ℃ 100 % 1011.77 hPa
2024-07-15 01:29:26 20.4 ℃ 100 % 1011.79 hPa
2024-07-15 01:19:26 20.29 ℃ 100 % 1011.83 hPa
2024-07-15 01:09:26 20.3 ℃ 100 % 1011.82 hPa
2024-07-15 00:59:26 19.89 ℃ 100 % 1011.83 hPa
2024-07-15 00:49:26 19.64 ℃ 100 % 1011.83 hPa
2024-07-15 00:39:26 19.92 ℃ 100 % 1011.81 hPa
2024-07-15 00:29:26 20.14 ℃ 100 % 1011.79 hPa
2024-07-15 00:19:27 20.03 ℃ 100 % 1011.74 hPa
2024-07-15 00:09:26 19.89 ℃ 100 % 1011.67 hPa
2024-07-14 23:59:27 19.9 ℃ 100 % 1011.59 hPa
2024-07-14 23:49:27 20.1 ℃ 100 % 1011.56 hPa
2024-07-14 23:39:27 20.2 ℃ 100 % 1011.53 hPa
2024-07-14 23:29:26 20.64 ℃ 100 % 1011.53 hPa
2024-07-14 23:19:26 21.02 ℃ 100 % 1011.51 hPa
2024-07-14 23:09:26 21.08 ℃ 100 % 1011.56 hPa
2024-07-14 22:59:26 21.19 ℃ 100 % 1011.6 hPa
2024-07-14 22:49:26 21.14 ℃ 100 % 1011.62 hPa
2024-07-14 22:39:26 21.61 ℃ 100 % 1011.57 hPa
2024-07-14 22:29:26 21.63 ℃ 100 % 1011.55 hPa
2024-07-14 22:19:26 22.02 ℃ 100 % 1011.46 hPa
2024-07-14 22:09:27 22.13 ℃ 100 % 1011.43 hPa
2024-07-14 21:59:26 22.19 ℃ 100 % 1011.43 hPa
2024-07-14 21:49:26 22.13 ℃ 100 % 1011.41 hPa
2024-07-14 21:39:26 22.14 ℃ 100 % 1011.45 hPa
2024-07-14 21:29:27 22.27 ℃ 100 % 1011.43 hPa
2024-07-11 16:41:44 27.42 ℃ 99.4 % 1015.57 hPa
2024-07-11 16:31:44 27.5 ℃ 98.8 % 1015.58 hPa
2024-07-11 16:21:44 27.39 ℃ 99.18 % 1015.6 hPa
2024-07-11 16:11:44 27.33 ℃ 98.37 % 1015.68 hPa
2024-07-11 16:01:44 27.24 ℃ 96.74 % 1015.7 hPa
2024-07-11 15:51:44 26.98 ℃ 99.42 % 1015.7 hPa
2024-07-11 15:41:44 26.88 ℃ 100 % 1015.76 hPa
2024-07-11 15:31:44 27.08 ℃ 100 % 1015.75 hPa
2024-07-11 15:21:44 26.94 ℃ 100 % 1015.75 hPa
2024-07-11 15:11:44 27.17 ℃ 100 % 1015.72 hPa
2024-07-11 15:01:44 27.76 ℃ 100 % 1015.73 hPa
2024-07-11 14:51:44 27.15 ℃ 100 % 1015.78 hPa
2024-07-11 14:41:44 26.9 ℃ 100 % 1015.81 hPa
2024-07-11 14:31:44 26.75 ℃ 100 % 1015.83 hPa
2024-07-11 14:21:44 27.16 ℃ 100 % 1015.83 hPa
2024-07-11 14:11:44 27.27 ℃ 100 % 1015.81 hPa
2024-07-11 14:01:44 27.44 ℃ 100 % 1015.75 hPa
2024-07-11 13:51:44 27.22 ℃ 100 % 1015.74 hPa
2024-07-11 13:41:44 26.78 ℃ 100 % 1015.78 hPa
2024-07-11 13:31:44 26.6 ℃ 100 % 1015.73 hPa
2024-07-11 13:21:44 26.65 ℃ 100 % 1015.65 hPa
2024-07-11 13:11:44 26.9 ℃ 100 % 1015.61 hPa
2024-07-11 13:01:44 26.47 ℃ 100 % 1015.54 hPa
2024-07-11 12:51:44 26.41 ℃ 100 % 1015.52 hPa
2024-07-11 12:41:44 26.65 ℃ 100 % 1015.49 hPa
2024-07-11 12:31:44 26.98 ℃ 100 % 1015.5 hPa
2024-07-11 12:21:44 26.96 ℃ 100 % 1015.5 hPa
2024-07-11 12:11:44 26.94 ℃ 100 % 1015.55 hPa
2024-07-11 12:01:44 27.47 ℃ 100 % 1015.59 hPa
2024-07-11 11:51:44 27.13 ℃ 100 % 1015.62 hPa
2024-07-11 11:41:45 27.13 ℃ 100 % 1015.66 hPa
2024-07-11 11:31:44 26.99 ℃ 100 % 1015.73 hPa
2024-07-11 11:21:44 26.77 ℃ 100 % 1015.69 hPa
2024-07-11 11:11:44 26.19 ℃ 100 % 1015.69 hPa
2024-07-11 11:01:44 25.93 ℃ 100 % 1015.73 hPa
2024-07-11 10:51:44 25.62 ℃ 100 % 1015.78 hPa
2024-07-11 10:41:44 25.61 ℃ 100 % 1015.79 hPa
2024-07-11 10:31:44 26.05 ℃ 100 % 1015.77 hPa
2024-07-11 10:21:44 25.91 ℃ 100 % 1015.75 hPa
2024-07-11 10:11:44 25.92 ℃ 100 % 1015.76 hPa
2024-07-11 10:01:44 26.43 ℃ 100 % 1015.75 hPa
2024-07-11 09:51:44 26.1 ℃ 100 % 1015.74 hPa
2024-07-11 09:41:44 26.76 ℃ 100 % 1015.76 hPa
2024-07-11 09:31:44 26.69 ℃ 100 % 1015.75 hPa
2024-07-10 16:24:37 28.28 ℃ 100 % 1014.69 hPa
2024-07-10 16:14:37 28.49 ℃ 100 % 1014.61 hPa
2024-07-10 16:04:37 28.69 ℃ 100 % 1014.52 hPa
2024-07-10 15:54:37 28.6 ℃ 100 % 1014.44 hPa
2024-07-10 15:44:37 28.14 ℃ 100 % 1014.37 hPa
2024-07-10 15:34:37 27.82 ℃ 100 % 1014.36 hPa
2024-07-10 15:24:37 27.73 ℃ 100 % 1014.28 hPa
2024-07-10 15:14:37 27.98 ℃ 100 % 1014.22 hPa
2024-07-10 15:04:37 27.98 ℃ 100 % 1014.09 hPa
2024-07-10 14:54:37 28.28 ℃ 100 % 1013.93 hPa
2024-07-10 14:44:37 27.57 ℃ 100 % 1013.82 hPa
2024-07-10 14:34:37 27.23 ℃ 100 % 1013.85 hPa
2024-07-10 14:24:37 27.26 ℃ 100 % 1013.85 hPa
2024-07-10 14:14:37 27.2 ℃ 100 % 1013.77 hPa
2024-07-10 14:04:37 26.82 ℃ 100 % 1013.77 hPa
2024-07-10 13:54:37 26.04 ℃ 100 % 1013.79 hPa
2024-07-10 13:44:37 25.66 ℃ 100 % 1013.85 hPa
2024-07-10 13:34:37 25.7 ℃ 100 % 1013.89 hPa
2024-07-10 13:24:37 25.51 ℃ 100 % 1013.93 hPa
2024-07-10 13:14:37 25.27 ℃ 100 % 1014.06 hPa
2024-07-10 13:04:38 24.93 ℃ 100 % 1014.26 hPa
2024-07-10 12:54:37 25.1 ℃ 100 % 1014.36 hPa
2024-07-10 12:44:37 25.13 ℃ 100 % 1014.39 hPa
2024-07-10 12:34:37 24.8 ℃ 100 % 1014.41 hPa
2024-07-10 12:24:38 24.49 ℃ 100 % 1014.46 hPa
2024-07-10 12:14:37 24.51 ℃ 100 % 1014.48 hPa
2024-07-10 12:04:38 24.65 ℃ 100 % 1014.47 hPa
2024-07-10 11:54:37 24.59 ℃ 100 % 1014.48 hPa
2024-07-10 11:44:37 24.29 ℃ 100 % 1014.49 hPa
2024-07-10 11:34:38 24.06 ℃ 100 % 1014.44 hPa
2024-07-10 11:24:38 24.1 ℃ 100 % 1014.35 hPa
2024-07-10 11:14:38 24.44 ℃ 100 % 1014.28 hPa
2024-07-10 11:04:38 24.88 ℃ 100 % 1014.13 hPa
2024-07-10 10:54:38 25.27 ℃ 100 % 1013.98 hPa
2024-07-10 10:44:38 25.47 ℃ 100 % 1013.83 hPa
2024-07-10 10:34:38 25.65 ℃ 100 % 1013.65 hPa
2024-07-10 10:24:38 26.3 ℃ 100 % 1013.45 hPa
2024-07-10 10:14:38 27.09 ℃ 100 % 1013.15 hPa
2024-07-10 10:04:38 27.42 ℃ 100 % 1012.97 hPa
2024-07-10 09:54:38 27.56 ℃ 100 % 1012.88 hPa
2024-07-10 09:44:38 27.27 ℃ 100 % 1012.89 hPa
2024-07-10 09:34:38 27.28 ℃ 100 % 1012.93 hPa
2024-07-10 09:24:38 26.92 ℃ 100 % 1013.01 hPa
2024-07-10 09:14:38 26.79 ℃ 100 % 1012.95 hPa
2024-07-10 09:04:38 26.97 ℃ 100 % 1012.88 hPa
2024-07-10 08:54:38 26.64 ℃ 100 % 1012.94 hPa
2024-07-10 08:44:38 26.23 ℃ 100 % 1012.92 hPa
2024-07-10 08:34:38 26.54 ℃ 100 % 1012.81 hPa
2024-07-10 08:24:38 26.74 ℃ 100 % 1012.7 hPa
2024-07-10 08:14:38 26.92 ℃ 100 % 1012.63 hPa
2024-07-10 08:04:38 27.22 ℃ 100 % 1012.56 hPa
2024-07-10 07:54:38 26.57 ℃ 100 % 1012.54 hPa
2024-07-10 07:44:38 26.76 ℃ 100 % 1012.43 hPa
2024-07-10 07:34:38 27.01 ℃ 100 % 1012.19 hPa
2024-07-10 07:24:38 26.87 ℃ 100 % 1012.03 hPa
2024-07-10 07:14:38 26.67 ℃ 100 % 1011.99 hPa
2024-07-10 07:04:38 26.57 ℃ 100 % 1012.01 hPa
2024-07-10 06:54:38 26.34 ℃ 100 % 1012 hPa
2024-07-10 06:44:38 26.03 ℃ 100 % 1012.1 hPa
2024-07-10 06:34:38 25.9 ℃ 100 % 1012.08 hPa
2024-07-10 06:24:38 25.52 ℃ 100 % 1012.05 hPa
2024-07-10 06:14:38 25.49 ℃ 100 % 1011.94 hPa
2024-07-10 06:04:38 25.32 ℃ 100 % 1011.93 hPa
2024-07-10 05:54:38 25.34 ℃ 100 % 1011.81 hPa
2024-07-10 05:44:38 25.25 ℃ 100 % 1011.68 hPa
2024-07-10 05:34:38 24.76 ℃ 100 % 1011.68 hPa
2024-07-10 05:24:38 24.46 ℃ 100 % 1011.68 hPa
2024-07-10 05:14:38 24.4 ℃ 100 % 1011.65 hPa
2024-07-10 05:04:38 24.3 ℃ 100 % 1011.7 hPa
2024-07-10 04:54:38 24.37 ℃ 100 % 1011.89 hPa
2024-07-10 04:44:38 24.48 ℃ 100 % 1011.94 hPa
2024-07-10 04:34:38 24.7 ℃ 100 % 1011.98 hPa
2024-07-10 04:24:38 24.24 ℃ 100 % 1012.16 hPa
2024-07-10 04:14:38 24.39 ℃ 100 % 1012.43 hPa
2024-07-10 04:04:39 24.33 ℃ 100 % 1012.61 hPa
2024-07-10 03:54:38 24.29 ℃ 100 % 1012.73 hPa
2024-07-10 03:44:38 24.51 ℃ 100 % 1012.82 hPa
2024-07-10 03:34:38 24.79 ℃ 100 % 1012.77 hPa
2024-07-10 03:24:38 24.53 ℃ 100 % 1012.65 hPa
2024-07-10 03:14:38 24.26 ℃ 100 % 1012.45 hPa
2024-07-10 03:04:38 24.22 ℃ 100 % 1011.9 hPa
2024-07-10 02:54:38 24.21 ℃ 100 % 1011.93 hPa
2024-07-10 02:44:38 24.12 ℃ 100 % 1011.97 hPa
2024-07-10 02:34:38 24 ℃ 100 % 1012.1 hPa
2024-07-10 02:24:38 23.86 ℃ 100 % 1012.19 hPa
2024-07-10 02:14:38 23.67 ℃ 100 % 1012.29 hPa
2024-07-10 02:04:38 23.55 ℃ 100 % 1012.35 hPa
2024-07-10 01:54:38 23.69 ℃ 100 % 1012.47 hPa
2024-07-10 01:44:38 23.65 ℃ 100 % 1012.6 hPa
2024-07-10 01:34:38 23.75 ℃ 100 % 1012.76 hPa
2024-07-10 01:24:38 23.85 ℃ 100 % 1012.93 hPa
2024-07-10 01:14:38 23.85 ℃ 100 % 1013.03 hPa
2024-07-10 01:04:38 23.8 ℃ 100 % 1013.1 hPa
2024-07-10 00:54:38 23.83 ℃ 100 % 1013.19 hPa
2024-07-10 00:44:38 23.79 ℃ 100 % 1013.27 hPa
2024-07-10 00:34:38 23.74 ℃ 100 % 1013.34 hPa
2024-07-10 00:24:38 23.68 ℃ 100 % 1013.44 hPa
2024-07-10 00:14:38 23.74 ℃ 100 % 1013.54 hPa
2024-07-10 00:04:39 23.71 ℃ 100 % 1013.64 hPa
2024-07-09 23:54:38 23.78 ℃ 100 % 1013.74 hPa
2024-07-09 23:44:39 23.87 ℃ 100 % 1013.87 hPa
2024-07-09 23:34:39 23.81 ℃ 100 % 1013.93 hPa
2024-07-09 23:24:39 23.71 ℃ 100 % 1013.98 hPa
2024-07-09 23:14:39 23.75 ℃ 100 % 1013.93 hPa
2024-07-09 23:04:39 23.87 ℃ 100 % 1013.99 hPa
2024-07-09 22:54:39 23.79 ℃ 100 % 1014.02 hPa
2024-07-09 22:44:39 23.87 ℃ 100 % 1014.1 hPa
2024-07-09 22:34:39 23.96 ℃ 100 % 1014.14 hPa
2024-07-09 22:24:39 23.88 ℃ 100 % 1014.21 hPa
2024-07-09 22:14:39 23.96 ℃ 100 % 1014.25 hPa
2024-07-09 22:04:39 24.03 ℃ 100 % 1014.23 hPa
2024-07-09 21:54:39 23.82 ℃ 100 % 1014.19 hPa
2024-07-09 21:44:39 23.93 ℃ 100 % 1014.2 hPa
2024-07-09 21:34:39 23.91 ℃ 100 % 1014.2 hPa
2024-07-09 21:24:39 24.17 ℃ 100 % 1014.22 hPa
2024-07-09 21:14:39 24.33 ℃ 100 % 1014.24 hPa
2024-07-09 21:04:39 24.62 ℃ 100 % 1014.29 hPa
2024-07-09 20:54:39 24.6 ℃ 100 % 1014.38 hPa
2024-07-09 20:44:39 24.71 ℃ 100 % 1014.46 hPa
2024-07-09 20:34:39 24.81 ℃ 100 % 1014.52 hPa
2024-07-09 20:24:39 24.69 ℃ 100 % 1014.6 hPa
2024-07-09 20:14:39 24.9 ℃ 100 % 1014.67 hPa
2024-07-09 20:04:39 24.79 ℃ 100 % 1014.79 hPa
2024-07-09 19:54:39 24.85 ℃ 100 % 1014.92 hPa
2024-07-09 19:44:39 24.94 ℃ 100 % 1015.01 hPa
2024-07-09 19:34:39 25.2 ℃ 100 % 1015.07 hPa
2024-07-09 19:24:39 25.06 ℃ 100 % 1015.1 hPa
2024-07-09 19:14:39 25.23 ℃ 100 % 1015.2 hPa
2024-07-09 19:04:39 25.63 ℃ 100 % 1015.21 hPa
2024-07-09 18:54:39 25.94 ℃ 100 % 1015.3 hPa
2024-07-09 18:44:39 26.13 ℃ 100 % 1015.36 hPa
2024-07-09 18:34:39 25.98 ℃ 100 % 1015.44 hPa
2024-07-09 18:24:39 26.21 ℃ 100 % 1015.53 hPa
2024-07-09 18:14:39 26.65 ℃ 100 % 1015.66 hPa
2024-07-09 18:04:39 26.4 ℃ 100 % 1015.72 hPa
2024-07-09 17:54:39 26.14 ℃ 100 % 1015.77 hPa
2024-07-09 17:44:39 26.03 ℃ 100 % 1015.77 hPa
2024-07-09 17:34:39 26.2 ℃ 100 % 1015.9 hPa
2024-07-09 17:24:39 26.43 ℃ 100 % 1015.95 hPa
2024-07-09 17:14:39 26.35 ℃ 100 % 1016.08 hPa
2024-07-09 17:04:39 26.55 ℃ 100 % 1016.18 hPa
2024-07-09 16:54:39 26.76 ℃ 100 % 1016.28 hPa
2024-07-09 16:44:39 27.15 ℃ 100 % 1016.32 hPa
2024-07-09 16:34:39 27.17 ℃ 100 % 1016.4 hPa
2024-07-09 16:24:39 26.86 ℃ 100 % 1016.56 hPa
2024-07-09 16:14:39 26.98 ℃ 100 % 1016.67 hPa
2024-07-09 16:04:39 27.39 ℃ 100 % 1016.69 hPa
2024-07-09 15:54:39 27.11 ℃ 100 % 1016.77 hPa
2024-07-09 15:44:39 27.1 ℃ 100 % 1016.9 hPa
2024-07-09 15:34:39 27.4 ℃ 100 % 1016.92 hPa
2024-07-09 15:24:39 27.2 ℃ 100 % 1016.91 hPa
2024-07-09 15:14:39 27.44 ℃ 100 % 1016.93 hPa
2024-07-09 15:04:39 27.92 ℃ 100 % 1016.97 hPa
2024-07-09 14:54:39 27.64 ℃ 100 % 1017.08 hPa
2024-07-09 14:44:39 27.23 ℃ 100 % 1017.11 hPa
2024-07-09 14:34:39 26.72 ℃ 100 % 1017.27 hPa
2024-07-09 14:24:40 26.26 ℃ 100 % 1017.35 hPa
2024-07-09 14:14:39 25.93 ℃ 100 % 1017.49 hPa
2024-07-09 14:04:40 26.14 ℃ 100 % 1017.5 hPa
2024-07-09 13:54:39 26.11 ℃ 100 % 1017.55 hPa
2024-07-09 13:44:39 26.2 ℃ 100 % 1017.62 hPa
2024-07-09 13:34:39 25.92 ℃ 100 % 1017.76 hPa
2024-07-09 13:24:39 25.2 ℃ 100 % 1017.85 hPa
2024-07-09 13:14:39 24.82 ℃ 100 % 1017.98 hPa
2024-07-09 13:04:39 24.27 ℃ 100 % 1018.13 hPa
2024-07-09 12:54:39 23.96 ℃ 100 % 1018.28 hPa
2024-07-09 12:44:39 23.92 ℃ 100 % 1018.34 hPa
2024-07-09 12:34:39 23.66 ℃ 100 % 1018.43 hPa
2024-07-09 12:24:40 23.85 ℃ 100 % 1018.48 hPa
2024-07-09 12:14:39 23.93 ℃ 100 % 1018.64 hPa
2024-07-09 12:04:39 23.78 ℃ 100 % 1018.68 hPa
2024-07-09 11:54:39 23.84 ℃ 100 % 1018.78 hPa
2024-07-09 11:44:39 23.85 ℃ 100 % 1018.91 hPa
2024-07-09 11:34:40 23.59 ℃ 100 % 1018.94 hPa
2024-07-09 11:24:40 23.25 ℃ 100 % 1019.01 hPa
2024-07-09 11:14:39 23.16 ℃ 100 % 1019.11 hPa
2024-07-09 11:04:40 22.72 ℃ 100 % 1019.26 hPa
2024-07-09 10:54:40 22.39 ℃ 100 % 1019.32 hPa
2024-07-09 10:44:40 22.1 ℃ 100 % 1019.36 hPa
2024-07-09 10:34:40 21.73 ℃ 100 % 1019.45 hPa
2024-07-09 10:24:40 21.37 ℃ 100 % 1019.51 hPa
2024-07-09 10:14:40 21.31 ℃ 100 % 1019.57 hPa
2024-07-09 10:04:40 20.94 ℃ 100 % 1019.67 hPa
2024-07-09 09:54:40 20.97 ℃ 100 % 1019.76 hPa
2024-07-09 09:44:40 20.89 ℃ 100 % 1019.86 hPa
2024-07-09 09:34:40 20.8 ℃ 100 % 1019.87 hPa
2024-07-09 09:24:40 20.57 ℃ 100 % 1019.85 hPa
2024-07-09 09:14:40 20.49 ℃ 100 % 1019.87 hPa
2024-07-09 09:04:40 20.49 ℃ 100 % 1019.92 hPa
2024-07-09 08:54:40 20.34 ℃ 100 % 1020.01 hPa
2024-07-09 08:44:40 20.75 ℃ 100 % 1020.04 hPa
2024-07-09 08:34:40 20.63 ℃ 100 % 1020.05 hPa
2024-07-09 08:24:40 20.17 ℃ 100 % 1020.05 hPa
2024-07-09 08:14:40 19.89 ℃ 100 % 1020.06 hPa
2024-07-09 08:04:40 19.87 ℃ 100 % 1020.06 hPa
2024-07-09 07:54:40 19.77 ℃ 100 % 1020.07 hPa
2024-07-09 07:44:40 19.43 ℃ 100 % 1020.09 hPa
2024-07-09 07:34:40 19.49 ℃ 100 % 1020.12 hPa
2024-07-09 07:24:40 19.2 ℃ 100 % 1020.18 hPa
2024-07-09 07:14:40 19.23 ℃ 100 % 1020.24 hPa
2024-07-09 07:04:40 19.16 ℃ 100 % 1020.27 hPa
2024-07-09 06:54:40 19.46 ℃ 100 % 1020.29 hPa
2024-07-09 06:44:40 19.37 ℃ 100 % 1020.29 hPa
2024-07-09 06:34:40 18.91 ℃ 100 % 1020.29 hPa
2024-07-09 06:24:40 18.68 ℃ 100 % 1020.3 hPa
2024-07-09 06:14:40 18.69 ℃ 100 % 1020.25 hPa
2024-07-09 06:04:40 18.35 ℃ 100 % 1020.27 hPa
2024-07-09 05:54:40 18.38 ℃ 100 % 1020.31 hPa
2024-07-09 05:44:40 18.4 ℃ 100 % 1020.32 hPa
2024-07-09 05:34:40 18.6 ℃ 100 % 1020.35 hPa
2024-07-09 05:24:40 18.79 ℃ 100 % 1020.36 hPa
2024-07-09 05:14:40 18.79 ℃ 100 % 1020.33 hPa
2024-07-09 05:04:40 18.57 ℃ 100 % 1020.32 hPa
2024-07-09 04:54:40 18.54 ℃ 100 % 1020.32 hPa
2024-07-09 04:44:42 18.72 ℃ 100 % 1020.34 hPa
2024-07-09 04:34:40 18.86 ℃ 100 % 1020.36 hPa
2024-07-09 04:24:40 18.72 ℃ 100 % 1020.37 hPa
2024-07-09 04:14:40 18.47 ℃ 100 % 1020.38 hPa
2024-07-09 00:13:25 21.19 ℃ 100 % 1020.78 hPa
2024-07-09 00:03:25 20.8 ℃ 100 % 1020.75 hPa
2024-07-08 23:53:25 21.22 ℃ 100 % 1020.7 hPa
2024-07-08 23:43:25 21.22 ℃ 100 % 1020.64 hPa
2024-07-08 23:33:25 21.18 ℃ 100 % 1020.57 hPa
2024-07-08 23:23:25 20.83 ℃ 100 % 1020.46 hPa
2024-07-08 23:13:25 21.52 ℃ 100 % 1020.39 hPa
2024-07-08 23:03:25 22.59 ℃ 100 % 1020.27 hPa
2024-07-08 22:53:25 22.26 ℃ 100 % 1020.23 hPa
2024-07-08 22:43:25 22.34 ℃ 100 % 1020.18 hPa
2024-07-08 22:33:25 21.94 ℃ 100 % 1020.14 hPa
2024-07-08 22:23:25 22.85 ℃ 100 % 1020.05 hPa
2024-07-08 22:13:25 23.46 ℃ 100 % 1020.06 hPa
2024-07-08 22:03:26 23.6 ℃ 100 % 1019.99 hPa
2024-07-08 21:53:25 23.18 ℃ 100 % 1019.93 hPa
2024-07-08 21:43:25 22.86 ℃ 100 % 1019.83 hPa
2024-07-08 21:33:25 22.4 ℃ 100 % 1019.69 hPa
2024-07-08 21:23:25 22.2 ℃ 100 % 1019.6 hPa
2024-07-08 21:13:25 22.2 ℃ 100 % 1019.55 hPa
2024-07-08 21:03:25 22.75 ℃ 100 % 1019.48 hPa
2024-07-08 20:53:26 22.65 ℃ 100 % 1019.37 hPa
2024-07-08 20:43:25 22.55 ℃ 100 % 1019.27 hPa
2024-07-08 20:33:25 22.73 ℃ 100 % 1019.23 hPa
2024-07-08 20:23:25 22.64 ℃ 100 % 1019.17 hPa
2024-07-08 20:13:25 23.04 ℃ 100 % 1019.14 hPa
2024-07-08 20:03:25 23.03 ℃ 99.99 % 1019.09 hPa
2024-07-08 19:53:25 23.08 ℃ 99.99 % 1019.01 hPa
2024-07-08 19:43:25 22.99 ℃ 99.97 % 1018.97 hPa
2024-07-08 19:33:25 23.3 ℃ 99.95 % 1018.85 hPa
2024-07-08 19:23:25 23.25 ℃ 99.9 % 1018.76 hPa
2024-07-08 19:13:25 23.17 ℃ 99.8 % 1018.65 hPa
2024-07-08 19:03:25 23.17 ℃ 99.6 % 1018.6 hPa
2024-07-08 18:53:25 23.52 ℃ 99.47 % 1018.56 hPa
2024-07-08 18:43:25 23.72 ℃ 99.94 % 1018.55 hPa
2024-07-08 18:33:25 23.82 ℃ 99.89 % 1018.53 hPa
2024-07-08 18:23:25 23.58 ℃ 99.77 % 1018.52 hPa
2024-07-08 18:13:25 23.8 ℃ 99.55 % 1018.49 hPa
2024-07-08 18:03:25 23.53 ℃ 99.1 % 1018.44 hPa
2024-07-08 17:53:25 23.87 ℃ 98.2 % 1018.39 hPa
2024-07-08 17:43:25 24.18 ℃ 96.4 % 1018.31 hPa
2024-07-08 17:33:25 23.82 ℃ 98.76 % 1018.26 hPa
2024-07-08 17:23:25 24.2 ℃ 97.53 % 1018.17 hPa
2024-07-08 17:13:25 24.51 ℃ 95.81 % 1018.12 hPa
2024-07-08 17:03:25 24.35 ℃ 97.22 % 1018.11 hPa
2024-07-08 16:53:26 24.52 ℃ 95.41 % 1018.06 hPa
2024-07-08 16:43:25 24.52 ℃ 93.53 % 1018.04 hPa
2024-07-08 16:33:26 24.54 ℃ 94.24 % 1018.05 hPa
2024-07-08 16:23:26 24.41 ℃ 94.23 % 1018.07 hPa
2024-07-08 16:13:26 24.86 ℃ 94.93 % 1018.04 hPa
2024-07-08 16:03:26 24.72 ℃ 98.54 % 1018.01 hPa
2024-07-08 15:53:26 24.66 ℃ 97.29 % 1018.01 hPa
2024-07-08 15:43:26 24.24 ℃ 98.23 % 1018.01 hPa
2024-07-08 15:33:26 24.3 ℃ 96.88 % 1017.95 hPa
2024-07-08 12:35:33 24.1 ℃ 100 % 1016.95 hPa
2024-07-08 12:25:33 23.7 ℃ 100 % 1016.93 hPa
2024-07-08 12:15:33 23.31 ℃ 100 % 1016.87 hPa
2024-07-08 12:05:33 22.94 ℃ 100 % 1016.83 hPa
2024-07-08 11:55:33 22.93 ℃ 100 % 1016.74 hPa
2024-07-08 11:45:34 23.1 ℃ 100 % 1016.71 hPa
2024-07-08 11:35:33 23.38 ℃ 100 % 1016.65 hPa
2024-07-08 11:25:33 22.84 ℃ 100 % 1016.66 hPa
2024-07-08 11:15:33 22.65 ℃ 100 % 1016.66 hPa
2024-07-08 11:05:33 22.94 ℃ 100 % 1016.61 hPa
2024-07-08 10:55:33 22.73 ℃ 100 % 1016.55 hPa
2024-07-08 10:45:33 22.99 ℃ 100 % 1016.53 hPa
2024-07-08 10:35:33 22.89 ℃ 100 % 1016.53 hPa
2024-07-08 10:25:33 22.79 ℃ 100 % 1016.52 hPa
2024-07-08 10:15:33 22.93 ℃ 100 % 1016.51 hPa
2024-07-08 10:05:33 22.8 ℃ 100 % 1016.49 hPa
2024-07-08 09:55:33 22.44 ℃ 100 % 1016.46 hPa
2024-07-08 09:45:33 22.04 ℃ 100 % 1016.43 hPa
2024-07-08 09:35:34 21.77 ℃ 100 % 1016.4 hPa
2024-07-08 09:25:33 21.32 ℃ 100 % 1016.37 hPa
2024-07-08 09:15:33 20.37 ℃ 100 % 1016.39 hPa
2024-07-08 09:05:33 19.97 ℃ 100 % 1016.39 hPa
2024-07-08 08:55:34 19.52 ℃ 100 % 1016.41 hPa
2024-07-08 08:45:33 18.78 ℃ 100 % 1016.46 hPa
2024-07-08 08:35:34 17.74 ℃ 100 % 1016.54 hPa
2024-07-08 08:25:33 17.49 ℃ 100 % 1016.64 hPa
2024-07-08 08:15:34 17.15 ℃ 100 % 1016.64 hPa
2024-07-08 08:05:33 17.56 ℃ 100 % 1016.67 hPa
2024-07-08 07:55:34 18.32 ℃ 100 % 1016.26 hPa
2024-07-08 07:45:34 17.94 ℃ 100 % 1016.04 hPa
2024-07-08 07:35:34 17.81 ℃ 100 % 1015.91 hPa
2024-07-08 07:25:34 16.84 ℃ 100 % 1015.83 hPa
2024-07-08 07:15:34 16.91 ℃ 100 % 1015.82 hPa
2024-07-08 07:05:34 17.03 ℃ 100 % 1015.79 hPa
2024-07-08 06:55:34 17.32 ℃ 100 % 1015.88 hPa
2024-07-08 06:45:34 17.41 ℃ 100 % 1015.96 hPa
2024-07-08 06:35:34 17.62 ℃ 100 % 1015.87 hPa
2024-07-08 06:25:34 18.19 ℃ 100 % 1015.71 hPa
2024-07-08 06:15:34 18.67 ℃ 100 % 1015.52 hPa
2024-07-08 06:05:34 18.42 ℃ 100 % 1015.43 hPa
2024-07-08 05:55:34 18.38 ℃ 100 % 1015.32 hPa
2024-07-08 05:45:34 18.4 ℃ 100 % 1015.27 hPa
2024-07-08 05:35:34 18.64 ℃ 100 % 1015.18 hPa
2024-07-08 05:25:34 18.56 ℃ 100 % 1015.1 hPa
2024-07-08 05:15:34 18.66 ℃ 100 % 1015.03 hPa
2024-07-08 05:05:34 18.33 ℃ 100 % 1014.99 hPa
2024-07-08 04:55:34 18.58 ℃ 100 % 1014.88 hPa
2024-07-08 04:45:34 18.64 ℃ 100 % 1014.85 hPa
2024-07-08 04:35:34 18.81 ℃ 100 % 1014.82 hPa
2024-07-08 04:25:34 18.36 ℃ 100 % 1014.79 hPa
2024-07-08 04:15:34 18.24 ℃ 100 % 1014.78 hPa
2024-07-08 04:05:34 18.31 ℃ 100 % 1014.73 hPa
2024-07-08 03:55:34 18.44 ℃ 100 % 1014.72 hPa
2024-07-08 03:45:34 18.62 ℃ 100 % 1014.69 hPa
2024-07-08 03:35:34 18.25 ℃ 100 % 1014.71 hPa
2024-07-08 03:25:34 18.27 ℃ 100 % 1014.8 hPa
2024-07-08 03:15:34 17.89 ℃ 100 % 1014.9 hPa
2024-07-08 03:05:34 17.76 ℃ 100 % 1014.91 hPa
2024-07-08 02:55:34 17.77 ℃ 100 % 1014.94 hPa
2024-07-08 02:45:34 17.95 ℃ 100 % 1014.98 hPa
2024-07-08 02:35:34 18.03 ℃ 100 % 1014.99 hPa
2024-07-08 02:25:34 18.18 ℃ 100 % 1015.04 hPa
2024-07-08 02:15:34 18.45 ℃ 100 % 1015.04 hPa
2024-07-08 02:05:34 18.89 ℃ 100 % 1015.05 hPa
2024-07-08 01:55:34 18.94 ℃ 100 % 1015.02 hPa
2024-07-08 01:45:34 18.77 ℃ 100 % 1014.98 hPa
2024-07-08 01:35:34 18.65 ℃ 100 % 1014.95 hPa
2024-07-08 01:25:34 18.68 ℃ 100 % 1014.98 hPa
2024-07-08 01:15:34 18.55 ℃ 100 % 1015 hPa
2024-07-08 01:05:34 18.45 ℃ 100 % 1015.03 hPa
2024-07-08 00:55:34 18.2 ℃ 100 % 1015.08 hPa
2024-07-08 00:45:34 17.98 ℃ 100 % 1015.08 hPa
2024-07-08 00:35:34 18.64 ℃ 100 % 1015.11 hPa
2024-07-08 00:25:34 18.99 ℃ 100 % 1015.13 hPa
2024-07-08 00:15:34 19.83 ℃ 100 % 1015.02 hPa
2024-07-08 00:05:34 20.36 ℃ 100 % 1014.93 hPa
2024-07-07 23:55:34 20.6 ℃ 100 % 1014.9 hPa
2024-07-07 23:45:34 20.64 ℃ 100 % 1014.88 hPa
2024-07-07 23:35:34 20.6 ℃ 100 % 1014.87 hPa
2024-07-07 23:25:34 20.38 ℃ 100 % 1014.89 hPa
2024-07-07 23:15:34 20.76 ℃ 100 % 1014.91 hPa
2024-07-07 23:05:34 20.7 ℃ 100 % 1014.91 hPa
2024-07-07 22:55:34 20.52 ℃ 100 % 1014.92 hPa
2024-07-07 22:45:34 20.94 ℃ 100 % 1014.86 hPa
2024-07-07 22:35:35 21.37 ℃ 100 % 1014.8 hPa
2024-07-07 22:25:35 21.72 ℃ 100 % 1014.66 hPa
2024-07-07 22:15:34 21.56 ℃ 100 % 1014.56 hPa
2024-07-07 22:05:34 21.56 ℃ 100 % 1014.52 hPa
2024-07-07 21:55:34 22.02 ℃ 100 % 1014.45 hPa
2024-07-07 21:45:37 22.24 ℃ 100 % 1014.37 hPa
2024-07-07 21:35:35 22.38 ℃ 100 % 1014.28 hPa
2024-07-07 21:25:35 21.96 ℃ 100 % 1014.16 hPa
2024-07-07 21:15:35 21.73 ℃ 100 % 1014.05 hPa
2024-07-07 21:05:35 21.4 ℃ 100 % 1014.07 hPa
2024-07-07 20:55:35 20.79 ℃ 100 % 1014.09 hPa
2024-07-07 20:45:35 20.68 ℃ 100 % 1014.02 hPa
2024-07-07 20:35:35 20.8 ℃ 100 % 1013.89 hPa
2024-07-07 20:25:35 21.49 ℃ 100 % 1013.74 hPa
2024-07-07 20:15:35 22.02 ℃ 100 % 1013.54 hPa
2024-07-07 20:05:35 22.31 ℃ 100 % 1013.37 hPa
2024-07-07 19:55:35 22.84 ℃ 100 % 1013.27 hPa
2024-07-07 19:45:35 23.54 ℃ 99.99 % 1013.16 hPa
2024-07-07 19:35:35 23.46 ℃ 99.99 % 1013.09 hPa
2024-07-07 19:25:35 23.17 ℃ 99.98 % 1013.08 hPa
2024-07-07 19:15:35 22.95 ℃ 99.95 % 1013.1 hPa
2024-07-07 19:05:35 23.17 ℃ 99.9 % 1013.09 hPa
2024-07-07 18:55:35 23.75 ℃ 99.8 % 1013.06 hPa
2024-07-07 18:45:35 24.24 ℃ 99.61 % 1013.06 hPa
2024-07-07 18:35:35 24.48 ℃ 99.22 % 1012.99 hPa
2024-07-07 18:25:35 24.34 ℃ 100 % 1012.96 hPa
2024-07-07 16:50:49 22.87 ℃ 87.98 % 1012.66 hPa
2024-07-07 16:40:49 23.09 ℃ 87.2 % 1012.57 hPa
2024-07-07 16:30:49 23.32 ℃ 84.76 % 1012.47 hPa
2024-07-07 16:20:49 23.45 ℃ 84.61 % 1012.42 hPa
2024-07-07 16:10:49 23.56 ℃ 84.69 % 1012.38 hPa
2024-07-07 16:00:49 23.6 ℃ 85.97 % 1012.32 hPa
2024-07-07 15:50:49 23.5 ℃ 86.84 % 1012.34 hPa
2024-07-07 15:40:49 23.47 ℃ 92.67 % 1012.28 hPa
2024-07-07 15:30:49 23.26 ℃ 93.23 % 1012.24 hPa
2024-07-07 15:20:49 22.66 ℃ 95.69 % 1012.2 hPa
2024-07-07 15:10:49 22.87 ℃ 97.83 % 1012.16 hPa
2024-07-07 15:00:49 22.89 ℃ 95.66 % 1012.17 hPa
2024-07-07 14:50:49 22.78 ℃ 96.38 % 1012.19 hPa
2024-07-07 14:40:50 22.3 ℃ 100 % 1012.26 hPa
2024-07-07 14:30:49 22.62 ℃ 100 % 1012.23 hPa
2024-07-07 14:20:49 22.29 ℃ 100 % 1012.16 hPa
2024-07-07 14:10:50 22.1 ℃ 100 % 1012.06 hPa
2024-07-07 14:00:50 22.19 ℃ 100 % 1011.87 hPa
2024-07-07 13:50:49 22.13 ℃ 100 % 1011.8 hPa
2024-07-07 13:40:50 21.89 ℃ 100 % 1011.75 hPa
2024-07-07 13:30:50 21.69 ℃ 100 % 1011.69 hPa
2024-07-07 13:20:50 21.48 ℃ 100 % 1011.64 hPa
2024-07-07 13:10:50 21.82 ℃ 100 % 1011.51 hPa
2024-07-07 13:00:50 22.29 ℃ 100 % 1011.4 hPa
2024-07-07 12:50:50 22.01 ℃ 100 % 1011.3 hPa
2024-07-07 12:40:50 22.21 ℃ 100 % 1011.14 hPa
2024-07-07 12:30:50 21.99 ℃ 100 % 1011.05 hPa
2024-07-07 12:20:50 22.12 ℃ 100 % 1010.87 hPa
2024-07-07 12:10:50 22.56 ℃ 100 % 1010.68 hPa
2024-07-07 12:00:50 22.48 ℃ 100 % 1010.49 hPa
2024-07-07 11:50:50 22.4 ℃ 100 % 1010.35 hPa
2024-07-07 11:40:50 22.79 ℃ 100 % 1010.21 hPa
2024-07-07 11:30:50 22.51 ℃ 100 % 1010.06 hPa
2024-07-07 11:20:50 21.63 ℃ 100 % 1009.96 hPa
2024-07-07 11:10:50 21.34 ℃ 100 % 1009.86 hPa
2024-07-07 11:00:50 21.31 ℃ 100 % 1009.7 hPa
2024-07-07 10:50:50 20.9 ℃ 100 % 1009.63 hPa
2024-07-07 10:40:50 20.61 ℃ 100 % 1009.5 hPa
2024-07-07 10:30:50 20.71 ℃ 100 % 1009.44 hPa
2024-07-07 10:20:50 20.77 ℃ 100 % 1009.38 hPa
2024-07-07 10:10:50 20.84 ℃ 100 % 1009.3 hPa
2024-07-07 10:00:50 20.89 ℃ 100 % 1009.22 hPa
2024-07-07 09:50:50 20.64 ℃ 100 % 1009.15 hPa
2024-07-07 09:40:50 20.65 ℃ 100 % 1009.07 hPa
2024-07-07 09:30:50 20.67 ℃ 100 % 1008.99 hPa
2024-07-07 09:20:50 21.01 ℃ 100 % 1008.81 hPa
2024-07-06 22:57:06 17.87 ℃ 100 % 1001.75 hPa
2024-07-06 22:47:06 18.16 ℃ 100 % 1001.57 hPa
2024-07-06 22:37:06 18.12 ℃ 100 % 1001.43 hPa
2024-07-06 22:27:06 18.37 ℃ 100 % 1001.36 hPa
2024-07-06 22:17:07 18.57 ℃ 100 % 1001.15 hPa
2024-07-06 22:07:06 18.85 ℃ 100 % 1000.93 hPa
2024-07-06 21:57:06 18.82 ℃ 100 % 1000.8 hPa
2024-07-06 21:47:06 19.09 ℃ 100 % 1000.68 hPa
2024-07-06 21:37:06 19.31 ℃ 100 % 1000.6 hPa
2024-07-06 21:27:06 19.64 ℃ 100 % 1000.47 hPa
2024-07-06 21:17:06 20.13 ℃ 100 % 1000.22 hPa
2024-07-06 21:07:06 20.33 ℃ 100 % 1000.04 hPa
2024-07-06 20:57:06 20.55 ℃ 100 % 999.87 hPa
2024-07-06 20:47:06 20.88 ℃ 100 % 999.78 hPa
2024-07-06 20:37:06 20.74 ℃ 100 % 999.6 hPa
2024-07-06 20:27:06 20.7 ℃ 100 % 999.39 hPa
2024-07-06 20:17:06 21.05 ℃ 100 % 999.17 hPa
2024-07-06 20:07:06 21.35 ℃ 100 % 999 hPa
2024-07-06 19:57:06 21.57 ℃ 100 % 998.83 hPa
2024-07-06 19:47:06 21.82 ℃ 100 % 998.64 hPa
2024-07-06 19:37:06 22.14 ℃ 100 % 998.47 hPa
2024-07-06 19:27:07 22.57 ℃ 100 % 998.44 hPa
2024-07-06 19:17:07 22.58 ℃ 100 % 998.31 hPa
2024-07-06 19:07:07 22.87 ℃ 100 % 998.28 hPa
2024-07-06 18:57:07 23.16 ℃ 100 % 998.13 hPa
2024-07-06 18:47:07 22.93 ℃ 100 % 998.05 hPa
2024-07-06 18:37:06 22.71 ℃ 100 % 997.99 hPa
2024-07-06 18:27:07 22.19 ℃ 100 % 997.88 hPa
2024-07-06 18:17:06 22.07 ℃ 100 % 997.78 hPa
2024-07-06 18:07:07 21.94 ℃ 100 % 997.72 hPa
2024-07-06 17:57:07 22.09 ℃ 100 % 997.57 hPa
2024-07-06 17:47:07 23.28 ℃ 100 % 997.32 hPa
2024-07-06 17:37:07 25.27 ℃ 100 % 997.14 hPa
2024-07-06 17:27:07 27.27 ℃ 100 % 995.9 hPa
2024-07-06 17:17:07 27.25 ℃ 100 % 995.86 hPa
2024-07-06 17:07:07 27.58 ℃ 100 % 995.87 hPa
2024-07-06 16:57:07 27.84 ℃ 100 % 995.93 hPa
2024-07-06 16:47:07 28.13 ℃ 100 % 996.1 hPa
2024-07-06 16:37:07 28.23 ℃ 100 % 996.29 hPa
2024-07-06 16:27:07 28.21 ℃ 100 % 996.4 hPa
2024-07-06 16:17:07 28.2 ℃ 100 % 996.51 hPa
2024-07-06 16:07:07 27.92 ℃ 100 % 996.6 hPa
2024-07-06 15:57:07 27.89 ℃ 100 % 996.79 hPa
2024-07-06 15:47:07 28.01 ℃ 100 % 996.9 hPa
2024-07-06 15:37:07 27.98 ℃ 100 % 997.03 hPa
2024-07-06 15:27:07 28.08 ℃ 100 % 997.11 hPa
2024-07-06 15:17:07 28.23 ℃ 100 % 997.22 hPa
2024-07-06 15:07:07 28.43 ℃ 100 % 997.24 hPa
2024-07-06 14:57:07 28.65 ℃ 100 % 997.31 hPa
2024-07-04 22:22:36 16.1 ℃ 100 % 1006.72 hPa
2024-07-04 22:12:36 16.31 ℃ 100 % 1006.69 hPa
2024-07-04 22:02:36 16.72 ℃ 100 % 1006.52 hPa
2024-07-04 21:52:36 16.78 ℃ 100 % 1006.37 hPa
2024-07-04 21:42:36 16.88 ℃ 100 % 1006.29 hPa
2024-07-04 21:32:36 17.22 ℃ 100 % 1006.15 hPa
2024-07-04 21:22:36 17.52 ℃ 100 % 1006.09 hPa
2024-07-04 21:12:36 17.42 ℃ 100 % 1006.09 hPa
2024-07-04 21:02:36 17.4 ℃ 100 % 1006.06 hPa
2024-07-04 20:52:36 17.42 ℃ 100 % 1005.98 hPa
2024-07-04 20:42:37 16.78 ℃ 100 % 1005.93 hPa
2024-07-04 20:32:36 16.67 ℃ 100 % 1005.89 hPa
2024-07-04 20:22:36 16.64 ℃ 100 % 1005.89 hPa
2024-07-04 20:12:36 16.67 ℃ 100 % 1005.85 hPa
2024-07-04 20:02:36 16.79 ℃ 100 % 1005.82 hPa
2024-07-04 19:52:37 17 ℃ 100 % 1005.81 hPa
2024-07-04 19:42:36 17.56 ℃ 100 % 1005.71 hPa
2024-07-04 19:32:37 18.2 ℃ 100 % 1005.38 hPa
2024-07-04 19:22:37 18.29 ℃ 100 % 1005.3 hPa
2024-07-04 19:12:37 18.56 ℃ 100 % 1005.3 hPa
2024-07-04 19:02:36 17.91 ℃ 100 % 1005.29 hPa
2024-07-04 18:52:37 17.57 ℃ 100 % 1005.32 hPa
2024-07-04 18:42:37 17.31 ℃ 100 % 1005.29 hPa
2024-07-04 18:32:37 17.35 ℃ 100 % 1005.28 hPa
2024-07-04 18:22:37 17.83 ℃ 100 % 1005.27 hPa
2024-07-04 18:12:37 18.43 ℃ 100 % 1004.92 hPa
2024-07-04 18:02:37 19.39 ℃ 100 % 1004.6 hPa
2024-07-04 17:52:37 19.54 ℃ 100 % 1004.33 hPa
2024-07-04 17:42:37 19.59 ℃ 100 % 1004.28 hPa
2024-07-04 17:32:37 19.52 ℃ 100 % 1004.24 hPa
2024-07-04 17:22:37 19.62 ℃ 100 % 1004.24 hPa
2024-07-04 17:12:37 19.74 ℃ 100 % 1004.24 hPa
2024-07-04 17:02:37 19.79 ℃ 100 % 1004.18 hPa
2024-07-04 16:52:37 20.02 ℃ 100 % 1004.04 hPa
2024-07-04 16:42:37 19.97 ℃ 100 % 1003.91 hPa
2024-07-04 16:32:37 19.9 ℃ 100 % 1003.89 hPa
2024-07-04 16:22:37 19.48 ℃ 100 % 1003.83 hPa
2024-07-04 16:12:37 19.32 ℃ 100 % 1003.78 hPa
2024-07-04 16:02:37 19.42 ℃ 100 % 1003.66 hPa
2024-07-04 15:52:37 19.38 ℃ 100 % 1003.56 hPa
2024-07-04 15:42:37 19.36 ℃ 100 % 1003.48 hPa
2024-07-04 15:32:37 19.94 ℃ 100 % 1003.28 hPa
2024-07-04 15:22:37 20.66 ℃ 100 % 1003.1 hPa
2024-07-04 15:12:37 20.12 ℃ 100 % 1003 hPa
2024-07-04 15:02:37 20.07 ℃ 100 % 1002.89 hPa
2024-07-04 14:52:37 20.32 ℃ 100 % 1002.73 hPa
2024-07-04 14:42:37 20.42 ℃ 100 % 1002.69 hPa
2024-07-04 14:32:37 20.73 ℃ 100 % 1002.63 hPa
2024-07-04 14:22:37 20.77 ℃ 100 % 1002.48 hPa
2024-07-04 14:12:37 20.63 ℃ 100 % 1002.37 hPa
2024-07-04 14:02:37 20.07 ℃ 100 % 1002.27 hPa
2024-07-04 13:52:37 19.78 ℃ 100 % 1002.13 hPa
2024-07-04 13:42:37 19.62 ℃ 100 % 1001.95 hPa
2024-07-04 13:32:37 19.29 ℃ 100 % 1001.83 hPa
2024-07-04 13:22:37 19.18 ℃ 100 % 1001.76 hPa
2024-07-04 13:12:37 19.48 ℃ 100 % 1001.66 hPa
2024-07-04 13:02:37 19.32 ℃ 100 % 1001.5 hPa
2024-07-04 12:52:37 19.3 ℃ 100 % 1001.39 hPa
2024-07-04 12:42:37 18.83 ℃ 100 % 1001.28 hPa
2024-07-04 12:32:37 18.57 ℃ 100 % 1001.11 hPa
2024-07-04 12:22:37 18.44 ℃ 100 % 1000.93 hPa
2024-07-04 12:12:37 18.56 ℃ 100 % 1000.82 hPa
2024-07-04 12:02:37 18.52 ℃ 100 % 1000.71 hPa
2024-07-04 11:52:37 18.59 ℃ 100 % 1000.56 hPa
2024-07-04 11:42:37 18.66 ℃ 100 % 1000.44 hPa
2024-07-04 11:32:37 19.3 ℃ 100 % 1000.23 hPa
2024-07-04 11:22:37 19.13 ℃ 100 % 1000.2 hPa
2024-07-04 11:12:37 18.5 ℃ 100 % 1000.16 hPa
2024-07-04 11:02:37 17.65 ℃ 100 % 1000.08 hPa
2024-07-04 10:52:37 17.51 ℃ 100 % 999.96 hPa
2024-07-04 10:42:37 17.21 ℃ 100 % 999.85 hPa
2024-07-04 10:32:37 16.81 ℃ 100 % 999.74 hPa
2024-07-04 10:22:37 16.72 ℃ 100 % 999.62 hPa
2024-07-04 10:12:37 16.48 ℃ 100 % 999.54 hPa
2024-07-04 10:02:37 16.51 ℃ 100 % 999.48 hPa
2024-07-04 09:52:37 16.44 ℃ 100 % 999.45 hPa
2024-07-04 09:42:37 16.39 ℃ 100 % 999.43 hPa
2024-07-04 09:32:37 16.31 ℃ 100 % 999.44 hPa
2024-07-04 09:22:37 16.27 ℃ 100 % 999.46 hPa
2024-07-04 09:12:37 16.36 ℃ 100 % 999.48 hPa
2024-07-04 09:02:37 16.16 ℃ 100 % 999.56 hPa
2024-07-04 08:52:37 15.98 ℃ 100 % 999.7 hPa
2024-07-04 08:42:37 15.79 ℃ 100 % 999.84 hPa
2024-07-04 08:32:37 15.62 ℃ 100 % 999.97 hPa
2024-07-04 08:22:37 15.59 ℃ 100 % 1000.03 hPa
2024-07-04 08:12:37 15.39 ℃ 100 % 1000.13 hPa
2024-07-04 08:02:38 15.4 ℃ 100 % 1000.21 hPa
2024-07-04 07:52:37 15.36 ℃ 100 % 1000.29 hPa
2024-07-04 07:42:38 15.27 ℃ 100 % 1000.37 hPa
2024-07-04 07:32:38 15.15 ℃ 100 % 1000.53 hPa
2024-07-04 07:22:37 15.15 ℃ 100 % 1000.65 hPa
2024-07-04 07:12:38 15.22 ℃ 100 % 1000.79 hPa
2024-07-04 07:02:38 15.13 ℃ 100 % 1000.91 hPa
2024-07-04 06:52:38 15.19 ℃ 100 % 1001.05 hPa
2024-07-04 06:42:38 15.12 ℃ 100 % 1001.2 hPa
2024-07-04 06:32:38 14.98 ℃ 100 % 1001.38 hPa
2024-07-04 06:22:38 14.72 ℃ 100 % 1001.56 hPa
2024-07-04 06:12:38 14.52 ℃ 100 % 1001.75 hPa
2024-07-04 06:02:38 14.61 ℃ 100 % 1001.89 hPa
2024-07-04 05:52:38 14.72 ℃ 100 % 1002.03 hPa
2024-07-04 05:42:38 14.95 ℃ 100 % 1002.18 hPa
2024-07-04 05:32:38 15 ℃ 100 % 1002.31 hPa
2024-07-04 05:22:38 14.92 ℃ 100 % 1002.43 hPa
2024-07-04 05:12:38 14.98 ℃ 100 % 1002.5 hPa
2024-07-04 05:02:38 15.04 ℃ 100 % 1002.64 hPa
2024-07-04 04:52:38 15 ℃ 100 % 1002.82 hPa
2024-07-04 04:42:38 15.13 ℃ 100 % 1003.02 hPa
2024-07-04 04:32:38 15.56 ℃ 100 % 1003.16 hPa
2024-07-04 04:22:38 15.22 ℃ 100 % 1003.32 hPa
2024-07-04 04:12:38 14.89 ℃ 100 % 1003.48 hPa
2024-07-04 04:02:38 15.08 ℃ 100 % 1003.63 hPa
2024-07-04 03:52:38 15.1 ℃ 100 % 1003.74 hPa
2024-07-04 03:42:38 15.11 ℃ 100 % 1003.88 hPa
2024-07-04 03:32:38 15.09 ℃ 100 % 1003.96 hPa
2024-07-04 03:22:38 14.95 ℃ 100 % 1004.05 hPa
2024-07-04 03:12:38 15.05 ℃ 100 % 1004.1 hPa
2024-07-04 03:02:38 15.13 ℃ 100 % 1004.22 hPa
2024-07-04 02:52:38 15.08 ℃ 100 % 1004.34 hPa
2024-07-04 02:42:38 15.2 ℃ 100 % 1004.47 hPa
2024-07-04 02:32:38 15.43 ℃ 100 % 1004.64 hPa
2024-07-04 02:22:38 15.41 ℃ 100 % 1004.71 hPa
2024-07-04 02:12:38 15.3 ℃ 100 % 1004.83 hPa
2024-07-04 02:02:38 15.23 ℃ 100 % 1004.91 hPa
2024-07-04 01:52:38 15.33 ℃ 100 % 1004.99 hPa
2024-07-04 01:32:38 15.75 ℃ 100 % 1005.21 hPa
2024-07-04 01:22:38 15.73 ℃ 100 % 1005.33 hPa
2024-07-04 01:12:38 15.86 ℃ 100 % 1005.44 hPa
2024-07-04 01:02:38 15.78 ℃ 100 % 1005.53 hPa
2024-07-04 00:52:38 15.9 ℃ 100 % 1005.64 hPa
2024-07-04 00:42:38 16.04 ℃ 100 % 1005.78 hPa
2024-07-04 00:32:38 16.1 ℃ 100 % 1005.83 hPa
2024-07-04 00:22:38 16.19 ℃ 100 % 1005.9 hPa
2024-07-04 00:12:38 16.33 ℃ 100 % 1005.94 hPa
2024-07-04 00:02:38 16.41 ℃ 100 % 1005.97 hPa
2024-07-03 23:52:38 16.12 ℃ 100 % 1006.02 hPa
2024-07-03 23:42:39 16.07 ℃ 100 % 1006.08 hPa
2024-07-03 23:32:38 15.97 ℃ 100 % 1006.08 hPa
2024-07-03 23:22:38 16.04 ℃ 100 % 1006.1 hPa
2024-07-03 23:12:38 16.15 ℃ 100 % 1006.13 hPa
2024-07-03 23:02:39 16.34 ℃ 100 % 1006.09 hPa
2024-07-03 22:52:38 16.35 ℃ 100 % 1006.08 hPa
2024-07-03 22:42:38 16.42 ℃ 100 % 1006.07 hPa
2024-07-03 22:32:38 16.72 ℃ 100 % 1006.05 hPa
2024-07-03 22:22:38 16.68 ℃ 100 % 1006.02 hPa
2024-07-03 22:12:38 16.75 ℃ 100 % 1006.02 hPa
2024-07-03 22:02:38 16.82 ℃ 100 % 1005.98 hPa
2024-07-03 21:52:38 16.95 ℃ 100 % 1005.93 hPa
2024-07-03 21:42:38 16.93 ℃ 100 % 1005.92 hPa
2024-07-03 21:32:39 17.11 ℃ 100 % 1005.89 hPa
2024-07-03 21:22:38 17.33 ℃ 100 % 1005.81 hPa
2024-07-03 21:12:38 17.51 ℃ 100 % 1005.72 hPa
2024-07-03 21:02:38 17.62 ℃ 100 % 1005.68 hPa
2024-07-03 20:52:39 17.58 ℃ 100 % 1005.69 hPa
2024-07-03 20:42:39 17.62 ℃ 100 % 1005.63 hPa
2024-07-03 19:49:03 18.08 ℃ 100 % 1005.82 hPa
2024-07-03 19:39:02 17.98 ℃ 100 % 1005.87 hPa
2024-07-03 19:29:02 18.13 ℃ 100 % 1005.86 hPa
2024-07-03 19:19:03 18.38 ℃ 100 % 1005.79 hPa
2024-07-03 19:09:02 18.59 ℃ 100 % 1005.78 hPa
2024-07-03 18:59:03 18.9 ℃ 100 % 1005.76 hPa
2024-07-03 18:49:03 19.06 ℃ 100 % 1005.72 hPa
2024-07-03 18:39:03 19.3 ℃ 100 % 1005.77 hPa
2024-07-03 18:29:03 19.26 ℃ 100 % 1005.83 hPa
2024-07-03 18:19:03 19.62 ℃ 100 % 1005.85 hPa
2024-07-03 18:09:03 19.9 ℃ 100 % 1005.87 hPa
2024-07-03 17:59:03 20.08 ℃ 100 % 1005.93 hPa
2024-07-03 17:49:03 20.16 ℃ 100 % 1006 hPa
2024-07-03 17:39:03 20.22 ℃ 100 % 1006.07 hPa
2024-07-03 17:29:03 19.67 ℃ 100 % 1006.14 hPa
2024-07-03 17:19:03 19.66 ℃ 100 % 1006.24 hPa
2024-07-03 17:09:03 19.92 ℃ 100 % 1006.31 hPa
2024-07-03 16:59:03 20.22 ℃ 100 % 1006.33 hPa
2024-07-03 16:49:03 19.35 ℃ 100 % 1006.42 hPa
2024-07-03 16:39:04 19.29 ℃ 100 % 1006.48 hPa
2024-07-03 16:29:03 19.49 ℃ 100 % 1006.48 hPa
2024-07-03 16:19:03 19.53 ℃ 100 % 1006.49 hPa
2024-07-03 16:09:03 19.76 ℃ 100 % 1006.45 hPa
2024-07-03 15:59:03 20.01 ℃ 100 % 1006.44 hPa
2024-07-03 15:49:03 19.98 ℃ 100 % 1006.49 hPa
2024-07-03 15:39:03 19.6 ℃ 100 % 1006.53 hPa
2024-07-03 15:29:03 19.66 ℃ 100 % 1006.54 hPa
2024-07-03 15:19:03 19.66 ℃ 100 % 1006.59 hPa
2024-07-03 15:09:03 19.5 ℃ 100 % 1006.67 hPa
2024-07-03 14:59:03 19.22 ℃ 100 % 1006.7 hPa
2024-07-03 14:49:03 19.25 ℃ 100 % 1006.74 hPa
2024-07-03 14:39:03 18.96 ℃ 100 % 1006.8 hPa
2024-07-03 14:29:03 18.99 ℃ 100 % 1006.81 hPa
2024-07-03 14:19:03 18.89 ℃ 100 % 1006.76 hPa
2024-07-03 14:09:03 19.25 ℃ 100 % 1006.67 hPa
2024-07-03 13:59:03 19.36 ℃ 100 % 1006.57 hPa
2024-07-03 13:49:03 19.98 ℃ 100 % 1006.52 hPa
2024-07-03 13:39:03 20.24 ℃ 100 % 1006.43 hPa
2024-07-03 13:29:03 20.01 ℃ 100 % 1006.44 hPa
2024-07-03 13:19:03 20.48 ℃ 100 % 1006.37 hPa
2024-07-03 13:09:03 21.08 ℃ 100 % 1006.33 hPa
2024-07-03 12:59:03 22.35 ℃ 100 % 1006.32 hPa
2024-07-03 12:49:03 22.33 ℃ 100 % 1006.38 hPa
2024-07-03 12:39:03 21.63 ℃ 100 % 1006.48 hPa
2024-07-03 12:29:03 20.95 ℃ 100 % 1006.54 hPa
2024-07-03 12:19:03 20.98 ℃ 100 % 1006.61 hPa
2024-07-03 12:09:03 20.76 ℃ 100 % 1006.68 hPa
2024-07-03 11:59:03 20.13 ℃ 100 % 1006.76 hPa
2024-07-03 11:49:03 20.01 ℃ 100 % 1006.81 hPa
2024-07-03 11:39:03 19.69 ℃ 100 % 1006.78 hPa
2024-07-03 11:29:03 19.69 ℃ 100 % 1006.8 hPa
2024-07-03 11:19:03 19.4 ℃ 100 % 1006.91 hPa
2024-07-03 11:09:03 18.56 ℃ 100 % 1007.09 hPa
2024-07-03 10:59:03 18.14 ℃ 100 % 1007.24 hPa
2024-07-03 10:49:03 18 ℃ 100 % 1007.34 hPa
2024-07-03 10:39:03 18.53 ℃ 100 % 1007.37 hPa
2024-07-03 10:29:03 19.41 ℃ 100 % 1007.26 hPa
2024-07-03 10:19:03 18.58 ℃ 100 % 1007.35 hPa
2024-07-03 10:09:03 18.29 ℃ 100 % 1007.34 hPa
2024-07-03 09:59:03 19.08 ℃ 100 % 1007.22 hPa
2024-07-03 09:49:03 19.6 ℃ 100 % 1007.19 hPa
2024-07-03 09:39:03 19.99 ℃ 100 % 1007.26 hPa
2024-07-03 09:29:03 20.15 ℃ 100 % 1007.33 hPa
2024-07-03 09:19:03 20.15 ℃ 100 % 1007.38 hPa
2024-07-03 09:09:03 20.2 ℃ 100 % 1007.39 hPa
2024-07-03 08:59:03 20.92 ℃ 100 % 1007.39 hPa
2024-07-03 08:49:03 19.85 ℃ 100 % 1007.44 hPa
2024-07-03 08:39:03 19.66 ℃ 100 % 1007.45 hPa
2024-07-03 08:29:03 19.52 ℃ 100 % 1007.42 hPa
2024-07-03 08:19:03 19.08 ℃ 100 % 1007.39 hPa
2024-07-03 08:09:03 18.99 ℃ 100 % 1007.4 hPa
2024-07-03 07:59:04 18.4 ℃ 100 % 1007.44 hPa
2024-07-03 07:49:04 17.77 ℃ 100 % 1007.54 hPa
2024-07-03 07:39:04 17.44 ℃ 100 % 1007.61 hPa
2024-07-03 06:12:59 18.76 ℃ 100 % 1007.58 hPa
2024-07-03 06:02:59 18.19 ℃ 100 % 1007.63 hPa
2024-07-03 05:52:59 17.8 ℃ 100 % 1007.68 hPa
2024-07-03 05:42:59 17.51 ℃ 100 % 1007.66 hPa
2024-07-03 05:32:59 17.16 ℃ 100 % 1007.63 hPa
2024-07-03 05:22:59 16.89 ℃ 100 % 1007.57 hPa
2024-07-03 05:12:59 16.75 ℃ 100 % 1007.62 hPa
2024-07-03 05:02:59 16.43 ℃ 100 % 1007.72 hPa
2024-07-03 04:52:59 16.5 ℃ 100 % 1007.76 hPa
2024-07-03 04:42:59 16.14 ℃ 100 % 1007.8 hPa
2024-07-03 04:32:59 16.01 ℃ 100 % 1007.83 hPa
2024-07-03 04:22:59 15.99 ℃ 100 % 1007.92 hPa
2024-07-03 04:12:59 15.98 ℃ 100 % 1008.02 hPa
2024-07-03 04:02:59 16.43 ℃ 100 % 1008.04 hPa
2024-07-03 03:52:59 16.94 ℃ 100 % 1007.93 hPa
2024-07-03 03:42:59 16.49 ℃ 100 % 1007.9 hPa
2024-07-03 03:32:59 16.71 ℃ 100 % 1007.9 hPa
2024-07-03 03:22:59 16.5 ℃ 100 % 1007.94 hPa
2024-07-03 03:12:59 16.48 ℃ 100 % 1008.01 hPa
2024-07-03 03:02:59 16.43 ℃ 100 % 1008.11 hPa
2024-07-03 02:52:59 16.29 ℃ 100 % 1008.17 hPa
2024-07-03 02:42:59 16.09 ℃ 100 % 1008.21 hPa
2024-07-03 02:32:59 15.79 ℃ 100 % 1008.24 hPa
2024-07-03 02:22:59 15.82 ℃ 100 % 1008.29 hPa
2024-07-03 02:12:59 15.83 ℃ 100 % 1008.32 hPa
2024-07-03 02:02:59 15.67 ℃ 100 % 1008.35 hPa
2024-07-03 01:52:59 15.87 ℃ 100 % 1008.33 hPa
2024-07-03 01:42:59 15.95 ℃ 100 % 1008.35 hPa
2024-07-03 01:33:00 16.3 ℃ 100 % 1008.36 hPa
2024-07-03 01:23:00 16.6 ℃ 100 % 1008.36 hPa
2024-07-03 01:13:00 16.91 ℃ 100 % 1008.39 hPa
2024-07-03 01:03:00 16.8 ℃ 100 % 1008.44 hPa
2024-07-03 00:53:00 16.84 ℃ 100 % 1008.58 hPa
2024-07-03 00:43:00 16.55 ℃ 100 % 1008.66 hPa
2024-07-03 00:33:00 16.83 ℃ 100 % 1008.67 hPa
2024-07-03 00:23:00 17.04 ℃ 100 % 1008.75 hPa
2024-07-03 00:13:00 17.18 ℃ 100 % 1008.84 hPa
2024-07-03 00:03:00 17.16 ℃ 100 % 1008.94 hPa
2024-07-02 23:53:00 17.12 ℃ 100 % 1008.95 hPa
2024-07-02 23:43:00 17.13 ℃ 100 % 1008.99 hPa
2024-07-02 23:33:00 17.17 ℃ 100 % 1009.03 hPa
2024-07-02 23:23:00 17.13 ℃ 100 % 1009.06 hPa
2024-07-02 23:13:00 17.1 ℃ 100 % 1009.13 hPa
2024-07-02 23:03:00 17.32 ℃ 100 % 1009.19 hPa
2024-07-02 22:53:00 17.05 ℃ 100 % 1009.23 hPa
2024-07-02 22:43:00 16.84 ℃ 100 % 1009.21 hPa
2024-07-02 22:33:00 16.56 ℃ 100 % 1009.21 hPa
2024-07-02 22:23:00 16.56 ℃ 100 % 1009.19 hPa
2024-07-02 22:13:00 16.54 ℃ 100 % 1009.14 hPa
2024-07-02 22:03:00 16.78 ℃ 100 % 1009.06 hPa
2024-07-02 21:53:00 17.01 ℃ 100 % 1008.98 hPa
2024-07-02 21:43:00 17.14 ℃ 100 % 1008.94 hPa
2024-07-02 21:33:00 17.3 ℃ 100 % 1008.87 hPa
2024-07-02 21:23:00 17.34 ℃ 100 % 1008.82 hPa
2024-07-02 21:13:00 17.5 ℃ 100 % 1008.83 hPa
2024-07-02 21:03:00 17.8 ℃ 100 % 1008.81 hPa
2024-07-02 20:53:00 17.69 ℃ 100 % 1008.73 hPa
2024-07-02 20:43:00 17.61 ℃ 100 % 1008.77 hPa
2024-07-02 20:33:00 17.71 ℃ 100 % 1008.75 hPa
2024-07-02 20:23:00 17.31 ℃ 100 % 1008.76 hPa
2024-07-02 20:13:00 17.46 ℃ 100 % 1008.76 hPa
2024-07-02 20:03:00 17.44 ℃ 100 % 1008.76 hPa
2024-07-02 19:53:00 17.77 ℃ 100 % 1008.66 hPa
2024-07-02 19:43:00 18.11 ℃ 100 % 1008.66 hPa
2024-07-02 19:33:00 18.32 ℃ 100 % 1008.66 hPa
2024-07-02 19:23:00 18.34 ℃ 100 % 1008.61 hPa
2024-07-02 19:13:00 18.38 ℃ 100 % 1008.55 hPa
2024-07-02 19:03:00 18.38 ℃ 100 % 1008.49 hPa
2024-07-02 18:53:00 18.84 ℃ 100 % 1008.52 hPa
2024-07-02 18:43:00 18.74 ℃ 100 % 1008.57 hPa
2024-07-02 18:33:00 18.8 ℃ 100 % 1008.56 hPa
2024-07-02 18:23:00 19.08 ℃ 100 % 1008.54 hPa
2024-07-02 18:13:00 19.37 ℃ 100 % 1008.53 hPa
2024-07-02 18:03:00 19.25 ℃ 100 % 1008.51 hPa
2024-07-02 17:53:00 19.6 ℃ 100 % 1008.48 hPa
2024-07-02 17:43:00 19.62 ℃ 100 % 1008.49 hPa
2024-07-02 17:33:00 20.05 ℃ 100 % 1008.48 hPa
2024-07-02 17:23:00 20.41 ℃ 100 % 1008.52 hPa
2024-07-02 17:13:00 19.84 ℃ 100 % 1008.61 hPa
2024-07-02 17:03:00 19.39 ℃ 100 % 1008.71 hPa
2024-07-02 16:53:00 18.68 ℃ 100 % 1008.8 hPa
2024-07-02 16:43:00 18.46 ℃ 100 % 1008.86 hPa
2024-07-02 16:33:00 17.94 ℃ 100 % 1008.9 hPa
2024-07-02 16:23:00 18.76 ℃ 100 % 1008.81 hPa
2024-07-02 16:13:00 19.38 ℃ 100 % 1008.63 hPa
2024-07-02 16:03:00 19.25 ℃ 100 % 1008.69 hPa
2024-07-02 15:53:00 18.81 ℃ 100 % 1008.67 hPa
2024-07-02 15:43:00 18.67 ℃ 100 % 1008.62 hPa
2024-07-02 15:33:00 19.47 ℃ 100 % 1008.5 hPa
2024-07-02 15:23:00 20.18 ℃ 100 % 1008.41 hPa
2024-07-02 15:13:00 20.47 ℃ 100 % 1008.39 hPa
2024-07-02 15:03:00 20.92 ℃ 100 % 1008.35 hPa
2024-07-02 14:53:00 21.22 ℃ 100 % 1008.38 hPa
2024-07-02 14:43:01 21.14 ℃ 100 % 1008.39 hPa
2024-07-02 14:33:00 20.65 ℃ 100 % 1008.49 hPa
2024-07-02 14:23:00 21.06 ℃ 100 % 1008.53 hPa
2024-07-02 14:13:00 20.54 ℃ 100 % 1008.59 hPa
2024-07-02 14:03:01 20.62 ℃ 100 % 1008.61 hPa
2024-07-02 13:53:01 20.46 ℃ 100 % 1008.66 hPa
2024-07-02 13:43:01 20.29 ℃ 100 % 1008.72 hPa
2024-07-02 13:33:01 20.28 ℃ 100 % 1008.74 hPa
2024-07-02 13:23:01 20.44 ℃ 100 % 1008.75 hPa
2024-07-02 13:13:01 21.08 ℃ 100 % 1008.69 hPa
2024-07-02 13:03:01 21.12 ℃ 100 % 1008.63 hPa
2024-07-02 12:53:01 21.75 ℃ 100 % 1008.63 hPa
2024-07-02 12:43:01 21.43 ℃ 100 % 1008.71 hPa
2024-07-02 12:33:01 21.53 ℃ 100 % 1008.77 hPa
2024-07-02 12:23:01 21.67 ℃ 100 % 1008.83 hPa
2024-07-02 12:13:01 21.28 ℃ 100 % 1008.92 hPa
2024-07-02 12:03:01 21.82 ℃ 100 % 1008.92 hPa
2024-07-02 11:53:01 21.74 ℃ 100 % 1008.96 hPa
2024-07-02 11:43:01 21.56 ℃ 100 % 1008.98 hPa
2024-07-02 11:33:01 21.37 ℃ 100 % 1009.03 hPa
2024-07-02 11:23:01 21.54 ℃ 100 % 1009.06 hPa
2024-07-02 11:13:01 21.53 ℃ 100 % 1009.14 hPa
2024-07-02 11:03:01 20.91 ℃ 100 % 1009.3 hPa
2024-07-02 10:53:01 20.57 ℃ 100 % 1009.43 hPa
2024-07-02 10:43:01 20.32 ℃ 100 % 1009.48 hPa
2024-07-02 10:33:01 20.37 ℃ 100 % 1009.56 hPa
2024-07-02 10:23:01 20.34 ℃ 100 % 1009.63 hPa
2024-07-02 10:13:01 19.76 ℃ 100 % 1009.69 hPa
2024-07-02 10:03:01 19.82 ℃ 100 % 1009.64 hPa
2024-07-02 09:53:01 19.99 ℃ 100 % 1009.56 hPa
2024-07-02 09:43:01 20.15 ℃ 100 % 1009.57 hPa
2024-07-02 09:33:01 20.6 ℃ 100 % 1009.54 hPa
2024-07-02 09:23:01 20.35 ℃ 100 % 1009.53 hPa
2024-07-02 09:13:01 20.37 ℃ 100 % 1009.49 hPa
2024-07-02 09:03:01 19.91 ℃ 100 % 1009.54 hPa
2024-07-02 08:53:01 19.13 ℃ 100 % 1009.55 hPa
2024-07-02 08:43:01 18.7 ℃ 100 % 1009.62 hPa
2024-07-02 08:33:01 18.87 ℃ 100 % 1009.66 hPa
2024-07-02 08:23:01 18.67 ℃ 100 % 1009.7 hPa
2024-07-02 08:13:01 18.72 ℃ 100 % 1009.75 hPa
2024-07-02 08:03:01 18.64 ℃ 100 % 1009.77 hPa
2024-07-02 07:53:01 18.26 ℃ 100 % 1009.78 hPa
2024-07-02 07:43:01 18.07 ℃ 100 % 1009.81 hPa
2024-07-02 07:33:01 17.73 ℃ 100 % 1009.77 hPa
2024-07-02 07:23:01 17.81 ℃ 100 % 1009.76 hPa
2024-07-02 07:13:01 17.74 ℃ 100 % 1009.74 hPa
2024-07-02 07:03:01 17.64 ℃ 100 % 1009.74 hPa
2024-07-02 06:53:01 17.63 ℃ 100 % 1009.81 hPa
2024-07-02 06:43:01 17.76 ℃ 100 % 1009.86 hPa
2024-07-02 06:33:01 17.96 ℃ 100 % 1009.86 hPa
2024-07-02 06:23:01 17.92 ℃ 100 % 1009.87 hPa
2024-07-02 06:13:01 17.7 ℃ 100 % 1009.91 hPa
2024-07-02 06:03:01 17.8 ℃ 100 % 1009.94 hPa
2024-07-02 05:53:01 17.69 ℃ 100 % 1009.99 hPa
2024-07-02 05:43:01 17.48 ℃ 100 % 1010.05 hPa
2024-07-02 05:33:01 17.8 ℃ 100 % 1010.1 hPa
2024-07-02 05:23:01 18.14 ℃ 100 % 1010.16 hPa
2024-07-02 05:13:01 18.52 ℃ 100 % 1010.16 hPa
2024-07-02 05:03:01 18.25 ℃ 100 % 1010.19 hPa
2024-07-02 04:53:01 17.81 ℃ 100 % 1010.24 hPa
2024-07-02 04:43:01 17.57 ℃ 100 % 1010.25 hPa
2024-07-02 04:33:01 17.49 ℃ 100 % 1010.24 hPa
2024-07-02 04:23:01 17.23 ℃ 100 % 1010.29 hPa
2024-07-02 04:13:01 17.43 ℃ 100 % 1010.32 hPa
2024-07-02 04:03:01 17.67 ℃ 100 % 1010.35 hPa
2024-07-02 03:53:01 18 ℃ 100 % 1010.42 hPa
2024-07-02 03:43:01 17.94 ℃ 100 % 1010.49 hPa
2024-07-02 03:33:01 17.71 ℃ 100 % 1010.58 hPa
2024-07-02 03:23:01 17.53 ℃ 100 % 1010.67 hPa
2024-07-02 03:13:01 17.77 ℃ 100 % 1010.72 hPa
2024-07-02 03:03:01 17.96 ℃ 100 % 1010.77 hPa
2024-07-02 02:53:01 17.7 ℃ 100 % 1010.89 hPa
2024-07-02 02:43:01 17.98 ℃ 100 % 1011.02 hPa
2024-07-02 02:33:01 18.1 ℃ 100 % 1011.09 hPa
2024-07-02 02:23:01 18.46 ℃ 100 % 1011.07 hPa
2024-07-02 02:13:01 18.41 ℃ 100 % 1011.1 hPa
2024-07-02 02:03:01 18.4 ℃ 100 % 1011.15 hPa
2024-07-02 01:53:02 18.48 ℃ 100 % 1011.25 hPa
2024-07-02 01:43:02 18.59 ℃ 100 % 1011.32 hPa
2024-07-02 01:33:02 18.22 ℃ 100 % 1011.37 hPa
2024-07-02 01:23:02 18.02 ℃ 100 % 1011.45 hPa
2024-07-02 01:13:02 17.91 ℃ 100 % 1011.55 hPa
2024-07-02 01:03:02 18.02 ℃ 100 % 1011.61 hPa
2024-07-02 00:53:02 18.12 ℃ 100 % 1011.68 hPa
2024-07-02 00:43:02 18.27 ℃ 100 % 1011.7 hPa
2024-07-02 00:33:02 18.21 ℃ 100 % 1011.71 hPa
2024-07-02 00:23:02 17.95 ℃ 100 % 1011.73 hPa
2024-07-02 00:13:02 17.9 ℃ 100 % 1011.77 hPa
2024-07-02 00:03:02 17.84 ℃ 100 % 1011.83 hPa
2024-07-01 23:53:02 17.64 ℃ 100 % 1011.89 hPa
2024-07-01 23:43:02 17.72 ℃ 100 % 1011.93 hPa
2024-07-01 23:33:02 17.59 ℃ 100 % 1011.97 hPa
2024-07-01 23:23:02 17.63 ℃ 100 % 1011.96 hPa
2024-07-01 23:13:02 17.92 ℃ 100 % 1011.93 hPa
2024-07-01 23:03:02 17.96 ℃ 100 % 1011.91 hPa
2024-07-01 22:53:02 17.83 ℃ 100 % 1011.9 hPa
2024-07-01 22:43:02 17.87 ℃ 100 % 1011.86 hPa
2024-07-01 22:33:02 17.86 ℃ 100 % 1011.87 hPa
2024-07-01 22:23:02 18.01 ℃ 100 % 1011.88 hPa
2024-07-01 22:13:02 18.28 ℃ 100 % 1011.83 hPa
2024-07-01 22:03:02 18.49 ℃ 100 % 1011.81 hPa
2024-07-01 21:53:02 18.7 ℃ 100 % 1011.76 hPa
2024-07-01 21:43:02 18.87 ℃ 100 % 1011.69 hPa
2024-07-01 21:33:02 18.94 ℃ 100 % 1011.62 hPa
2024-07-01 21:23:02 18.74 ℃ 100 % 1011.61 hPa
2024-07-01 21:13:02 18.63 ℃ 100 % 1011.59 hPa
2024-07-01 21:03:02 18.73 ℃ 100 % 1011.59 hPa
2024-07-01 20:53:02 18.42 ℃ 100 % 1011.6 hPa
2024-07-01 20:43:02 18.23 ℃ 100 % 1011.61 hPa
2024-07-01 20:33:02 18.37 ℃ 100 % 1011.57 hPa
2024-07-01 20:23:02 18.26 ℃ 100 % 1011.56 hPa
2024-07-01 20:13:02 18.49 ℃ 100 % 1011.5 hPa
2024-07-01 20:03:02 18.91 ℃ 100 % 1011.41 hPa
2024-07-01 19:53:02 19.19 ℃ 100 % 1011.38 hPa
2024-07-01 19:43:02 19.18 ℃ 100 % 1011.32 hPa
2024-07-01 19:33:02 19.3 ℃ 100 % 1011.25 hPa
2024-07-01 19:23:02 19.26 ℃ 100 % 1011.18 hPa
2024-07-01 19:13:02 19.36 ℃ 100 % 1011.09 hPa
2024-07-01 19:03:02 19.51 ℃ 100 % 1011.02 hPa
2024-07-01 18:34:37 20.16 ℃ 100 % 1010.91 hPa
2024-07-01 18:24:37 20.25 ℃ 100 % 1010.93 hPa
2024-07-01 18:14:37 20.64 ℃ 100 % 1010.97 hPa
2024-07-01 18:04:37 20.24 ℃ 100 % 1011.09 hPa
2024-07-01 17:54:37 20.2 ℃ 100 % 1011.12 hPa
2024-07-01 17:44:37 20.25 ℃ 100 % 1011.17 hPa
2024-07-01 17:34:37 20.47 ℃ 100 % 1011.15 hPa
2024-07-01 17:24:37 21.03 ℃ 100 % 1011.12 hPa
2024-07-01 17:14:37 20.05 ℃ 100 % 1011.17 hPa
2024-07-01 17:04:37 20.06 ℃ 100 % 1011.16 hPa
2024-07-01 16:54:37 20.12 ℃ 100 % 1011.16 hPa
2024-07-01 16:44:37 20.1 ℃ 100 % 1011.15 hPa
2024-07-01 16:34:37 19.92 ℃ 100 % 1011.16 hPa
2024-07-01 16:24:37 19.64 ℃ 100 % 1011.16 hPa
2024-07-01 16:14:37 19.82 ℃ 100 % 1011.13 hPa
2024-07-01 16:04:37 20.29 ℃ 100 % 1011.05 hPa
2024-07-01 15:54:37 21.32 ℃ 100 % 1011.02 hPa
2024-07-01 15:44:37 21.4 ℃ 100 % 1011.01 hPa
2024-07-01 15:34:37 21.49 ℃ 100 % 1010.97 hPa
2024-07-01 15:24:37 21.91 ℃ 100 % 1010.95 hPa
2024-07-01 15:14:37 21.83 ℃ 100 % 1010.95 hPa
2024-07-01 15:04:37 21.77 ℃ 100 % 1011 hPa
2024-07-01 14:54:37 21.6 ℃ 100 % 1011.05 hPa
2024-07-01 14:44:37 21.05 ℃ 100 % 1011.19 hPa
2024-07-01 14:34:37 21.7 ℃ 100 % 1011.17 hPa
2024-07-01 14:24:37 21.9 ℃ 100 % 1011.18 hPa
2024-07-01 14:14:37 21.53 ℃ 100 % 1011.27 hPa
2024-07-01 14:04:37 21.04 ℃ 100 % 1011.35 hPa
2024-07-01 13:54:37 20.16 ℃ 100 % 1011.43 hPa
2024-07-01 13:44:37 20.28 ℃ 100 % 1011.4 hPa
2024-07-01 13:34:37 21.05 ℃ 100 % 1011.3 hPa
2024-07-01 13:24:37 21.33 ℃ 100 % 1011.23 hPa
2024-07-01 13:14:37 21.54 ℃ 100 % 1011.27 hPa
2024-07-01 13:04:37 21.05 ℃ 100 % 1011.33 hPa
2024-07-01 12:54:37 21.3 ℃ 100 % 1011.31 hPa
2024-07-01 12:44:37 21.05 ℃ 100 % 1011.28 hPa
2024-07-01 12:34:37 20.92 ℃ 100 % 1011.22 hPa
2024-07-01 12:24:37 20.69 ℃ 100 % 1011.24 hPa
2024-07-01 12:14:37 20.77 ℃ 100 % 1011.22 hPa
2024-07-01 12:04:37 20.69 ℃ 100 % 1011.21 hPa
2024-07-01 11:54:37 20.93 ℃ 100 % 1011.2 hPa
2024-07-01 11:44:37 20.79 ℃ 100 % 1011.21 hPa
2024-07-01 11:34:37 20.98 ℃ 100 % 1011.2 hPa
2024-07-01 11:24:37 21.56 ℃ 100 % 1011.17 hPa
2024-07-01 11:14:37 22.18 ℃ 100 % 1011.15 hPa
2024-07-01 11:04:37 21.91 ℃ 100 % 1011.18 hPa
2024-07-01 10:54:37 20.86 ℃ 100 % 1011.22 hPa
2024-07-01 10:44:37 20.56 ℃ 100 % 1011.2 hPa
2024-07-01 10:34:37 20.83 ℃ 100 % 1011.17 hPa
2024-07-01 10:24:37 20.53 ℃ 100 % 1011.17 hPa
2024-07-01 10:14:37 19.71 ℃ 100 % 1011.18 hPa
2024-07-01 10:04:37 19 ℃ 100 % 1011.22 hPa
2024-07-01 09:54:37 18.93 ℃ 100 % 1011.26 hPa
2024-07-01 09:44:37 18.17 ℃ 100 % 1011.27 hPa
2024-07-01 09:34:37 17.42 ℃ 100 % 1011.31 hPa
2024-07-01 09:24:37 16.74 ℃ 100 % 1011.29 hPa
2024-07-01 09:14:37 16.66 ℃ 100 % 1011.29 hPa
2024-07-01 09:04:37 16.89 ℃ 100 % 1011.25 hPa
2024-07-01 08:54:37 17.34 ℃ 100 % 1011.18 hPa
2024-07-01 08:44:38 17.56 ℃ 100 % 1011.15 hPa
2024-07-01 08:34:37 17.76 ℃ 100 % 1011.09 hPa
2024-07-01 08:24:38 18.05 ℃ 100 % 1011.04 hPa
2024-07-01 08:14:37 18.32 ℃ 100 % 1010.96 hPa
2024-07-01 08:04:37 19.33 ℃ 100 % 1010.86 hPa
2024-07-01 07:54:37 19.87 ℃ 100 % 1010.7 hPa
2024-07-01 07:44:37 20.45 ℃ 100 % 1010.57 hPa
2024-07-01 07:34:37 20.11 ℃ 100 % 1010.55 hPa
2024-07-01 07:24:37 19.64 ℃ 100 % 1010.55 hPa
2024-07-01 07:14:38 19.13 ℃ 100 % 1010.47 hPa
2024-07-01 07:04:38 18.83 ℃ 100 % 1010.47 hPa
2024-07-01 06:54:38 19.65 ℃ 100 % 1010.58 hPa
2024-07-01 06:44:38 20.4 ℃ 100 % 1010.71 hPa
2024-07-01 06:34:38 20.52 ℃ 100 % 1010.78 hPa
2024-07-01 06:24:38 21.14 ℃ 100 % 1010.85 hPa
2024-07-01 06:14:38 21.87 ℃ 100 % 1010.83 hPa
2024-07-01 06:04:38 21.12 ℃ 100 % 1010.74 hPa
2024-07-01 05:54:38 20.73 ℃ 100 % 1010.69 hPa
2024-07-01 05:44:38 19.86 ℃ 100 % 1010.68 hPa
2024-07-01 05:34:38 18.99 ℃ 100 % 1010.66 hPa
2024-07-01 05:24:38 18.69 ℃ 100 % 1010.61 hPa
2024-07-01 05:14:38 18.36 ℃ 100 % 1010.55 hPa
2024-07-01 05:04:38 18.28 ℃ 100 % 1010.49 hPa
2024-07-01 04:54:38 18.48 ℃ 100 % 1010.38 hPa
2024-07-01 04:44:38 18.6 ℃ 100 % 1010.32 hPa
2024-07-01 04:34:38 18.72 ℃ 100 % 1010.27 hPa
2024-07-01 04:24:38 18.55 ℃ 100 % 1010.2 hPa
2024-07-01 04:14:38 18.54 ℃ 100 % 1010.19 hPa
2024-07-01 04:04:38 18.34 ℃ 100 % 1010.23 hPa
2024-07-01 03:54:38 18.13 ℃ 100 % 1010.3 hPa
2024-07-01 03:44:38 18.17 ℃ 100 % 1010.37 hPa
2024-07-01 03:34:38 18.16 ℃ 100 % 1010.41 hPa
2024-07-01 03:24:38 18.49 ℃ 100 % 1010.36 hPa
2024-07-01 03:14:38 18.24 ℃ 100 % 1010.36 hPa
2024-07-01 03:04:38 17.95 ℃ 100 % 1010.41 hPa
2024-07-01 02:54:38 17.77 ℃ 100 % 1010.48 hPa
2024-07-01 02:44:38 17.49 ℃ 100 % 1010.59 hPa
2024-07-01 02:34:38 17.52 ℃ 100 % 1010.67 hPa
2024-07-01 02:24:38 17.74 ℃ 100 % 1010.72 hPa
2024-07-01 02:14:38 17.71 ℃ 100 % 1010.74 hPa
2024-07-01 02:04:38 17.83 ℃ 100 % 1010.7 hPa
2024-07-01 01:54:38 17.84 ℃ 100 % 1010.7 hPa
2024-07-01 01:44:38 18 ℃ 100 % 1010.72 hPa
2024-07-01 01:34:38 18.32 ℃ 100 % 1010.63 hPa
2024-07-01 01:24:38 18.68 ℃ 100 % 1010.63 hPa
2024-07-01 01:14:38 18.66 ℃ 100 % 1010.64 hPa
2024-07-01 01:04:38 18.79 ℃ 100 % 1010.7 hPa
2024-07-01 00:54:38 18.49 ℃ 100 % 1010.73 hPa
2024-07-01 00:44:38 18.46 ℃ 100 % 1010.72 hPa
2024-07-01 00:34:38 18.66 ℃ 100 % 1010.67 hPa
2024-07-01 00:24:38 19.27 ℃ 100 % 1010.6 hPa
2024-07-01 00:14:39 19.5 ℃ 100 % 1010.48 hPa
2024-07-01 00:04:38 19.47 ℃ 100 % 1010.41 hPa
2024-06-30 23:54:38 19.68 ℃ 100 % 1010.33 hPa
2024-06-30 23:44:38 20.09 ℃ 100 % 1010.24 hPa
2024-06-30 23:34:38 20.8 ℃ 100 % 1010.17 hPa
2024-06-30 23:24:38 21.21 ℃ 100 % 1010.07 hPa
2024-06-30 23:14:38 21.42 ℃ 100 % 1009.92 hPa
2024-06-30 23:04:38 21.33 ℃ 100 % 1009.81 hPa
2024-06-30 22:54:38 21.06 ℃ 100 % 1009.79 hPa
2024-06-30 22:44:38 21.25 ℃ 100 % 1009.69 hPa
2024-06-30 22:34:38 21.28 ℃ 100 % 1009.56 hPa
2024-06-30 22:24:38 21.33 ℃ 100 % 1009.46 hPa
2024-06-30 22:14:38 20.79 ℃ 100 % 1009.45 hPa
2024-06-30 22:04:38 20.85 ℃ 100 % 1009.41 hPa
2024-06-30 21:54:38 20.47 ℃ 100 % 1009.37 hPa
2024-06-30 21:44:38 20.26 ℃ 100 % 1009.34 hPa
2024-06-30 21:34:38 20.23 ℃ 100 % 1009.29 hPa
2024-06-30 21:24:38 19.89 ℃ 100 % 1009.27 hPa
2024-06-30 21:14:38 19.5 ℃ 100 % 1009.27 hPa
2024-06-30 21:04:38 19.46 ℃ 100 % 1009.2 hPa
2024-06-30 20:54:39 19.59 ℃ 100 % 1009.11 hPa
2024-06-30 20:44:39 19.66 ℃ 100 % 1009.03 hPa
2024-06-30 20:34:38 19.64 ℃ 100 % 1008.96 hPa
2024-06-30 20:24:38 19.02 ℃ 100 % 1008.97 hPa
2024-06-30 20:14:38 18.77 ℃ 100 % 1008.9 hPa
2024-06-30 20:04:39 18.79 ℃ 100 % 1008.88 hPa
2024-06-30 19:54:39 18.83 ℃ 100 % 1008.86 hPa
2024-06-30 19:44:39 19.18 ℃ 100 % 1008.76 hPa
2024-06-30 19:34:39 19.47 ℃ 100 % 1008.61 hPa
2024-06-30 19:24:39 19.71 ℃ 100 % 1008.51 hPa
2024-06-30 19:14:39 20.28 ℃ 100 % 1008.33 hPa
2024-06-30 19:04:39 20.9 ℃ 100 % 1008.18 hPa
2024-06-30 18:54:39 21.71 ℃ 100 % 1007.97 hPa
2024-06-30 18:44:39 21.49 ℃ 100 % 1007.89 hPa
2024-06-30 18:34:39 21.03 ℃ 100 % 1007.82 hPa
2024-06-30 18:24:39 20.36 ℃ 100 % 1007.78 hPa
2024-06-30 18:14:39 19.76 ℃ 100 % 1007.72 hPa
2024-06-30 18:04:39 19.49 ℃ 100 % 1007.67 hPa
2024-06-30 17:54:39 19.4 ℃ 100 % 1007.68 hPa
2024-06-30 17:44:39 19.43 ℃ 100 % 1007.64 hPa
2024-06-30 17:34:39 19.84 ℃ 100 % 1007.56 hPa
2024-06-30 17:24:39 19.81 ℃ 100 % 1007.49 hPa
2024-06-30 17:14:39 19.79 ℃ 100 % 1007.43 hPa
2024-06-30 17:04:39 19.42 ℃ 100 % 1007.4 hPa
2024-06-30 16:54:39 19.27 ℃ 100 % 1007.36 hPa
2024-06-30 16:44:39 19.32 ℃ 100 % 1007.32 hPa
2024-06-30 16:34:39 19.35 ℃ 100 % 1007.26 hPa
2024-06-30 16:24:39 19.66 ℃ 100 % 1007.12 hPa
2024-06-30 16:14:39 19.67 ℃ 100 % 1007.02 hPa
2024-06-30 16:04:39 19.58 ℃ 100 % 1006.98 hPa
2024-06-30 15:54:39 19.45 ℃ 100 % 1006.91 hPa
2024-06-30 15:44:39 19.39 ℃ 100 % 1006.84 hPa
2024-06-30 15:34:39 19.62 ℃ 100 % 1006.73 hPa
2024-06-30 15:24:39 19.69 ℃ 100 % 1006.58 hPa
2024-06-30 15:14:39 19.66 ℃ 100 % 1006.45 hPa
2024-06-30 15:04:39 19.55 ℃ 100 % 1006.32 hPa
2024-06-30 14:54:39 19.59 ℃ 100 % 1006.15 hPa
2024-06-30 14:44:39 19.47 ℃ 100 % 1006.01 hPa
2024-06-30 14:34:39 19.52 ℃ 100 % 1005.85 hPa
2024-06-30 14:24:39 19.72 ℃ 100 % 1005.72 hPa
2024-06-30 14:14:39 19.81 ℃ 100 % 1005.58 hPa
2024-06-30 14:04:39 19.69 ℃ 100 % 1005.49 hPa
2024-06-30 13:54:39 19.59 ℃ 100 % 1005.42 hPa
2024-06-30 13:44:39 19.7 ℃ 100 % 1005.27 hPa
2024-06-30 13:34:39 19.45 ℃ 100 % 1005.24 hPa
2024-06-30 13:24:39 19.34 ℃ 100 % 1005.2 hPa
2024-06-30 13:14:39 19.51 ℃ 100 % 1005.23 hPa
2024-06-30 13:04:39 19.52 ℃ 100 % 1005.23 hPa
2024-06-30 12:54:39 19.4 ℃ 100 % 1005.2 hPa
2024-06-30 12:44:39 19.2 ℃ 100 % 1005.19 hPa
2024-06-30 12:34:39 18.96 ℃ 100 % 1005.16 hPa
2024-06-30 12:24:39 18.73 ℃ 100 % 1005.14 hPa
2024-06-30 12:14:39 18.68 ℃ 100 % 1005.08 hPa
2024-06-30 12:04:39 18.59 ℃ 100 % 1005.04 hPa
2024-06-30 11:54:39 18.84 ℃ 100 % 1004.91 hPa
2024-06-30 11:44:39 18.92 ℃ 100 % 1004.83 hPa
2024-06-30 11:34:39 19.05 ℃ 100 % 1004.82 hPa
2024-06-30 11:24:39 18.97 ℃ 100 % 1004.79 hPa
2024-06-30 11:14:39 19.1 ℃ 100 % 1004.7 hPa
2024-06-30 11:04:39 18.77 ℃ 100 % 1004.66 hPa
2024-06-30 10:54:39 18.68 ℃ 100 % 1004.68 hPa
2024-06-30 10:44:39 18.66 ℃ 100 % 1004.71 hPa
2024-06-30 10:34:39 18.87 ℃ 100 % 1004.61 hPa
2024-06-30 10:24:39 19.05 ℃ 100 % 1004.44 hPa
2024-06-30 10:14:39 19.17 ℃ 100 % 1004.2 hPa
2024-06-30 10:04:39 19.17 ℃ 100 % 1004.07 hPa
2024-06-30 09:54:39 19.09 ℃ 100 % 1004.02 hPa
2024-06-30 09:44:39 19.04 ℃ 100 % 1003.92 hPa
2024-06-30 09:34:39 19.04 ℃ 100 % 1003.76 hPa
2024-06-30 09:24:39 18.96 ℃ 100 % 1003.59 hPa
2024-06-30 09:14:39 18.81 ℃ 100 % 1003.47 hPa
2024-06-30 09:04:39 18.71 ℃ 100 % 1003.47 hPa
2024-06-30 08:54:39 18.65 ℃ 100 % 1003.47 hPa
2024-06-30 08:44:39 18.57 ℃ 100 % 1003.49 hPa
2024-06-30 08:34:40 18.52 ℃ 100 % 1003.39 hPa
2024-06-30 08:24:39 18.59 ℃ 100 % 1003.46 hPa
2024-06-30 08:14:39 18.89 ℃ 100 % 1003.73 hPa
2024-06-30 08:04:39 19.27 ℃ 100 % 1003.92 hPa
2024-06-30 07:54:39 19.13 ℃ 100 % 1003.81 hPa
2024-06-30 07:44:40 18.97 ℃ 100 % 1003.73 hPa
2024-06-30 07:34:39 18.9 ℃ 100 % 1003.72 hPa
2024-06-30 07:24:40 19.03 ℃ 100 % 1003.89 hPa
2024-06-30 07:14:40 19.23 ℃ 100 % 1004.25 hPa
2024-06-30 07:04:40 19.51 ℃ 100 % 1004.67 hPa
2024-06-30 06:54:40 19.85 ℃ 100 % 1004.92 hPa
2024-06-30 06:44:40 20.12 ℃ 100 % 1005.16 hPa
2024-06-30 06:34:40 20.14 ℃ 100 % 1005.47 hPa
2024-06-30 06:24:40 20.06 ℃ 100 % 1005.6 hPa
2024-06-30 06:14:40 19.84 ℃ 100 % 1005.36 hPa
2024-06-30 06:04:40 19.54 ℃ 100 % 1004.98 hPa
2024-06-30 05:54:40 19.39 ℃ 100 % 1004.77 hPa
2024-06-30 05:44:40 19.45 ℃ 100 % 1004.79 hPa
2024-06-30 05:34:40 19.59 ℃ 100 % 1004.96 hPa
2024-06-30 05:24:40 19.67 ℃ 100 % 1005.11 hPa
2024-06-30 05:14:40 19.88 ℃ 100 % 1005.2 hPa
2024-06-30 05:04:40 19.82 ℃ 100 % 1005.23 hPa
2024-06-30 04:54:40 19.74 ℃ 100 % 1005.33 hPa
2024-06-30 04:44:40 19.74 ℃ 100 % 1005.68 hPa
2024-06-30 04:34:40 19.68 ℃ 100 % 1005.79 hPa
2024-06-30 04:24:40 19.64 ℃ 100 % 1005.67 hPa
2024-06-30 04:14:40 19.57 ℃ 100 % 1005.84 hPa
2024-06-30 04:04:40 19.63 ℃ 100 % 1006.08 hPa
2024-06-30 03:54:40 19.64 ℃ 100 % 1006.08 hPa
2024-06-30 03:44:40 19.38 ℃ 100 % 1006.26 hPa
2024-06-30 03:34:40 19.47 ℃ 100 % 1006.65 hPa
2024-06-30 03:24:40 19.5 ℃ 100 % 1006.97 hPa
2024-06-30 03:14:40 19.66 ℃ 100 % 1007.31 hPa
2024-06-30 03:04:40 19.83 ℃ 100 % 1007.67 hPa
2024-06-30 02:54:40 19.7 ℃ 100 % 1007.91 hPa
2024-06-30 02:44:40 19.9 ℃ 100 % 1008.08 hPa
2024-06-30 02:34:40 20.05 ℃ 100 % 1008.25 hPa
2024-06-30 02:24:40 19.79 ℃ 100 % 1008.46 hPa
2024-06-30 02:14:40 19.9 ℃ 100 % 1008.64 hPa
2024-06-30 02:04:40 19.89 ℃ 100 % 1008.87 hPa
2024-06-30 01:54:40 19.94 ℃ 100 % 1008.9 hPa
2024-06-30 01:44:40 19.68 ℃ 100 % 1008.79 hPa
2024-06-30 01:34:40 19.83 ℃ 100 % 1008.9 hPa
2024-06-30 01:24:40 19.95 ℃ 100 % 1009.07 hPa
2024-06-30 01:14:40 19.7 ℃ 100 % 1009.26 hPa
2024-06-30 01:04:40 19.83 ℃ 100 % 1009.49 hPa
2024-06-30 00:54:40 19.97 ℃ 100 % 1009.67 hPa
2024-06-30 00:44:40 20.11 ℃ 100 % 1010.16 hPa
2024-06-30 00:34:40 20.17 ℃ 100 % 1010.52 hPa
2024-06-30 00:24:40 20.25 ℃ 100 % 1010.77 hPa
2024-06-30 00:14:40 20.33 ℃ 100 % 1010.86 hPa
2024-06-30 00:04:40 20.25 ℃ 100 % 1010.97 hPa
2024-06-29 23:54:40 20.23 ℃ 100 % 1011.1 hPa
2024-06-29 23:44:40 20.04 ℃ 100 % 1011.25 hPa
2024-06-29 23:34:40 20.3 ℃ 100 % 1011.38 hPa
2024-06-29 23:24:40 20.45 ℃ 100 % 1011.39 hPa
2024-06-29 23:14:40 20.37 ℃ 100 % 1011.45 hPa
2024-06-29 23:04:40 20.4 ℃ 100 % 1011.63 hPa
2024-06-29 22:54:40 20.74 ℃ 100 % 1011.77 hPa
2024-06-29 22:44:40 20.83 ℃ 100 % 1011.78 hPa
2024-06-29 22:34:40 21.15 ℃ 100 % 1011.89 hPa
2024-06-29 22:24:40 21.12 ℃ 100 % 1011.95 hPa
2024-06-29 22:14:40 21.27 ℃ 100 % 1011.94 hPa
2024-06-29 22:04:40 21.38 ℃ 100 % 1012 hPa
2024-06-29 21:54:40 21.38 ℃ 100 % 1012.05 hPa
2024-06-29 21:44:40 21.58 ℃ 100 % 1012.17 hPa
2024-06-29 21:34:40 21.79 ℃ 100 % 1012.26 hPa
2024-06-29 21:24:40 22.02 ℃ 100 % 1012.31 hPa
2024-06-29 21:14:40 22.06 ℃ 100 % 1012.36 hPa
2024-06-29 21:04:40 22.34 ℃ 100 % 1012.38 hPa
2024-06-29 20:54:40 22.58 ℃ 100 % 1012.45 hPa
2024-06-29 20:44:40 22.32 ℃ 100 % 1012.58 hPa
2024-06-29 20:34:40 22.18 ℃ 100 % 1012.62 hPa
2024-06-29 20:24:41 22.11 ℃ 100 % 1012.75 hPa
2024-06-29 20:14:41 22.06 ℃ 100 % 1012.88 hPa
2024-06-29 20:04:40 22.23 ℃ 100 % 1013 hPa
2024-06-29 19:54:41 22.15 ℃ 100 % 1013.05 hPa
2024-06-29 19:44:41 22.37 ℃ 100 % 1013.15 hPa
2024-06-29 19:34:41 22.31 ℃ 100 % 1013.27 hPa
2024-06-29 19:24:41 22.49 ℃ 100 % 1013.26 hPa
2024-06-29 19:14:41 22.63 ℃ 100 % 1013.33 hPa
2024-06-29 19:04:41 22.7 ℃ 100 % 1013.39 hPa
2024-06-29 18:54:41 22.5 ℃ 100 % 1013.51 hPa
2024-06-29 18:44:41 22.72 ℃ 100 % 1013.6 hPa
2024-06-29 18:34:41 22.85 ℃ 100 % 1013.7 hPa
2024-06-29 18:24:41 22.96 ℃ 100 % 1013.73 hPa
2024-06-29 18:14:41 23.03 ℃ 100 % 1013.9 hPa
2024-06-29 18:04:41 23.08 ℃ 100 % 1014 hPa
2024-06-29 17:54:41 23 ℃ 100 % 1014.08 hPa
2024-06-29 17:44:41 23.03 ℃ 99.99 % 1014.14 hPa
2024-06-29 17:34:41 23.19 ℃ 99.98 % 1014.19 hPa
2024-06-29 17:24:41 22.96 ℃ 99.96 % 1014.3 hPa
2024-06-29 17:14:41 23.03 ℃ 99.92 % 1014.39 hPa
2024-06-29 17:04:41 23.24 ℃ 99.84 % 1014.48 hPa
2024-06-29 16:54:41 23.53 ℃ 99.69 % 1014.59 hPa
2024-06-29 16:44:41 23.88 ℃ 99.37 % 1014.61 hPa
2024-06-29 16:34:41 23.92 ℃ 98.74 % 1014.67 hPa
2024-06-29 16:24:41 24.15 ℃ 97.48 % 1014.78 hPa
2024-06-29 16:14:41 25.07 ℃ 94.96 % 1014.8 hPa
2024-06-29 16:04:41 25.63 ℃ 89.92 % 1014.94 hPa
2024-06-29 15:54:41 26.38 ℃ 79.84 % 1015.03 hPa
2024-06-29 15:44:41 26.68 ℃ 78.62 % 1015.12 hPa
2024-06-29 15:34:41 26.86 ℃ 78.9 % 1015.2 hPa
2024-06-29 15:24:41 27.01 ℃ 79.49 % 1015.32 hPa
2024-06-29 15:14:41 26.91 ℃ 80.21 % 1015.42 hPa
2024-06-29 15:04:41 26.87 ℃ 81.9 % 1015.54 hPa
2024-06-29 14:54:41 26.86 ℃ 83.48 % 1015.61 hPa
2024-06-29 14:44:41 27.08 ℃ 84.63 % 1015.67 hPa
2024-06-29 14:34:41 27.03 ℃ 85.24 % 1015.78 hPa
2024-06-29 14:24:41 26.73 ℃ 88.35 % 1015.89 hPa
2024-06-29 14:14:41 26.88 ℃ 87.11 % 1015.97 hPa
2024-06-29 14:04:41 27.17 ℃ 91.47 % 1016.1 hPa
2024-06-29 13:54:41 27.14 ℃ 90.45 % 1016.24 hPa
2024-06-29 13:44:41 26.92 ℃ 88.84 % 1016.34 hPa
2024-06-29 13:34:41 26.73 ℃ 89.81 % 1016.47 hPa
2024-06-29 13:24:41 26.73 ℃ 91.14 % 1016.56 hPa
2024-06-29 13:14:41 26.66 ℃ 92.26 % 1016.65 hPa
2024-06-29 13:04:41 26.71 ℃ 93.3 % 1016.76 hPa
2024-06-29 12:54:41 26.35 ℃ 96.65 % 1016.87 hPa
2024-06-29 12:44:41 26.23 ℃ 99.98 % 1016.97 hPa
2024-06-29 12:34:41 26.08 ℃ 99.96 % 1017.07 hPa
2024-06-29 12:24:41 26.08 ℃ 99.92 % 1017.18 hPa
2024-06-29 12:14:41 26.09 ℃ 99.84 % 1017.25 hPa
2024-06-29 12:04:41 25.91 ℃ 99.87 % 1017.31 hPa
2024-06-29 11:54:41 26.03 ℃ 99.75 % 1017.38 hPa
2024-06-29 11:44:41 25.69 ℃ 100 % 1017.46 hPa
2024-06-29 11:34:41 25.05 ℃ 100 % 1017.49 hPa
2024-06-29 11:24:41 25.12 ℃ 100 % 1017.52 hPa
2024-06-29 11:14:41 25.36 ℃ 100 % 1017.56 hPa
2024-06-29 11:04:41 24.82 ℃ 100 % 1017.56 hPa
2024-06-28 08:19:10 23.99 ℃ 100 % 1008.54 hPa
2024-06-28 08:09:10 24.02 ℃ 100 % 1008.44 hPa
2024-06-28 07:59:10 24.38 ℃ 100 % 1008.3 hPa
2024-06-28 07:49:10 24.43 ℃ 100 % 1008.13 hPa
2024-06-28 07:39:10 24.94 ℃ 100 % 1007.93 hPa
2024-06-28 07:29:10 25.05 ℃ 100 % 1007.76 hPa
2024-06-28 07:19:10 24.8 ℃ 100 % 1007.65 hPa
2024-06-28 07:09:10 24.68 ℃ 100 % 1007.54 hPa
2024-06-28 06:59:10 24.72 ℃ 100 % 1007.53 hPa
2024-06-28 06:49:10 25.12 ℃ 100 % 1007.52 hPa
2024-06-28 06:39:10 25.52 ℃ 100 % 1007.55 hPa
2024-06-28 06:29:11 25.13 ℃ 100 % 1007.56 hPa
2024-06-28 06:19:10 25.25 ℃ 100 % 1007.54 hPa
2024-06-28 06:09:10 25.52 ℃ 100 % 1007.6 hPa
2024-06-28 05:59:10 25.04 ℃ 100 % 1007.62 hPa
2024-06-28 05:49:11 25.13 ℃ 100 % 1007.61 hPa
2024-06-28 05:39:10 24.9 ℃ 100 % 1007.62 hPa
2024-06-28 05:29:10 24.71 ℃ 100 % 1007.64 hPa
2024-06-28 05:19:10 24.43 ℃ 100 % 1007.67 hPa
2024-06-28 05:09:10 24.31 ℃ 100 % 1007.62 hPa
2024-06-28 04:59:10 24.44 ℃ 100 % 1007.62 hPa
2024-06-28 04:49:10 24.67 ℃ 100 % 1007.58 hPa
2024-06-28 04:39:10 24.69 ℃ 100 % 1007.57 hPa
2024-06-28 04:29:10 24.41 ℃ 100 % 1007.61 hPa
2024-06-28 04:19:11 24.2 ℃ 100 % 1007.64 hPa
2024-06-28 04:09:10 24.03 ℃ 100 % 1007.61 hPa
2024-06-28 03:59:10 24.09 ℃ 100 % 1007.57 hPa
2024-06-28 03:49:10 24.16 ℃ 100 % 1007.56 hPa
2024-06-28 03:39:10 24.14 ℃ 100 % 1007.56 hPa
2024-06-28 03:29:10 24.2 ℃ 100 % 1007.54 hPa
2024-06-28 03:19:11 24.11 ℃ 100 % 1007.56 hPa
2024-06-28 03:09:11 24.08 ℃ 100 % 1007.56 hPa
2024-06-28 02:59:11 24.07 ℃ 100 % 1007.64 hPa
2024-06-28 02:49:11 23.86 ℃ 100 % 1007.73 hPa
2024-06-28 02:39:11 23.88 ℃ 100 % 1007.9 hPa
2024-06-28 02:29:11 23.68 ℃ 100 % 1008.04 hPa
2024-06-28 02:19:11 23.38 ℃ 100 % 1008.18 hPa
2024-06-28 02:09:11 23.46 ℃ 100 % 1008.25 hPa
2024-06-28 01:59:11 23.58 ℃ 100 % 1008.4 hPa
2024-06-28 01:49:11 23.6 ℃ 100 % 1008.52 hPa
2024-06-28 01:39:11 23.52 ℃ 100 % 1008.56 hPa
2024-06-28 01:29:11 23.23 ℃ 100 % 1008.61 hPa
2024-06-28 01:19:11 23.33 ℃ 100 % 1008.62 hPa
2024-06-28 01:09:11 23.57 ℃ 100 % 1008.58 hPa
2024-06-28 00:59:11 24.14 ℃ 100 % 1008.62 hPa
2024-06-28 00:49:11 24.81 ℃ 100 % 1008.64 hPa
2024-06-28 00:39:11 24.88 ℃ 100 % 1008.7 hPa
2024-06-28 00:29:11 24.4 ℃ 100 % 1008.76 hPa
2024-06-28 00:19:11 24.16 ℃ 100 % 1008.8 hPa
2024-06-28 00:09:11 24.27 ℃ 100 % 1008.75 hPa
2024-06-27 23:59:11 24.67 ℃ 100 % 1008.72 hPa
2024-06-27 23:49:11 24.79 ℃ 100 % 1008.64 hPa
2024-06-27 23:39:11 24.8 ℃ 100 % 1008.55 hPa
2024-06-27 23:29:11 24.73 ℃ 100 % 1008.51 hPa
2024-06-27 23:19:11 24.34 ℃ 100 % 1008.54 hPa
2024-06-27 23:09:11 24.92 ℃ 100 % 1008.37 hPa
2024-06-27 22:59:11 25.51 ℃ 100 % 1008.23 hPa
2024-06-27 22:49:11 26.04 ℃ 100 % 1008.14 hPa
2024-06-27 22:39:11 26.45 ℃ 100 % 1008.13 hPa
2024-06-27 22:29:11 26.59 ℃ 100 % 1008.01 hPa
2024-06-27 22:19:11 26.74 ℃ 100 % 1007.94 hPa
2024-06-27 22:09:11 27.08 ℃ 100 % 1007.94 hPa
2024-06-27 21:59:11 27.41 ℃ 100 % 1007.94 hPa
2024-06-27 21:49:11 27.65 ℃ 100 % 1008.06 hPa
2024-06-27 21:39:11 27.57 ℃ 100 % 1008.13 hPa
2024-06-27 21:29:11 27.42 ℃ 100 % 1008.15 hPa
2024-06-27 21:19:11 27.1 ℃ 100 % 1008.22 hPa
2024-06-27 21:09:11 26.86 ℃ 100 % 1008.3 hPa
2024-06-27 20:59:11 26.18 ℃ 100 % 1008.34 hPa
2024-06-27 20:49:11 25.26 ℃ 100 % 1008.33 hPa
2024-06-27 20:39:11 25.15 ℃ 100 % 1008.35 hPa
2024-06-27 20:29:11 25.67 ℃ 100 % 1008.35 hPa
2024-06-27 20:19:11 26.78 ℃ 100 % 1008.29 hPa
2024-06-27 20:09:11 27.26 ℃ 100 % 1008.28 hPa
2024-06-27 19:59:11 27.23 ℃ 100 % 1008.23 hPa
2024-06-27 19:49:11 27.06 ℃ 100 % 1008.23 hPa
2024-06-27 19:39:11 27.86 ℃ 100 % 1008.2 hPa
2024-06-27 17:56:02 29.15 ℃ 100 % 1007.78 hPa
2024-06-27 17:46:02 29.24 ℃ 100 % 1007.69 hPa
2024-06-27 17:33:04 30.85 ℃ 100 % 1006.58 hPa
2024-06-27 17:23:04 31.58 ℃ 100 % 1006.67 hPa
2024-06-27 17:13:04 32.54 ℃ 100 % 1006.75 hPa
2024-06-27 17:03:04 33.3 ℃ 100 % 1006.59 hPa
2024-06-27 16:53:04 33.86 ℃ 100 % 1006.66 hPa
2024-06-27 16:43:05 33.94 ℃ 100 % 1006.74 hPa
2024-06-27 16:33:05 33.84 ℃ 100 % 1006.71 hPa
2024-06-27 16:23:04 33.58 ℃ 100 % 1006.73 hPa
2024-06-27 16:13:04 33.58 ℃ 100 % 1006.69 hPa
2024-06-27 16:03:04 33.34 ℃ 100 % 1006.68 hPa
2024-06-27 15:53:04 33.82 ℃ 100 % 1006.75 hPa
2024-06-27 15:43:04 33.79 ℃ 100 % 1006.77 hPa
2024-06-27 15:33:04 33.61 ℃ 100 % 1006.78 hPa
2024-06-27 15:23:04 33.7 ℃ 100 % 1006.89 hPa
2024-06-27 15:13:04 33.55 ℃ 100 % 1007.01 hPa
2024-06-27 15:03:04 33.46 ℃ 100 % 1007.08 hPa
2024-06-27 14:53:04 33.21 ℃ 100 % 1007.05 hPa
2024-06-27 14:43:04 33.5 ℃ 100 % 1007.08 hPa
2024-06-27 14:33:04 33.45 ℃ 100 % 1007.13 hPa
2024-06-27 14:23:04 33.22 ℃ 100 % 1007.19 hPa
2024-06-27 14:13:04 33.01 ℃ 100 % 1007.24 hPa
2024-06-27 14:03:04 33.13 ℃ 100 % 1007.31 hPa
2024-06-27 13:53:04 32.79 ℃ 100 % 1007.43 hPa
2024-06-27 13:43:04 32.72 ℃ 100 % 1007.56 hPa
2024-06-27 13:33:04 32.71 ℃ 100 % 1007.64 hPa
2024-06-27 13:23:04 32.75 ℃ 100 % 1007.7 hPa
2024-06-27 13:13:04 32.78 ℃ 100 % 1007.76 hPa
2024-06-27 13:03:04 32.52 ℃ 100 % 1007.85 hPa
2024-06-27 12:53:04 32.51 ℃ 100 % 1007.96 hPa
2024-06-27 12:43:04 32.7 ℃ 100 % 1008.08 hPa
2024-06-27 12:33:05 32.16 ℃ 100 % 1008.15 hPa
2024-06-27 12:23:04 32.28 ℃ 100 % 1008.21 hPa
2024-06-27 12:13:04 32.18 ℃ 100 % 1008.27 hPa
2024-06-27 12:03:04 31.64 ℃ 100 % 1008.32 hPa
2024-06-27 11:53:05 31.71 ℃ 100 % 1008.37 hPa
2024-06-27 11:43:04 31.27 ℃ 100 % 1008.44 hPa
2024-06-27 11:33:04 31.35 ℃ 100 % 1008.51 hPa
2024-06-27 11:23:04 30.97 ℃ 100 % 1008.54 hPa
2024-06-27 11:13:04 30.98 ℃ 100 % 1008.54 hPa
2024-06-27 11:03:04 31.12 ℃ 100 % 1008.59 hPa
2024-06-27 10:53:04 30.7 ℃ 100 % 1008.63 hPa
2024-06-27 10:43:05 30.96 ℃ 100 % 1008.67 hPa
2024-06-27 10:33:05 30.38 ℃ 100 % 1008.71 hPa
2024-06-27 10:23:05 30.05 ℃ 100 % 1008.74 hPa
2024-06-27 10:13:05 30.01 ℃ 100 % 1008.77 hPa
2024-06-27 10:03:05 29.97 ℃ 100 % 1008.84 hPa
2024-06-27 09:53:05 30.01 ℃ 100 % 1008.84 hPa
2024-06-27 09:43:05 29.33 ℃ 100 % 1008.84 hPa
2024-06-27 09:33:05 28.73 ℃ 100 % 1008.88 hPa
2024-06-27 09:23:05 28.08 ℃ 100 % 1008.98 hPa
2024-06-27 09:13:05 28.26 ℃ 100 % 1008.99 hPa
2024-06-27 09:03:05 27.99 ℃ 100 % 1009.03 hPa
2024-06-27 08:53:05 27.24 ℃ 100 % 1009.12 hPa
2024-06-27 08:43:05 26.7 ℃ 100 % 1009.21 hPa
2024-06-27 08:33:05 26.18 ℃ 100 % 1009.32 hPa
2024-06-27 08:23:05 25.83 ℃ 100 % 1009.42 hPa
2024-06-27 08:13:05 25.79 ℃ 100 % 1009.48 hPa
2024-06-27 08:03:05 25.82 ℃ 100 % 1009.51 hPa
2024-06-27 07:53:05 25.85 ℃ 100 % 1009.52 hPa
2024-06-27 07:43:05 24.86 ℃ 100 % 1009.56 hPa
2024-06-27 07:33:05 24.28 ℃ 100 % 1009.62 hPa
2024-06-27 07:23:05 23.79 ℃ 100 % 1009.69 hPa
2024-06-27 07:13:05 23.04 ℃ 100 % 1009.74 hPa
2024-06-27 07:03:05 22.6 ℃ 100 % 1009.72 hPa
2024-06-27 06:53:05 22.5 ℃ 100 % 1009.75 hPa
2024-06-27 06:43:05 22.67 ℃ 100 % 1009.79 hPa
2024-06-27 06:33:05 22.86 ℃ 100 % 1009.85 hPa
2024-06-27 06:23:05 22.64 ℃ 100 % 1009.86 hPa
2024-06-27 06:13:05 22.51 ℃ 100 % 1009.86 hPa
2024-06-27 06:03:05 22.23 ℃ 100 % 1009.91 hPa
2024-06-27 05:53:05 22.06 ℃ 100 % 1009.88 hPa
2024-06-27 05:43:05 22.07 ℃ 100 % 1009.87 hPa
2024-06-27 05:33:05 22.23 ℃ 100 % 1009.85 hPa
2024-06-27 05:23:05 22.32 ℃ 100 % 1009.83 hPa
2024-06-27 05:13:05 22.28 ℃ 100 % 1009.86 hPa
2024-06-27 05:03:05 22.13 ℃ 100 % 1009.91 hPa
2024-06-27 04:53:05 22.24 ℃ 100 % 1009.93 hPa
2024-06-27 04:43:05 22.14 ℃ 100 % 1009.99 hPa
2024-06-27 04:33:05 22.12 ℃ 100 % 1010 hPa
2024-06-27 04:23:05 22.24 ℃ 100 % 1010.01 hPa
2024-06-27 04:13:05 22.22 ℃ 100 % 1010.07 hPa
2024-06-27 04:03:05 22.46 ℃ 100 % 1010.14 hPa
2024-06-27 03:53:05 22.49 ℃ 100 % 1010.27 hPa
2024-06-27 03:43:05 22.77 ℃ 100 % 1010.39 hPa
2024-06-27 03:33:05 22.73 ℃ 100 % 1010.49 hPa
2024-06-27 03:23:05 22.81 ℃ 100 % 1010.59 hPa
2024-06-27 03:13:05 22.85 ℃ 100 % 1010.68 hPa
2024-06-27 03:03:05 22.95 ℃ 100 % 1010.8 hPa
2024-06-27 02:53:05 23.09 ℃ 100 % 1010.91 hPa
2024-06-27 02:43:05 23.35 ℃ 100 % 1011.01 hPa
2024-06-27 02:33:05 23.25 ℃ 100 % 1011.13 hPa
2024-06-27 02:23:05 23.64 ℃ 100 % 1011.21 hPa
2024-06-27 02:13:05 23.11 ℃ 100 % 1011.33 hPa
2024-06-27 02:03:05 23.27 ℃ 100 % 1011.38 hPa
2024-06-27 01:53:05 23.27 ℃ 100 % 1011.46 hPa
2024-06-27 01:43:05 23.52 ℃ 100 % 1011.49 hPa
2024-06-27 01:33:05 23.51 ℃ 100 % 1011.55 hPa
2024-06-27 01:23:05 23.62 ℃ 100 % 1011.57 hPa
2024-06-27 01:13:05 23.73 ℃ 100 % 1011.61 hPa
2024-06-27 01:03:05 23.61 ℃ 100 % 1011.68 hPa
2024-06-27 00:53:05 23.41 ℃ 100 % 1011.77 hPa
2024-06-27 00:43:05 23.55 ℃ 100 % 1011.82 hPa
2024-06-27 00:33:05 23.45 ℃ 100 % 1011.85 hPa
2024-06-27 00:23:05 23.35 ℃ 100 % 1011.85 hPa
2024-06-27 00:13:05 23.34 ℃ 100 % 1011.87 hPa
2024-06-27 00:03:05 23.55 ℃ 100 % 1011.84 hPa
2024-06-26 23:53:05 23.75 ℃ 100 % 1011.85 hPa
2024-06-26 23:43:05 23.88 ℃ 100 % 1011.87 hPa
2024-06-26 23:33:05 23.85 ℃ 100 % 1011.89 hPa
2024-06-26 23:23:05 23.76 ℃ 100 % 1012.02 hPa
2024-06-26 23:13:05 24.07 ℃ 100 % 1012 hPa
2024-06-26 23:03:05 23.95 ℃ 100 % 1011.98 hPa
2024-06-26 22:53:05 24.16 ℃ 100 % 1011.98 hPa
2024-06-26 22:43:05 24.26 ℃ 100 % 1012.01 hPa
2024-06-26 22:33:06 24.24 ℃ 100 % 1012.04 hPa
2024-06-26 22:23:05 24.4 ℃ 100 % 1012.01 hPa
2024-06-26 22:13:06 24.33 ℃ 100 % 1011.96 hPa
2024-06-26 22:03:06 24.4 ℃ 100 % 1011.95 hPa
2024-06-26 21:53:06 24.73 ℃ 100 % 1011.94 hPa
2024-06-26 21:43:06 24.83 ℃ 100 % 1011.91 hPa
2024-06-26 21:33:06 25.31 ℃ 100 % 1011.85 hPa
2024-06-26 21:23:06 25.58 ℃ 100 % 1011.78 hPa
2024-06-26 21:13:06 25.65 ℃ 100 % 1011.8 hPa
2024-06-26 21:03:06 25.57 ℃ 100 % 1011.8 hPa
2024-06-26 20:53:06 25.43 ℃ 100 % 1011.84 hPa
2024-06-26 20:43:06 25.7 ℃ 100 % 1011.81 hPa
2024-06-26 20:33:06 25.99 ℃ 100 % 1011.82 hPa
2024-06-26 20:23:06 26.43 ℃ 100 % 1011.78 hPa
2024-06-26 20:13:06 26.49 ℃ 100 % 1011.87 hPa
2024-06-26 20:03:06 26.63 ℃ 100 % 1011.96 hPa
2024-06-26 19:53:06 26.73 ℃ 100 % 1011.95 hPa
2024-06-26 19:43:06 26.71 ℃ 100 % 1011.97 hPa
2024-06-26 19:33:06 26.74 ℃ 100 % 1012 hPa
2024-06-26 19:23:06 26.49 ℃ 100 % 1012.11 hPa
2024-06-26 19:13:06 26.58 ℃ 100 % 1012.13 hPa
2024-06-26 19:03:06 26.56 ℃ 100 % 1012.2 hPa
2024-06-26 18:53:06 26.69 ℃ 100 % 1012.27 hPa
2024-06-26 18:43:06 26.92 ℃ 100 % 1012.28 hPa
2024-06-26 18:33:06 26.92 ℃ 100 % 1012.33 hPa
2024-06-26 18:23:06 27.04 ℃ 100 % 1012.34 hPa
2024-06-26 18:13:06 27.22 ℃ 100 % 1012.35 hPa
2024-06-26 18:03:06 27.08 ℃ 100 % 1012.43 hPa
2024-06-26 17:53:06 27.11 ℃ 100 % 1012.52 hPa
2024-06-26 17:43:06 27.1 ℃ 100 % 1012.61 hPa
2024-06-26 17:33:06 27.01 ℃ 100 % 1012.79 hPa
2024-06-26 17:23:06 27.16 ℃ 100 % 1012.95 hPa
2024-06-26 17:13:06 27.24 ℃ 100 % 1012.96 hPa
2024-06-26 17:03:06 27.04 ℃ 100 % 1013.01 hPa
2024-06-26 16:53:06 27.15 ℃ 100 % 1013.03 hPa
2024-06-26 16:43:06 27.15 ℃ 100 % 1013.04 hPa
2024-06-26 16:33:06 27.13 ℃ 100 % 1013.07 hPa
2024-06-26 16:23:06 27.12 ℃ 100 % 1013.17 hPa
2024-06-26 16:13:06 27.5 ℃ 100 % 1013.2 hPa
2024-06-26 16:03:06 27.57 ℃ 100 % 1013.28 hPa
2024-06-26 15:53:06 27.37 ℃ 100 % 1013.4 hPa
2024-06-26 15:43:06 27.12 ℃ 100 % 1013.53 hPa
2024-06-26 15:33:06 27.24 ℃ 100 % 1013.63 hPa
2024-06-26 15:23:06 27.37 ℃ 100 % 1013.66 hPa
2024-06-26 15:13:06 27.31 ℃ 100 % 1013.67 hPa
2024-06-26 15:03:06 27.49 ℃ 100 % 1013.77 hPa
2024-06-26 14:53:06 27.49 ℃ 100 % 1013.84 hPa
2024-06-26 14:43:06 27.03 ℃ 100 % 1013.92 hPa
2024-06-26 14:33:06 27.02 ℃ 100 % 1013.98 hPa
2024-06-26 14:23:06 26.89 ℃ 100 % 1014.11 hPa
2024-06-26 14:13:06 27.05 ℃ 100 % 1014.2 hPa
2024-06-26 14:03:06 26.87 ℃ 100 % 1014.31 hPa
2024-06-26 13:53:06 26.97 ℃ 100 % 1014.28 hPa
2024-06-26 13:43:06 27.21 ℃ 100 % 1014.3 hPa
2024-06-26 13:33:06 27.13 ℃ 100 % 1014.37 hPa
2024-06-26 13:23:06 27.28 ℃ 100 % 1014.44 hPa
2024-06-26 13:13:06 27.02 ℃ 100 % 1014.55 hPa
2024-06-26 13:03:06 27.32 ℃ 100 % 1014.62 hPa
2024-06-26 12:53:06 27.16 ℃ 100 % 1014.66 hPa
2024-06-26 12:43:06 26.87 ℃ 100 % 1014.72 hPa
2024-06-26 12:33:06 26.87 ℃ 100 % 1014.79 hPa
2024-06-26 12:23:06 26.78 ℃ 100 % 1014.85 hPa
2024-06-26 12:13:06 26.41 ℃ 100 % 1014.95 hPa
2024-06-26 12:03:06 26.27 ℃ 100 % 1014.97 hPa
2024-06-26 11:53:06 26.39 ℃ 100 % 1014.98 hPa
2024-06-26 11:43:06 26.63 ℃ 100 % 1015.02 hPa
2024-06-26 11:33:06 26.27 ℃ 100 % 1015.08 hPa
2024-06-26 11:23:06 26.43 ℃ 100 % 1015.1 hPa
2024-06-26 11:13:06 26.39 ℃ 100 % 1015.07 hPa
2024-06-26 11:03:06 26.53 ℃ 100 % 1015.09 hPa
2024-06-26 10:53:06 26.44 ℃ 100 % 1015.12 hPa
2024-06-26 10:43:06 26.75 ℃ 100 % 1015.18 hPa
2024-06-26 10:33:06 26.22 ℃ 100 % 1015.23 hPa
2024-06-26 10:23:06 26.5 ℃ 100 % 1015.24 hPa
2024-06-26 10:13:07 26.92 ℃ 100 % 1015.28 hPa
2024-06-26 10:03:07 26.62 ℃ 100 % 1015.32 hPa
2024-06-26 09:53:07 26.48 ℃ 100 % 1015.33 hPa
2024-06-26 09:43:07 26.37 ℃ 100 % 1015.36 hPa
2024-06-26 09:33:07 26.6 ℃ 100 % 1015.44 hPa
2024-06-26 09:23:07 25.84 ℃ 100 % 1015.47 hPa
2024-06-26 09:13:07 25.46 ℃ 100 % 1015.54 hPa
2024-06-26 09:03:07 25.86 ℃ 100 % 1015.58 hPa
2024-06-26 08:53:07 25.23 ℃ 100 % 1015.6 hPa
2024-06-26 08:43:07 25 ℃ 100 % 1015.62 hPa
2024-06-26 08:33:07 24.89 ℃ 100 % 1015.66 hPa
2024-06-26 08:23:07 26 ℃ 100 % 1015.72 hPa
2024-06-26 08:13:07 26.51 ℃ 100 % 1015.78 hPa
2024-06-26 08:03:07 26.08 ℃ 100 % 1015.78 hPa
2024-06-26 07:53:07 25.66 ℃ 100 % 1015.76 hPa
2024-06-26 07:43:07 25.19 ℃ 100 % 1015.75 hPa
2024-06-26 07:33:08 24.71 ℃ 100 % 1015.74 hPa
2024-06-25 23:50:38 20.76 ℃ 100 % 1017.19 hPa
2024-06-25 23:40:38 20.92 ℃ 100 % 1017.22 hPa
2024-06-25 23:30:38 21.03 ℃ 100 % 1017.26 hPa
2024-06-25 23:20:38 21.09 ℃ 100 % 1017.27 hPa
2024-06-25 23:10:39 21.21 ℃ 100 % 1017.27 hPa
2024-06-25 23:00:38 21.36 ℃ 100 % 1017.3 hPa
2024-06-25 22:50:39 21.39 ℃ 100 % 1017.3 hPa
2024-06-25 22:40:39 21.55 ℃ 100 % 1017.32 hPa
2024-06-25 22:30:39 21.71 ℃ 100 % 1017.33 hPa
2024-06-25 22:20:38 21.74 ℃ 100 % 1017.32 hPa
2024-06-25 22:10:39 21.88 ℃ 100 % 1017.29 hPa
2024-06-25 22:00:39 22.05 ℃ 100 % 1017.27 hPa
2024-06-25 21:50:39 22.36 ℃ 100 % 1017.24 hPa
2024-06-25 21:40:38 22.72 ℃ 100 % 1017.18 hPa
2024-06-25 21:30:39 22.99 ℃ 100 % 1017.13 hPa
2024-06-25 21:20:39 23 ℃ 100 % 1017.14 hPa
2024-06-25 21:10:39 23.2 ℃ 100 % 1017.14 hPa
2024-06-25 21:00:39 23.05 ℃ 100 % 1017.13 hPa
2024-06-25 20:50:39 23.38 ℃ 100 % 1017.1 hPa
2024-06-25 20:40:39 23.87 ℃ 100 % 1017.09 hPa
2024-06-25 20:30:39 23.97 ℃ 100 % 1017.12 hPa
2024-06-25 20:20:39 24.07 ℃ 100 % 1017.12 hPa
2024-06-25 20:10:39 24.33 ℃ 100 % 1017.15 hPa
2024-06-25 20:00:39 24.17 ℃ 100 % 1017.26 hPa
2024-06-25 19:50:39 23.99 ℃ 100 % 1017.31 hPa
2024-06-25 19:40:39 24.12 ℃ 100 % 1017.32 hPa
2024-06-25 19:30:39 24.34 ℃ 100 % 1017.32 hPa
2024-06-25 19:20:39 24.14 ℃ 100 % 1017.31 hPa
2024-06-25 19:10:39 24.41 ℃ 100 % 1017.31 hPa
2024-06-25 19:00:39 24.71 ℃ 100 % 1017.32 hPa
2024-06-25 18:50:39 24.75 ℃ 100 % 1017.38 hPa
2024-06-25 18:40:39 24.59 ℃ 100 % 1017.49 hPa
2024-06-25 18:30:39 24.57 ℃ 100 % 1017.57 hPa
2024-06-25 18:20:39 24.32 ℃ 100 % 1017.69 hPa
2024-06-25 18:10:39 24.36 ℃ 100 % 1017.75 hPa
2024-06-25 18:00:39 24.42 ℃ 100 % 1017.77 hPa
2024-06-25 17:50:39 24.19 ℃ 100 % 1017.89 hPa
2024-06-25 17:40:39 24.35 ℃ 100 % 1017.97 hPa
2024-06-25 17:30:39 24.38 ℃ 100 % 1018.13 hPa
2024-06-25 17:20:39 24.27 ℃ 100 % 1018.15 hPa
2024-06-25 17:10:39 24.58 ℃ 100 % 1018.2 hPa
2024-06-25 17:00:39 24.61 ℃ 100 % 1018.24 hPa
2024-06-25 16:50:39 24.48 ℃ 100 % 1018.31 hPa
2024-06-25 16:40:39 24.3 ℃ 100 % 1018.43 hPa
2024-06-25 16:30:39 24.56 ℃ 100 % 1018.5 hPa
2024-06-25 16:20:39 24.59 ℃ 100 % 1018.56 hPa
2024-06-25 16:10:39 24.44 ℃ 100 % 1018.69 hPa
2024-06-25 16:00:39 24.34 ℃ 100 % 1018.79 hPa
2024-06-25 15:50:39 24.45 ℃ 100 % 1018.78 hPa
2024-06-25 15:40:39 24.7 ℃ 100 % 1018.82 hPa
2024-06-25 15:30:39 24.5 ℃ 100 % 1018.89 hPa
2024-06-25 15:20:39 24.72 ℃ 100 % 1018.92 hPa
2024-06-25 15:10:39 24.42 ℃ 100 % 1019.03 hPa
2024-06-25 15:00:39 24.46 ℃ 100 % 1019.09 hPa
2024-06-25 14:50:39 24.77 ℃ 100 % 1019.18 hPa
2024-06-25 14:40:39 24.76 ℃ 100 % 1019.22 hPa
2024-06-25 14:30:39 24.87 ℃ 100 % 1019.21 hPa
2024-06-25 14:20:39 24.56 ℃ 100 % 1019.27 hPa
2024-06-25 14:10:39 24.63 ℃ 100 % 1019.34 hPa
2024-06-25 14:00:39 24.28 ℃ 100 % 1019.42 hPa
2024-06-25 13:50:39 24.13 ℃ 100 % 1019.4 hPa
2024-06-25 13:40:39 24.23 ℃ 100 % 1019.5 hPa
2024-06-25 13:30:39 24.12 ℃ 100 % 1019.58 hPa
2024-06-25 13:20:39 23.84 ℃ 100 % 1019.66 hPa
2024-06-25 13:10:39 24.06 ℃ 100 % 1019.61 hPa
2024-06-25 13:00:39 24.27 ℃ 100 % 1019.56 hPa
2024-06-25 12:50:39 24.44 ℃ 100 % 1019.57 hPa
2024-06-25 12:40:39 24.95 ℃ 100 % 1019.57 hPa
2024-06-25 12:30:39 25.76 ℃ 100 % 1019.61 hPa
2024-06-25 12:20:39 25.45 ℃ 100 % 1019.63 hPa
2024-06-25 12:10:39 24.75 ℃ 100 % 1019.68 hPa
2024-06-25 12:00:39 25.52 ℃ 100 % 1019.64 hPa
2024-06-25 11:50:40 24.92 ℃ 100 % 1019.68 hPa
2024-06-25 11:40:39 24.15 ℃ 100 % 1019.74 hPa
2024-06-25 11:30:39 24.31 ℃ 100 % 1019.77 hPa
2024-06-25 11:20:39 24.6 ℃ 100 % 1019.78 hPa
2024-06-25 11:10:39 24.14 ℃ 100 % 1019.79 hPa
2024-06-25 11:00:39 24.29 ℃ 100 % 1019.83 hPa
2024-06-25 10:50:39 24.66 ℃ 100 % 1019.85 hPa
2024-06-25 10:40:39 24.41 ℃ 100 % 1019.86 hPa
2024-06-25 10:30:39 24.06 ℃ 100 % 1019.92 hPa
2024-06-25 10:20:39 23.49 ℃ 100 % 1019.96 hPa
2024-06-25 10:10:40 23.64 ℃ 100 % 1019.96 hPa
2024-06-25 10:00:39 23.06 ℃ 100 % 1019.96 hPa
2024-06-25 09:50:40 22.91 ℃ 100 % 1019.97 hPa
2024-06-25 09:40:40 22.69 ℃ 100 % 1020.03 hPa
2024-06-25 09:30:40 23.05 ℃ 100 % 1020.09 hPa
2024-06-25 09:20:40 22.37 ℃ 100 % 1020.15 hPa
2024-06-25 09:10:40 22.28 ℃ 100 % 1020.19 hPa
2024-06-25 09:00:40 22.35 ℃ 100 % 1020.2 hPa
2024-06-25 08:50:40 22.64 ℃ 100 % 1020.16 hPa
2024-06-25 08:40:40 23.1 ℃ 100 % 1020.17 hPa
2024-06-25 08:30:40 22.27 ℃ 100 % 1020.17 hPa
2024-06-25 08:20:40 22.13 ℃ 100 % 1020.17 hPa
2024-06-25 08:10:40 22.39 ℃ 100 % 1020.1 hPa
2024-06-25 08:00:41 22.31 ℃ 100 % 1020.08 hPa
2024-06-25 07:50:40 22.74 ℃ 100 % 1020.04 hPa
2024-06-25 07:40:40 21.91 ℃ 100 % 1020.07 hPa
2024-06-25 07:30:40 21.91 ℃ 100 % 1020.05 hPa
2024-06-25 07:20:40 21.19 ℃ 100 % 1020.07 hPa
2024-06-25 07:10:40 20.77 ℃ 100 % 1020.06 hPa
2024-06-25 07:00:40 22.01 ℃ 100 % 1020.05 hPa
2024-06-25 06:50:40 22.43 ℃ 100 % 1020.04 hPa
2024-06-25 06:40:40 21.87 ℃ 100 % 1020.08 hPa
2024-06-25 06:30:40 21.79 ℃ 100 % 1020.14 hPa
2024-06-25 06:20:40 21.78 ℃ 100 % 1020.15 hPa
2024-06-25 06:10:40 22.2 ℃ 100 % 1020.09 hPa
2024-06-25 06:00:40 21.28 ℃ 100 % 1020.12 hPa
2024-06-25 05:50:40 19.76 ℃ 100 % 1020.2 hPa
2024-06-25 05:40:40 20.11 ℃ 100 % 1020.22 hPa
2024-06-25 05:30:40 20.59 ℃ 100 % 1020.21 hPa
2024-06-25 05:20:40 19.89 ℃ 100 % 1020.23 hPa
2024-06-25 05:10:40 19.53 ℃ 100 % 1020.24 hPa
2024-06-25 05:00:40 19.66 ℃ 100 % 1020.22 hPa
2024-06-25 04:50:40 19.24 ℃ 100 % 1020.2 hPa
2024-06-25 04:40:40 19.61 ℃ 100 % 1020.18 hPa
2024-06-25 04:30:40 20.18 ℃ 100 % 1020.16 hPa
2024-06-25 04:20:40 20.78 ℃ 100 % 1020.12 hPa
2024-06-25 04:10:40 21.06 ℃ 100 % 1020.12 hPa
2024-06-25 04:00:40 20.99 ℃ 100 % 1020.11 hPa
2024-06-25 03:50:40 21.57 ℃ 100 % 1020.09 hPa
2024-06-25 03:40:40 21.06 ℃ 100 % 1020.17 hPa
2024-06-25 03:30:40 21.19 ℃ 100 % 1020.24 hPa
2024-06-25 03:20:40 21.66 ℃ 100 % 1020.31 hPa
2024-06-25 03:10:40 21.34 ℃ 100 % 1020.37 hPa
2024-06-25 03:00:40 21.22 ℃ 100 % 1020.43 hPa
2024-06-25 02:50:40 21.17 ℃ 100 % 1020.46 hPa
2024-06-25 02:40:40 21.54 ℃ 100 % 1020.5 hPa
2024-06-25 02:30:40 21.41 ℃ 100 % 1020.53 hPa
2024-06-25 02:20:40 21.98 ℃ 100 % 1020.56 hPa
2024-06-25 02:10:40 21.83 ℃ 100 % 1020.6 hPa
2024-06-25 02:00:40 20.96 ℃ 100 % 1020.69 hPa
2024-06-25 01:50:40 20.57 ℃ 100 % 1020.7 hPa
2024-06-25 01:40:40 20.03 ℃ 100 % 1020.73 hPa
2024-06-25 01:30:40 20.35 ℃ 100 % 1020.76 hPa
2024-06-25 01:20:40 20.82 ℃ 100 % 1020.79 hPa
2024-06-25 01:10:40 20.88 ℃ 100 % 1020.83 hPa
2024-06-25 01:00:40 21.09 ℃ 100 % 1020.83 hPa
2024-06-25 00:50:40 21.13 ℃ 100 % 1020.9 hPa
2024-06-25 00:40:40 21.26 ℃ 100 % 1020.96 hPa
2024-06-25 00:30:40 21.33 ℃ 100 % 1020.98 hPa
2024-06-25 00:20:40 20.89 ℃ 100 % 1020.99 hPa
2024-06-25 00:10:40 20.79 ℃ 100 % 1021 hPa
2024-06-25 00:00:40 20.86 ℃ 100 % 1021 hPa
2024-06-24 23:50:40 20.91 ℃ 100 % 1020.96 hPa
2024-06-24 23:40:40 20.99 ℃ 100 % 1020.93 hPa
2024-06-24 23:30:40 21.11 ℃ 100 % 1020.9 hPa
2024-06-24 23:20:40 21.5 ℃ 100 % 1020.88 hPa
2024-06-24 23:10:40 21.79 ℃ 100 % 1020.83 hPa
2024-06-24 23:00:40 21.91 ℃ 100 % 1020.75 hPa
2024-06-24 22:50:40 21.97 ℃ 100 % 1020.69 hPa
2024-06-24 22:40:40 21.21 ℃ 100 % 1020.73 hPa
2024-06-24 22:30:40 21.62 ℃ 100 % 1020.76 hPa
2024-06-24 22:20:40 21.68 ℃ 100 % 1020.75 hPa
2024-06-24 22:10:40 22.02 ℃ 100 % 1020.67 hPa
2024-06-24 22:00:41 21.8 ℃ 100 % 1020.59 hPa
2024-06-24 21:50:40 21.78 ℃ 100 % 1020.5 hPa
2024-06-24 21:40:41 21.68 ℃ 100 % 1020.44 hPa
2024-06-24 21:30:40 21.69 ℃ 100 % 1020.35 hPa
2024-06-24 21:20:41 21.53 ℃ 100 % 1020.32 hPa
2024-06-24 21:14:12 0 ℃ 100 % 1020.3 hPa
2024-06-24 21:04:12 0 ℃ 100 % 1020.31 hPa
2024-06-24 20:54:12 0 ℃ 100 % 1020.34 hPa
2024-06-24 20:44:12 0 ℃ 100 % 1020.38 hPa
2024-06-24 20:34:12 0 ℃ 100 % 1020.41 hPa
2024-06-24 20:24:12 0 ℃ 100 % 1020.42 hPa
2024-06-24 20:14:12 0 ℃ 100 % 1020.39 hPa
2024-06-24 20:04:12 0 ℃ 100 % 1020.43 hPa
2024-06-24 19:54:12 0 ℃ 100 % 1020.42 hPa
2024-06-24 19:44:12 0 ℃ 100 % 1020.4 hPa
2024-06-24 19:34:12 0 ℃ 100 % 1020.42 hPa
2024-06-24 19:24:12 0 ℃ 100 % 1020.4 hPa
2024-06-24 19:14:12 0 ℃ 100 % 1020.38 hPa
2024-06-24 19:04:12 0 ℃ 100 % 1020.37 hPa
2024-06-24 18:54:12 0 ℃ 100 % 1020.39 hPa
2024-06-24 18:44:12 0 ℃ 100 % 1020.42 hPa
2024-06-24 18:34:12 0 ℃ 100 % 1020.38 hPa
2024-06-24 18:24:12 0 ℃ 100 % 1020.38 hPa
2024-06-24 18:14:12 0 ℃ 100 % 1020.39 hPa
2024-06-24 18:04:12 0 ℃ 100 % 1020.42 hPa
2024-06-24 17:54:12 0 ℃ 100 % 1020.44 hPa
2024-06-24 17:44:12 0 ℃ 100 % 1020.41 hPa
2024-06-24 17:34:12 0 ℃ 100 % 1020.44 hPa
2024-06-24 17:24:12 0 ℃ 100 % 1020.43 hPa
2024-06-24 17:14:12 0 ℃ 100 % 1020.48 hPa
2024-06-24 17:04:12 0 ℃ 100 % 1020.44 hPa
2024-06-24 16:54:12 0 ℃ 100 % 1020.43 hPa
2024-06-24 16:44:12 0 ℃ 100 % 1020.43 hPa
2024-06-24 16:34:12 0 ℃ 100 % 1020.48 hPa
2024-06-24 16:24:12 0 ℃ 100 % 1020.54 hPa
2024-06-24 16:14:12 0 ℃ 100 % 1020.61 hPa
2024-06-24 16:04:12 0 ℃ 100 % 1020.66 hPa
2024-06-24 15:54:12 0 ℃ 100 % 1020.7 hPa
2024-06-24 15:44:12 0 ℃ 100 % 1020.7 hPa
2024-06-24 15:34:12 0 ℃ 100 % 1020.74 hPa
2024-06-24 15:24:12 0 ℃ 100 % 1020.71 hPa
2024-06-24 15:14:12 0 ℃ 100 % 1020.75 hPa
2024-06-24 15:04:12 0 ℃ 100 % 1020.78 hPa
2024-06-24 14:54:12 0 ℃ 100 % 1020.82 hPa
2024-06-24 14:44:12 0 ℃ 100 % 1020.87 hPa
2024-06-24 14:34:12 0 ℃ 100 % 1020.89 hPa
2024-06-24 14:24:12 0 ℃ 100 % 1020.97 hPa
2024-06-24 14:14:12 0 ℃ 100 % 1021.06 hPa
2024-06-24 14:04:12 0 ℃ 100 % 1021.09 hPa
2024-06-24 13:54:12 0 ℃ 100 % 1021.11 hPa
2024-06-24 13:44:12 0 ℃ 100 % 1021.12 hPa
2024-06-24 13:34:12 0 ℃ 100 % 1021.14 hPa
2024-06-24 13:24:12 0 ℃ 100 % 1021.16 hPa
2024-06-24 13:14:12 0 ℃ 100 % 1021.19 hPa
2024-06-24 13:04:12 0 ℃ 100 % 1021.26 hPa
2024-06-24 12:54:12 0 ℃ 100 % 1021.26 hPa
2024-06-24 12:44:12 0 ℃ 100 % 1021.27 hPa
2024-06-24 12:34:12 0 ℃ 100 % 1021.27 hPa
2024-06-24 12:24:12 0 ℃ 100 % 1021.27 hPa
2024-06-24 12:14:12 0 ℃ 100 % 1021.35 hPa
2024-06-24 12:04:12 0 ℃ 100 % 1021.44 hPa
2024-06-24 11:54:12 0 ℃ 100 % 1021.51 hPa
2024-06-24 11:44:12 0 ℃ 100 % 1021.51 hPa
2024-06-24 11:34:12 0 ℃ 100 % 1021.57 hPa
2024-06-24 11:24:12 0 ℃ 100 % 1021.61 hPa
2024-06-24 11:14:12 0 ℃ 100 % 1021.6 hPa
2024-06-24 11:04:12 0 ℃ 100 % 1021.64 hPa
2024-06-24 10:54:12 0 ℃ 100 % 1021.64 hPa
2024-06-24 10:44:12 0 ℃ 100 % 1021.65 hPa
2024-06-24 10:34:12 0 ℃ 100 % 1021.64 hPa
2024-06-24 10:24:12 0 ℃ 100 % 1021.67 hPa
2024-06-24 10:14:12 0 ℃ 100 % 1021.7 hPa
2024-06-24 10:04:13 0 ℃ 100 % 1021.64 hPa
2024-06-24 09:54:12 0 ℃ 100 % 1021.61 hPa
2024-06-24 09:44:12 0 ℃ 100 % 1021.51 hPa
2024-06-24 09:34:12 0 ℃ 100 % 1021.47 hPa
2024-06-24 09:24:12 0 ℃ 100 % 1021.49 hPa
2024-06-24 09:14:12 0 ℃ 100 % 1021.45 hPa
2024-06-24 09:04:12 0 ℃ 100 % 1021.44 hPa
2024-06-24 08:54:12 0 ℃ 100 % 1021.41 hPa
2024-06-24 08:44:13 0 ℃ 100 % 1021.4 hPa
2024-06-24 08:34:13 0 ℃ 100 % 1021.4 hPa
2024-06-24 08:24:13 0 ℃ 100 % 1021.35 hPa
2024-06-24 08:14:13 0 ℃ 100 % 1021.33 hPa
2024-06-24 08:04:13 0 ℃ 100 % 1021.25 hPa
2024-06-24 07:54:13 0 ℃ 100 % 1021.17 hPa
2024-06-24 07:44:13 0 ℃ 100 % 1021.1 hPa
2024-06-24 07:34:13 0 ℃ 100 % 1021.01 hPa
2024-06-24 07:24:13 0 ℃ 100 % 1020.98 hPa
2024-06-24 07:14:13 0 ℃ 100 % 1020.98 hPa
2024-06-24 07:04:13 0 ℃ 100 % 1020.94 hPa
2024-06-24 06:54:13 0 ℃ 100 % 1020.87 hPa
2024-06-24 06:44:13 0 ℃ 100 % 1020.87 hPa
2024-06-24 06:34:13 0 ℃ 100 % 1020.8 hPa
2024-06-24 06:24:13 0 ℃ 100 % 1020.73 hPa
2024-06-24 06:14:13 0 ℃ 100 % 1020.64 hPa
2024-06-24 06:04:13 0 ℃ 100 % 1020.59 hPa
2024-06-24 05:54:13 0 ℃ 100 % 1020.61 hPa
2024-06-24 05:44:13 0 ℃ 100 % 1020.59 hPa
2024-06-24 05:34:13 0 ℃ 100 % 1020.55 hPa
2024-06-24 05:24:13 0 ℃ 100 % 1020.52 hPa
2024-06-24 05:14:13 0 ℃ 100 % 1020.5 hPa
2024-06-24 05:04:13 0 ℃ 100 % 1020.48 hPa
2024-06-24 04:54:13 0 ℃ 100 % 1020.44 hPa
2024-06-24 04:44:13 0 ℃ 100 % 1020.41 hPa
2024-06-24 04:34:13 0 ℃ 100 % 1020.42 hPa
2024-06-24 04:24:13 0 ℃ 100 % 1020.41 hPa
2024-06-24 04:14:13 0 ℃ 100 % 1020.42 hPa
2024-06-24 04:04:13 0 ℃ 100 % 1020.44 hPa
2024-06-24 03:54:13 0 ℃ 100 % 1020.41 hPa
2024-06-24 03:44:13 0 ℃ 100 % 1020.37 hPa
2024-06-24 03:34:13 0 ℃ 100 % 1020.36 hPa
2024-06-24 03:24:13 0 ℃ 100 % 1020.33 hPa
2024-06-24 03:14:13 0 ℃ 100 % 1020.34 hPa
2024-06-24 03:04:13 0 ℃ 100 % 1020.35 hPa
2024-06-24 02:54:13 0 ℃ 100 % 1020.4 hPa
2024-06-24 02:44:13 0 ℃ 100 % 1020.36 hPa
2024-06-24 02:34:13 0 ℃ 100 % 1020.32 hPa
2024-06-24 02:24:13 0 ℃ 100 % 1020.32 hPa
2024-06-24 02:14:13 0 ℃ 100 % 1020.28 hPa
2024-06-24 02:04:13 0 ℃ 100 % 1020.26 hPa
2024-06-24 01:54:13 0 ℃ 100 % 1020.25 hPa
2024-06-24 01:44:13 0 ℃ 100 % 1020.19 hPa
2024-06-24 01:34:13 0 ℃ 100 % 1020.2 hPa
2024-06-24 01:24:13 0 ℃ 100 % 1020.17 hPa
2024-06-24 01:14:13 0 ℃ 100 % 1020.19 hPa
2024-06-24 01:04:13 0 ℃ 100 % 1020.15 hPa
2024-06-24 00:54:13 0 ℃ 100 % 1020.11 hPa
2024-06-24 00:44:13 0 ℃ 100 % 1020.09 hPa
2024-06-24 00:34:13 0 ℃ 100 % 1020.07 hPa
2024-06-24 00:24:13 0 ℃ 100 % 1020.12 hPa
2024-06-24 00:14:13 0 ℃ 100 % 1020.15 hPa
2024-06-24 00:04:13 0 ℃ 100 % 1020.1 hPa
2024-06-23 23:54:13 0 ℃ 100 % 1020.09 hPa
2024-06-23 23:44:13 0 ℃ 100 % 1020.07 hPa
2024-06-23 23:34:13 0 ℃ 100 % 1020 hPa
2024-06-23 23:24:13 0 ℃ 100 % 1019.98 hPa
2024-06-23 23:14:13 0 ℃ 100 % 1019.95 hPa
2024-06-23 23:04:13 0 ℃ 100 % 1019.95 hPa
2024-06-23 22:54:13 0 ℃ 100 % 1019.93 hPa
2024-06-23 22:44:13 0 ℃ 100 % 1019.87 hPa
2024-06-23 22:34:13 0 ℃ 100 % 1019.79 hPa
2024-06-23 22:24:13 0 ℃ 100 % 1019.71 hPa
2024-06-23 22:14:13 0 ℃ 100 % 1019.72 hPa
2024-06-23 22:04:13 0 ℃ 100 % 1019.69 hPa
2024-06-23 21:54:13 0 ℃ 100 % 1019.64 hPa
2024-06-23 21:44:13 0 ℃ 100 % 1019.59 hPa
2024-06-23 21:34:13 0 ℃ 100 % 1019.59 hPa
2024-06-23 21:24:13 0 ℃ 100 % 1019.57 hPa
2024-06-23 21:14:13 0 ℃ 100 % 1019.52 hPa
2024-06-23 21:04:14 0 ℃ 100 % 1019.46 hPa
2024-06-23 20:54:14 0 ℃ 100 % 1019.4 hPa
2024-06-23 20:44:14 0 ℃ 100 % 1019.37 hPa
2024-06-23 20:34:14 0 ℃ 100 % 1019.33 hPa
2024-06-23 20:24:14 0 ℃ 100 % 1019.3 hPa
2024-06-23 20:14:14 0 ℃ 100 % 1019.29 hPa
2024-06-23 20:04:14 0 ℃ 100 % 1019.25 hPa
2024-06-23 19:54:14 0 ℃ 100 % 1019.17 hPa
2024-06-23 19:44:14 0 ℃ 100 % 1019.07 hPa
2024-06-23 19:34:14 0 ℃ 100 % 1019.02 hPa
2024-06-23 19:24:14 0 ℃ 100 % 1018.99 hPa
2024-06-23 19:14:14 0 ℃ 100 % 1018.94 hPa
2024-06-23 19:04:14 0 ℃ 100 % 1018.91 hPa
2024-06-23 18:54:14 0 ℃ 100 % 1018.97 hPa
2024-06-23 18:44:14 0 ℃ 100 % 1019.06 hPa
2024-06-23 18:34:14 22.64 ℃ 100 % 1018.89 hPa
2024-06-23 18:24:14 22.82 ℃ 100 % 1018.89 hPa
2024-06-23 18:14:14 23.02 ℃ 100 % 1018.85 hPa
2024-06-23 18:04:14 23.05 ℃ 100 % 1018.82 hPa
2024-06-23 17:54:14 23.06 ℃ 100 % 1018.83 hPa
2024-06-23 17:44:14 22.96 ℃ 100 % 1018.79 hPa
2024-06-23 17:34:14 22.94 ℃ 100 % 1018.74 hPa
2024-06-23 17:24:14 23.08 ℃ 100 % 1018.65 hPa
2024-06-23 17:14:14 23.47 ℃ 100 % 1018.59 hPa
2024-06-23 17:04:14 23.53 ℃ 100 % 1018.58 hPa
2024-06-23 16:54:14 23.38 ℃ 100 % 1018.53 hPa
2024-06-23 16:44:14 23.45 ℃ 100 % 1018.53 hPa
2024-06-23 16:34:14 23.46 ℃ 100 % 1018.52 hPa
2024-06-23 16:24:14 23.72 ℃ 100 % 1018.46 hPa
2024-06-23 16:14:14 23.64 ℃ 100 % 1018.43 hPa
2024-06-23 16:04:14 23.74 ℃ 100 % 1018.36 hPa
2024-06-23 15:54:14 23.73 ℃ 100 % 1018.29 hPa
2024-06-23 15:44:14 23.66 ℃ 100 % 1018.22 hPa
2024-06-23 15:34:14 23.78 ℃ 100 % 1018.17 hPa
2024-06-23 15:24:14 23.88 ℃ 100 % 1018.11 hPa
2024-06-23 15:14:14 24.11 ℃ 100 % 1018.03 hPa
2024-06-23 15:04:14 23.74 ℃ 100 % 1018.03 hPa
2024-06-23 14:54:14 23.67 ℃ 100 % 1018.04 hPa
2024-06-23 14:44:14 23.42 ℃ 100 % 1018.02 hPa
2024-06-23 14:34:14 23.56 ℃ 100 % 1018.02 hPa
2024-06-23 14:24:14 23.58 ℃ 100 % 1018.08 hPa
2024-06-23 14:14:14 23.72 ℃ 100 % 1018.09 hPa
2024-06-23 14:04:14 23.27 ℃ 100 % 1018.11 hPa
2024-06-23 13:54:14 23.31 ℃ 100 % 1018.06 hPa
2024-06-23 13:44:14 23.18 ℃ 100 % 1018.09 hPa
2024-06-23 13:34:14 23.22 ℃ 100 % 1018.06 hPa
2024-06-23 13:24:14 23.2 ℃ 100 % 1018.06 hPa
2024-06-23 13:14:14 23.14 ℃ 100 % 1018.09 hPa
2024-06-23 13:04:14 22.54 ℃ 100 % 1018.1 hPa
2024-06-23 12:54:14 22.75 ℃ 100 % 1018.17 hPa
2024-06-23 12:44:14 23.24 ℃ 100 % 1018.1 hPa
2024-06-23 12:34:14 23.1 ℃ 100 % 1018.07 hPa
2024-06-23 12:24:14 22.8 ℃ 100 % 1018 hPa
2024-06-23 12:14:14 22.17 ℃ 100 % 1017.94 hPa
2024-06-23 12:04:14 21.95 ℃ 100 % 1017.84 hPa
2024-06-23 11:54:14 22.15 ℃ 100 % 1017.76 hPa
2024-06-23 11:44:14 22.53 ℃ 100 % 1017.62 hPa
2024-06-23 11:34:14 22.71 ℃ 100 % 1017.56 hPa
2024-06-23 11:24:14 22.19 ℃ 100 % 1017.52 hPa
2024-06-23 11:14:14 22 ℃ 100 % 1017.51 hPa
2024-06-23 11:04:14 21.55 ℃ 100 % 1017.51 hPa
2024-06-23 10:54:14 21.37 ℃ 100 % 1017.45 hPa
2024-06-23 10:44:14 21.14 ℃ 100 % 1017.34 hPa
2024-06-23 10:34:14 21.01 ℃ 100 % 1017.24 hPa
2024-06-23 10:24:14 21.17 ℃ 100 % 1017.18 hPa
2024-06-23 10:14:14 20.87 ℃ 100 % 1017.08 hPa
2024-06-23 10:04:14 20.89 ℃ 100 % 1017.02 hPa
2024-06-23 09:54:14 20.62 ℃ 100 % 1017.02 hPa
2024-06-23 09:44:14 20.23 ℃ 100 % 1017.03 hPa
2024-06-23 09:24:15 20.03 ℃ 100 % 1016.91 hPa
2024-06-23 09:14:14 20.03 ℃ 100 % 1016.79 hPa
2024-06-23 09:04:15 20.35 ℃ 100 % 1016.65 hPa
2024-06-23 08:54:15 19.9 ℃ 100 % 1016.57 hPa
2024-06-23 08:44:15 19.8 ℃ 100 % 1016.52 hPa
2024-06-23 08:34:15 19.78 ℃ 100 % 1016.44 hPa
2024-06-23 08:24:15 19.72 ℃ 100 % 1016.28 hPa
2024-06-23 08:14:15 20.07 ℃ 100 % 1016.17 hPa
2024-06-23 08:04:15 20.29 ℃ 100 % 1016.08 hPa
2024-06-23 07:54:15 20.05 ℃ 100 % 1015.99 hPa
2024-06-23 07:44:15 20.45 ℃ 100 % 1015.89 hPa
2024-06-23 07:34:15 20.71 ℃ 100 % 1015.71 hPa
2024-06-23 07:24:15 20.79 ℃ 100 % 1015.56 hPa
2024-06-23 07:14:15 20.76 ℃ 100 % 1015.44 hPa
2024-06-23 07:04:15 20.62 ℃ 100 % 1015.38 hPa
2024-06-23 06:54:15 20.16 ℃ 100 % 1015.36 hPa
2024-06-23 06:44:15 20.41 ℃ 100 % 1015.3 hPa
2024-06-23 06:34:15 20.59 ℃ 100 % 1015.24 hPa
2024-06-23 06:24:15 20.32 ℃ 100 % 1015.17 hPa
2024-06-23 06:14:15 20.3 ℃ 100 % 1015.05 hPa
2024-06-23 06:04:15 19.61 ℃ 100 % 1015 hPa
2024-06-23 05:54:15 19.02 ℃ 100 % 1014.96 hPa
2024-06-23 05:44:15 18.14 ℃ 100 % 1014.95 hPa
2024-06-23 05:34:15 17.23 ℃ 100 % 1015 hPa
2024-06-23 05:24:15 16.72 ℃ 100 % 1015.01 hPa
2024-06-23 05:14:15 16.76 ℃ 100 % 1014.97 hPa
2024-06-23 05:04:15 16.75 ℃ 100 % 1014.91 hPa
2024-06-23 04:54:15 16.8 ℃ 100 % 1014.85 hPa
2024-06-23 04:44:15 16.79 ℃ 100 % 1014.84 hPa
2024-06-23 04:34:15 16.82 ℃ 100 % 1014.77 hPa
2024-06-23 04:24:15 17.02 ℃ 100 % 1014.73 hPa
2024-06-23 04:14:15 17.11 ℃ 100 % 1014.63 hPa
2024-06-23 04:04:15 17.09 ℃ 100 % 1014.54 hPa
2024-06-23 03:54:15 17.12 ℃ 100 % 1014.43 hPa
2024-06-23 03:44:15 16.86 ℃ 100 % 1014.38 hPa
2024-06-23 03:34:15 16.79 ℃ 100 % 1014.35 hPa
2024-06-23 03:24:15 16.71 ℃ 100 % 1014.32 hPa
2024-06-23 03:14:15 16.86 ℃ 100 % 1014.28 hPa
2024-06-23 03:04:15 17.04 ℃ 100 % 1014.26 hPa
2024-06-23 02:54:15 17.09 ℃ 100 % 1014.22 hPa
2024-06-23 02:44:15 17.12 ℃ 100 % 1014.18 hPa
2024-06-23 02:34:15 17.17 ℃ 100 % 1014.11 hPa
2024-06-23 02:24:15 17.21 ℃ 100 % 1014.1 hPa
2024-06-23 02:14:15 17.3 ℃ 100 % 1014.09 hPa
2024-06-23 02:04:15 17.34 ℃ 100 % 1014.07 hPa
2024-06-23 01:54:15 17.38 ℃ 100 % 1014.01 hPa
2024-06-23 01:44:15 17.42 ℃ 100 % 1013.93 hPa
2024-06-23 01:34:15 17.18 ℃ 100 % 1013.93 hPa
2024-06-23 01:24:15 17.09 ℃ 100 % 1013.94 hPa
2024-06-23 01:14:15 17.15 ℃ 100 % 1013.89 hPa
2024-06-23 01:04:15 17.23 ℃ 100 % 1013.81 hPa
2024-06-23 00:54:15 17.09 ℃ 100 % 1013.78 hPa
2024-06-23 00:44:15 17.38 ℃ 100 % 1013.75 hPa
2024-06-23 00:34:15 17.46 ℃ 100 % 1013.71 hPa
2024-06-23 00:24:15 17.46 ℃ 100 % 1013.72 hPa
2024-06-23 00:14:15 17.35 ℃ 100 % 1013.74 hPa
2024-06-23 00:04:15 17.61 ℃ 100 % 1013.69 hPa
2024-06-22 23:54:15 17.73 ℃ 100 % 1013.64 hPa
2024-06-22 23:44:15 18.06 ℃ 100 % 1013.59 hPa
2024-06-22 23:34:15 18.31 ℃ 100 % 1013.55 hPa
2024-06-22 23:24:15 18.48 ℃ 100 % 1013.52 hPa
2024-06-22 23:14:15 18.7 ℃ 100 % 1013.47 hPa
2024-06-22 23:04:16 18.75 ℃ 100 % 1013.38 hPa
2024-06-22 22:54:15 18.89 ℃ 100 % 1013.32 hPa
2024-06-22 22:44:15 18.88 ℃ 100 % 1013.22 hPa
2024-06-22 22:34:15 18.97 ℃ 100 % 1013.08 hPa
2024-06-22 22:24:18 19 ℃ 99.99 % 1013.02 hPa
2024-06-22 22:14:15 19.16 ℃ 99.98 % 1012.9 hPa
2024-06-22 22:04:15 19.4 ℃ 99.96 % 1012.71 hPa
2024-06-22 21:54:15 19.6 ℃ 99.92 % 1012.59 hPa
2024-06-22 21:44:16 19.98 ℃ 99.85 % 1012.46 hPa
2024-06-22 21:34:15 20.4 ℃ 99.69 % 1012.28 hPa
2024-06-22 21:24:16 20.51 ℃ 99.38 % 1012.09 hPa
2024-06-22 21:14:16 20.54 ℃ 98.76 % 1011.92 hPa
2024-06-22 21:04:16 20.58 ℃ 97.52 % 1011.81 hPa
2024-06-22 20:54:16 20.93 ℃ 95.87 % 1011.76 hPa
2024-06-22 20:44:16 21.03 ℃ 95.7 % 1011.66 hPa
2024-06-22 20:34:16 21.39 ℃ 91.39 % 1011.54 hPa
2024-06-22 20:24:16 21.21 ℃ 87.91 % 1011.42 hPa
2024-06-22 20:14:16 21.15 ℃ 85.12 % 1011.34 hPa
2024-06-22 20:04:17 21.5 ℃ 80.84 % 1011.24 hPa
2024-06-22 19:54:16 21.23 ℃ 77.36 % 1011.16 hPa
2024-06-22 19:44:16 21.38 ℃ 75.78 % 1011.1 hPa
2024-06-22 19:34:16 21.4 ℃ 78.63 % 1011.03 hPa
2024-06-22 19:24:16 21.61 ℃ 84.02 % 1010.97 hPa
2024-06-22 19:14:16 21.7 ℃ 85.2 % 1010.9 hPa
2024-06-22 19:04:16 21.67 ℃ 84.85 % 1010.82 hPa
2024-06-22 18:54:16 21.67 ℃ 80.49 % 1010.74 hPa
2024-06-22 18:44:16 21.47 ℃ 83.08 % 1010.69 hPa
2024-06-22 18:34:16 21.88 ℃ 84.45 % 1010.66 hPa
2024-06-22 18:24:16 21.85 ℃ 91.89 % 1010.56 hPa
2024-06-22 18:14:16 21.98 ℃ 94.5 % 1010.49 hPa
2024-06-22 18:04:16 22.09 ℃ 89.34 % 1010.44 hPa
2024-06-22 17:54:16 22.01 ℃ 82.97 % 1010.35 hPa
2024-06-22 17:44:16 21.99 ℃ 80.56 % 1010.32 hPa
2024-06-22 17:34:16 22.01 ℃ 83.88 % 1010.3 hPa
2024-06-22 17:24:16 22.06 ℃ 86.55 % 1010.23 hPa
2024-06-22 17:14:16 22.15 ℃ 93.6 % 1010.18 hPa
2024-06-22 17:04:16 22.51 ℃ 98.79 % 1010.09 hPa
2024-06-22 16:54:16 22.69 ℃ 97.58 % 1010.11 hPa
2024-06-22 16:44:16 22.55 ℃ 95.16 % 1010.12 hPa
2024-06-22 16:34:16 22.98 ℃ 90.32 % 1010.11 hPa
2024-06-22 16:24:16 22.81 ℃ 90.42 % 1010.13 hPa
2024-06-22 16:14:16 22.74 ℃ 92.84 % 1010.11 hPa
2024-06-22 16:04:17 22.76 ℃ 97.05 % 1010.04 hPa
2024-06-22 15:54:16 22.83 ℃ 100 % 1010.01 hPa
2024-06-22 15:44:16 22.87 ℃ 100 % 1010.02 hPa
2024-06-22 15:34:16 23.04 ℃ 100 % 1009.92 hPa
2024-06-22 15:24:16 22.93 ℃ 100 % 1009.89 hPa
2024-06-22 15:14:16 23 ℃ 100 % 1009.85 hPa
2024-06-22 15:04:16 23.28 ℃ 100 % 1009.76 hPa
2024-06-22 14:54:16 22.83 ℃ 100 % 1009.68 hPa
2024-06-22 14:44:16 22.63 ℃ 100 % 1009.61 hPa
2024-06-22 14:34:16 22.41 ℃ 100 % 1009.51 hPa
2024-06-22 14:24:16 22.48 ℃ 100 % 1009.47 hPa
2024-06-22 14:14:16 22.41 ℃ 100 % 1009.38 hPa
2024-06-22 14:04:16 22.49 ℃ 100 % 1009.26 hPa
2024-06-22 13:54:16 22.31 ℃ 100 % 1009.18 hPa
2024-06-22 13:44:16 22.27 ℃ 100 % 1009.07 hPa
2024-06-22 13:34:16 22.48 ℃ 100 % 1008.99 hPa
2024-06-22 13:24:16 22.73 ℃ 100 % 1008.89 hPa
2024-06-22 13:14:16 22.33 ℃ 100 % 1008.82 hPa
2024-06-22 13:04:16 22.18 ℃ 100 % 1008.74 hPa
2024-06-22 12:54:16 22.08 ℃ 100 % 1008.72 hPa
2024-06-22 12:44:16 21.98 ℃ 100 % 1008.66 hPa
2024-06-22 12:34:16 21.73 ℃ 100 % 1008.61 hPa
2024-06-22 12:24:16 21.74 ℃ 100 % 1008.54 hPa
2024-06-22 12:14:16 21.46 ℃ 100 % 1008.48 hPa
2024-06-22 12:04:16 21.27 ℃ 100 % 1008.41 hPa
2024-06-22 11:54:16 21.22 ℃ 100 % 1008.36 hPa
2024-06-22 11:44:16 21.13 ℃ 100 % 1008.18 hPa
2024-06-22 11:34:16 20.91 ℃ 100 % 1008.02 hPa
2024-06-22 11:24:16 20.56 ℃ 100 % 1007.84 hPa
2024-06-22 11:14:16 20.5 ℃ 100 % 1007.75 hPa
2024-06-22 11:04:16 20.37 ℃ 100 % 1007.67 hPa
2024-06-22 10:54:16 20.58 ℃ 100 % 1007.55 hPa
2024-06-22 10:44:17 20.24 ℃ 100 % 1007.49 hPa
2024-06-22 10:34:17 19.88 ℃ 100 % 1007.46 hPa
2024-06-22 10:24:16 19.34 ℃ 100 % 1007.49 hPa
2024-06-22 10:14:16 18.87 ℃ 100 % 1007.55 hPa
2024-06-22 10:04:16 18.66 ℃ 100 % 1007.63 hPa
2024-06-22 09:54:16 18.37 ℃ 100 % 1007.79 hPa
2024-06-22 09:44:16 18.17 ℃ 100 % 1007.81 hPa
2024-06-22 09:34:17 17.97 ℃ 100 % 1007.78 hPa
2024-06-22 09:24:16 17.98 ℃ 100 % 1007.78 hPa
2024-06-22 09:14:16 17.81 ℃ 100 % 1007.68 hPa
2024-06-22 09:04:16 17.74 ℃ 100 % 1007.58 hPa
2024-06-22 08:54:17 17.69 ℃ 100 % 1007.59 hPa
2024-06-22 08:44:17 17.58 ℃ 100 % 1007.47 hPa
2024-06-22 08:34:17 17.42 ℃ 100 % 1007.36 hPa
2024-06-22 08:24:17 17.56 ℃ 100 % 1007.27 hPa
2024-06-22 08:14:17 17.6 ℃ 100 % 1007.17 hPa
2024-06-22 08:04:17 17.83 ℃ 100 % 1007.08 hPa
2024-06-22 07:54:17 18.01 ℃ 100 % 1007.03 hPa
2024-06-22 07:44:17 18.17 ℃ 100 % 1006.9 hPa
2024-06-22 07:34:17 18.15 ℃ 100 % 1006.76 hPa
2024-06-22 07:24:17 18.45 ℃ 100 % 1006.6 hPa
2024-06-22 07:14:17 18.47 ℃ 100 % 1006.49 hPa
2024-06-22 07:04:17 18.56 ℃ 100 % 1006.38 hPa
2024-06-22 06:54:17 18.53 ℃ 100 % 1006.29 hPa
2024-06-22 06:44:17 18.45 ℃ 100 % 1006.21 hPa
2024-06-22 06:34:17 18.42 ℃ 100 % 1006.14 hPa
2024-06-22 06:24:17 18.46 ℃ 100 % 1006.05 hPa
2024-06-22 06:14:17 18.48 ℃ 100 % 1006.01 hPa
2024-06-22 06:04:17 18.46 ℃ 100 % 1006 hPa
2024-06-22 05:54:17 18.64 ℃ 100 % 1006.04 hPa
2024-06-22 05:44:17 18.51 ℃ 100 % 1006.04 hPa
2024-06-22 05:34:17 18.69 ℃ 100 % 1006.04 hPa
2024-06-22 05:24:17 18.66 ℃ 100 % 1006.06 hPa
2024-06-22 05:14:17 18.64 ℃ 100 % 1006.07 hPa
2024-06-22 05:04:17 18.98 ℃ 100 % 1006.08 hPa
2024-06-22 04:54:17 19.22 ℃ 100 % 1006.05 hPa
2024-06-22 04:44:17 19.47 ℃ 100 % 1006 hPa
2024-06-22 04:34:17 19.73 ℃ 100 % 1005.93 hPa
2024-06-22 04:24:17 19.73 ℃ 100 % 1005.92 hPa
2024-06-22 04:14:17 20.08 ℃ 100 % 1005.9 hPa
2024-06-22 04:04:17 20.04 ℃ 100 % 1005.9 hPa
2024-06-22 03:54:17 20.27 ℃ 100 % 1005.92 hPa
2024-06-22 03:44:17 20.79 ℃ 100 % 1005.94 hPa
2024-06-22 03:34:17 20.95 ℃ 100 % 1005.92 hPa
2024-06-22 03:24:17 21.25 ℃ 100 % 1005.9 hPa
2024-06-22 03:14:17 21.14 ℃ 100 % 1005.93 hPa
2024-06-22 03:04:17 21.2 ℃ 100 % 1005.84 hPa
2024-06-22 02:54:17 21.52 ℃ 100 % 1005.7 hPa
2024-06-22 02:44:17 21.61 ℃ 100 % 1005.71 hPa
2024-06-22 02:34:17 21.9 ℃ 100 % 1005.74 hPa
2024-06-22 02:24:17 22.39 ℃ 100 % 1005.78 hPa
2024-06-22 02:14:17 22.78 ℃ 100 % 1005.85 hPa
2024-06-22 02:04:17 22.75 ℃ 100 % 1005.84 hPa
2024-06-22 01:54:17 22.72 ℃ 100 % 1005.81 hPa
2024-06-22 01:44:17 22.74 ℃ 100 % 1005.78 hPa
2024-06-22 01:34:17 23.06 ℃ 100 % 1005.8 hPa
2024-06-22 01:24:17 22.75 ℃ 100 % 1005.94 hPa
2024-06-22 01:14:17 22.94 ℃ 100 % 1006.03 hPa
2024-06-22 01:04:17 23.15 ℃ 100 % 1006.19 hPa
2024-06-22 00:54:17 22.98 ℃ 100 % 1006.35 hPa
2024-06-22 00:44:17 23.29 ℃ 100 % 1006.44 hPa
2024-06-22 00:34:17 23.53 ℃ 100 % 1006.44 hPa
2024-06-22 00:24:17 23.59 ℃ 100 % 1006.43 hPa
2024-06-22 00:14:17 23.84 ℃ 100 % 1006.34 hPa
2024-06-22 00:04:17 24.44 ℃ 100 % 1006.23 hPa
2024-06-21 23:54:17 24.36 ℃ 100 % 1006.28 hPa
2024-06-21 23:44:17 24.15 ℃ 100 % 1006.26 hPa
2024-06-21 23:34:17 23.96 ℃ 100 % 1006.3 hPa
2024-06-21 23:24:17 23.57 ℃ 100 % 1006.43 hPa
2024-06-21 23:14:17 23.28 ℃ 100 % 1006.54 hPa
2024-06-21 23:04:18 22.82 ℃ 100 % 1006.65 hPa
2024-06-21 22:54:17 23.06 ℃ 100 % 1006.71 hPa
2024-06-21 22:44:17 23.01 ℃ 100 % 1006.72 hPa
2024-06-21 22:34:18 23.17 ℃ 100 % 1006.69 hPa
2024-06-21 22:24:17 23.07 ℃ 100 % 1006.73 hPa
2024-06-21 22:14:18 22.89 ℃ 100 % 1006.86 hPa
2024-06-21 22:04:18 22.94 ℃ 100 % 1006.81 hPa
2024-06-21 21:54:18 22.81 ℃ 100 % 1006.8 hPa
2024-06-21 21:44:18 22.43 ℃ 100 % 1006.73 hPa
2024-06-21 21:34:18 22.19 ℃ 100 % 1006.72 hPa
2024-06-21 21:24:18 22.25 ℃ 100 % 1006.76 hPa
2024-06-21 21:14:18 22.19 ℃ 100 % 1006.84 hPa
2024-06-21 21:04:18 22.27 ℃ 100 % 1006.94 hPa
2024-06-21 20:54:18 22.14 ℃ 100 % 1007.15 hPa
2024-06-21 20:44:18 22.22 ℃ 100 % 1007.38 hPa
2024-06-21 20:34:19 22.31 ℃ 100 % 1007.63 hPa
2024-06-21 20:24:21 22.29 ℃ 100 % 1007.74 hPa
2024-06-21 20:14:18 22.02 ℃ 100 % 1007.89 hPa
2024-06-21 20:04:18 21.79 ℃ 100 % 1008.04 hPa
2024-06-21 19:54:18 21.37 ℃ 100 % 1008.14 hPa
2024-06-21 19:44:18 21.24 ℃ 100 % 1008.18 hPa
2024-06-21 19:34:18 21.59 ℃ 100 % 1008.39 hPa
2024-06-21 19:24:18 21.75 ℃ 100 % 1008.5 hPa
2024-06-21 19:14:18 21.58 ℃ 100 % 1008.65 hPa
2024-06-21 19:04:18 21.49 ℃ 100 % 1008.81 hPa
2024-06-21 18:54:18 21.42 ℃ 100 % 1008.94 hPa
2024-06-21 18:44:18 21.49 ℃ 100 % 1009.03 hPa
2024-06-21 18:34:18 21.47 ℃ 100 % 1009.18 hPa
2024-06-21 18:24:18 21.48 ℃ 100 % 1009.31 hPa
2024-06-21 18:14:18 21.4 ℃ 100 % 1009.38 hPa
2024-06-21 18:04:18 21.41 ℃ 100 % 1009.46 hPa
2024-06-21 17:54:18 21.15 ℃ 100 % 1009.48 hPa
2024-06-21 17:44:18 21.04 ℃ 100 % 1009.56 hPa
2024-06-21 17:34:18 20.76 ℃ 100 % 1009.56 hPa
2024-06-21 17:24:18 20.74 ℃ 100 % 1009.75 hPa
2024-06-21 17:14:18 20.77 ℃ 100 % 1010.08 hPa
2024-06-21 17:04:18 20.76 ℃ 100 % 1010.32 hPa
2024-06-21 16:54:18 20.55 ℃ 100 % 1010.48 hPa
2024-06-21 16:44:18 20.46 ℃ 100 % 1010.73 hPa
2024-06-21 16:34:18 20.44 ℃ 100 % 1011.03 hPa
2024-06-21 16:24:18 20.37 ℃ 100 % 1011.22 hPa
2024-06-21 16:14:18 20.39 ℃ 100 % 1011.49 hPa
2024-06-21 16:04:18 20.31 ℃ 100 % 1011.68 hPa
2024-06-21 15:54:18 20.4 ℃ 100 % 1011.81 hPa
2024-06-21 15:44:18 20.54 ℃ 100 % 1011.93 hPa
2024-06-21 15:34:18 20.62 ℃ 100 % 1012.1 hPa
2024-06-21 15:24:18 20.71 ℃ 100 % 1012.27 hPa
2024-06-21 15:14:18 20.19 ℃ 100 % 1012.55 hPa
2024-06-21 15:04:18 19.82 ℃ 100 % 1012.75 hPa
2024-06-21 14:54:18 19.79 ℃ 100 % 1012.93 hPa
2024-06-21 14:44:18 20.09 ℃ 100 % 1013.14 hPa
2024-06-21 14:34:18 20.43 ℃ 100 % 1013.27 hPa
2024-06-21 14:24:18 19.96 ℃ 100 % 1013.3 hPa
2024-06-21 14:14:18 19.98 ℃ 100 % 1013.45 hPa
2024-06-21 14:04:18 20.24 ℃ 100 % 1013.6 hPa
2024-06-21 13:54:18 20.45 ℃ 100 % 1013.66 hPa
2024-06-21 13:44:18 20.79 ℃ 100 % 1013.77 hPa
2024-06-21 13:34:18 20.98 ℃ 100 % 1013.89 hPa
2024-06-21 13:24:18 21.04 ℃ 100 % 1013.99 hPa
2024-06-21 13:14:18 21.04 ℃ 100 % 1014.04 hPa
2024-06-21 13:04:18 20.93 ℃ 100 % 1014.12 hPa
2024-06-21 12:54:18 21.06 ℃ 100 % 1014.14 hPa
2024-06-21 12:44:18 20.69 ℃ 100 % 1014.13 hPa
2024-06-21 12:34:18 20.78 ℃ 100 % 1014.13 hPa
2024-06-21 12:24:18 21.06 ℃ 100 % 1014.15 hPa
2024-06-21 12:14:18 21.07 ℃ 100 % 1014.24 hPa
2024-06-21 12:04:18 20.65 ℃ 100 % 1014.41 hPa
2024-06-21 11:54:18 20.83 ℃ 100 % 1014.51 hPa
2024-06-21 11:44:18 20.59 ℃ 100 % 1014.55 hPa
2024-06-21 11:34:18 20.54 ℃ 100 % 1014.55 hPa
2024-06-21 11:24:20 20.51 ℃ 100 % 1014.66 hPa
2024-06-21 11:14:18 20.44 ℃ 100 % 1014.81 hPa
2024-06-21 11:04:18 20.27 ℃ 100 % 1014.97 hPa
2024-06-21 10:54:19 20.47 ℃ 100 % 1015.13 hPa
2024-06-21 10:44:18 20.48 ℃ 100 % 1015.19 hPa
2024-06-21 10:34:18 20.31 ℃ 100 % 1015.2 hPa
2024-06-21 10:24:18 20.1 ℃ 100 % 1015.25 hPa
2024-06-21 10:14:19 20.17 ℃ 100 % 1015.27 hPa
2024-06-21 10:04:19 19.76 ℃ 100 % 1015.32 hPa
2024-06-21 09:54:18 19.89 ℃ 100 % 1015.38 hPa
2024-06-21 09:44:19 19.52 ℃ 100 % 1015.48 hPa
2024-06-21 09:34:19 19.29 ℃ 100 % 1015.54 hPa
2024-06-21 09:24:19 19.29 ℃ 100 % 1015.48 hPa
2024-06-21 09:14:19 19.36 ℃ 100 % 1015.37 hPa
2024-06-21 09:04:19 19.16 ℃ 100 % 1015.31 hPa
2024-06-21 08:54:19 18.91 ℃ 100 % 1015.35 hPa
2024-06-21 08:44:19 19.05 ℃ 100 % 1015.4 hPa
2024-06-21 08:34:19 19.28 ℃ 100 % 1015.49 hPa
2024-06-21 08:24:19 19.46 ℃ 100 % 1015.54 hPa
2024-06-21 08:14:19 19.34 ℃ 100 % 1015.64 hPa
2024-06-21 08:04:19 19.29 ℃ 100 % 1015.68 hPa
2024-06-21 07:54:19 18.72 ℃ 100 % 1015.77 hPa
2024-06-21 07:44:19 18.32 ℃ 100 % 1015.81 hPa
2024-06-21 07:34:19 18.1 ℃ 100 % 1015.85 hPa
2024-06-21 07:24:19 18.28 ℃ 100 % 1015.81 hPa
2024-06-21 07:14:19 17.76 ℃ 100 % 1015.79 hPa
2024-06-21 07:04:19 17.7 ℃ 100 % 1015.88 hPa
2024-06-21 06:54:19 17.68 ℃ 100 % 1015.97 hPa
2024-06-21 06:44:19 17.7 ℃ 100 % 1016.09 hPa
2024-06-21 06:34:19 17.5 ℃ 100 % 1016.19 hPa
2024-06-21 06:24:19 17.51 ℃ 100 % 1016.34 hPa
2024-06-21 06:14:19 17.7 ℃ 100 % 1016.4 hPa
2024-06-21 06:04:19 17.47 ℃ 100 % 1016.44 hPa
2024-06-21 05:54:19 17.32 ℃ 100 % 1016.51 hPa
2024-06-21 05:44:19 17.27 ℃ 100 % 1016.55 hPa
2024-06-21 05:34:19 17.12 ℃ 100 % 1016.58 hPa
2024-06-21 05:24:19 17.3 ℃ 100 % 1016.58 hPa
2024-06-21 05:14:19 17.45 ℃ 100 % 1016.64 hPa
2024-06-21 05:04:19 17.37 ℃ 100 % 1016.67 hPa
2024-06-21 04:54:19 17.54 ℃ 100 % 1016.73 hPa
2024-06-21 04:44:19 17.65 ℃ 100 % 1016.81 hPa
2024-06-21 04:34:19 17.85 ℃ 100 % 1016.88 hPa
2024-06-21 04:24:19 17.63 ℃ 100 % 1016.95 hPa
2024-06-21 04:14:19 17.7 ℃ 100 % 1017.01 hPa
2024-06-21 04:04:19 17.72 ℃ 100 % 1017.07 hPa
2024-06-21 03:54:19 18.01 ℃ 100 % 1017.07 hPa
2024-06-21 03:44:19 17.7 ℃ 100 % 1017.18 hPa
2024-06-21 03:34:19 17.77 ℃ 100 % 1017.27 hPa
2024-06-21 03:24:19 17.8 ℃ 100 % 1017.34 hPa
2024-06-21 03:14:19 17.86 ℃ 100 % 1017.4 hPa
2024-06-21 03:04:19 18.06 ℃ 100 % 1017.49 hPa
2024-06-21 02:54:19 18.19 ℃ 100 % 1017.61 hPa
2024-06-21 02:44:19 18.47 ℃ 100 % 1017.82 hPa
2024-06-21 02:34:19 18.37 ℃ 100 % 1017.92 hPa
2024-06-21 02:24:19 18.42 ℃ 100 % 1017.96 hPa
2024-06-21 02:14:19 18.7 ℃ 100 % 1018 hPa
2024-06-21 02:04:19 18.76 ℃ 100 % 1018.15 hPa
2024-06-21 01:54:19 18.32 ℃ 100 % 1018.29 hPa
2024-06-21 01:44:19 18.5 ℃ 100 % 1018.31 hPa
2024-06-21 01:34:20 18.64 ℃ 100 % 1018.29 hPa
2024-06-21 01:24:19 18.61 ℃ 100 % 1018.49 hPa
2024-06-21 01:14:19 18.25 ℃ 100 % 1018.59 hPa
2024-06-21 01:04:19 18.12 ℃ 100 % 1018.61 hPa
2024-06-21 00:54:19 18.31 ℃ 100 % 1018.57 hPa
2024-06-21 00:44:19 18.25 ℃ 100 % 1018.42 hPa
2024-06-21 00:34:19 18.4 ℃ 100 % 1018.28 hPa
2024-06-21 00:24:19 18.62 ℃ 100 % 1018.18 hPa
2024-06-21 00:14:19 18.39 ℃ 100 % 1018.15 hPa
2024-06-21 00:04:19 18.17 ℃ 100 % 1018.28 hPa
2024-06-20 23:54:20 18.08 ℃ 100 % 1018.37 hPa
2024-06-20 23:44:21 18.22 ℃ 100 % 1018.64 hPa
2024-06-20 23:34:20 18.4 ℃ 100 % 1018.93 hPa
2024-06-20 23:24:19 18.6 ℃ 100 % 1019.07 hPa
2024-06-20 23:14:20 18.76 ℃ 100 % 1019.21 hPa
2024-06-20 23:04:19 18.92 ℃ 100 % 1019.38 hPa
2024-06-20 22:54:20 19.08 ℃ 100 % 1019.48 hPa
2024-06-20 22:44:19 19.27 ℃ 100 % 1019.46 hPa
2024-06-20 22:34:20 19.09 ℃ 100 % 1019.43 hPa
2024-06-20 22:24:20 19.29 ℃ 100 % 1019.25 hPa
2024-06-20 22:14:24 19.19 ℃ 100 % 1019.17 hPa
2024-06-20 22:04:20 19.13 ℃ 100 % 1018.98 hPa
2024-06-20 21:54:19 18.8 ℃ 100 % 1018.85 hPa
2024-06-20 21:44:20 18.84 ℃ 100 % 1018.58 hPa
2024-06-20 21:34:20 18.84 ℃ 100 % 1018.41 hPa
2024-06-20 21:24:20 18.75 ℃ 100 % 1018.42 hPa
2024-06-20 21:14:20 18.58 ℃ 100 % 1018.46 hPa
2024-06-20 21:04:20 18.61 ℃ 100 % 1018.52 hPa
2024-06-20 20:54:20 18.69 ℃ 100 % 1018.57 hPa
2024-06-20 20:44:20 18.73 ℃ 100 % 1018.73 hPa
2024-06-20 20:34:20 19.01 ℃ 100 % 1018.91 hPa
2024-06-20 20:24:20 19.1 ℃ 100 % 1019.25 hPa
2024-06-20 20:14:20 19.48 ℃ 100 % 1019.29 hPa
2024-06-20 20:04:20 19.52 ℃ 100 % 1019.35 hPa
2024-06-20 19:54:20 19.62 ℃ 100 % 1019.41 hPa
2024-06-20 19:44:20 19.96 ℃ 100 % 1019.54 hPa
2024-06-20 19:34:20 20.31 ℃ 100 % 1019.61 hPa
2024-06-20 19:24:20 20.33 ℃ 100 % 1019.62 hPa
2024-06-20 19:14:20 20.27 ℃ 100 % 1019.54 hPa
2024-06-20 19:04:20 20.32 ℃ 100 % 1019.64 hPa
2024-06-20 18:54:20 20.31 ℃ 100 % 1019.68 hPa
2024-06-20 18:44:20 20.5 ℃ 100 % 1019.65 hPa
2024-06-20 18:34:20 20.43 ℃ 100 % 1019.63 hPa
2024-06-20 18:24:20 20.53 ℃ 99.99 % 1019.64 hPa
2024-06-20 18:14:20 20.49 ℃ 99.98 % 1019.68 hPa
2024-06-20 18:04:20 20.69 ℃ 99.96 % 1019.76 hPa
2024-06-20 17:54:20 20.72 ℃ 99.92 % 1019.95 hPa
2024-06-20 17:44:20 20.66 ℃ 99.84 % 1020.21 hPa
2024-06-20 17:34:20 21.18 ℃ 99.69 % 1020.37 hPa
2024-06-20 17:24:20 21.25 ℃ 99.37 % 1020.41 hPa
2024-06-20 17:14:20 21.2 ℃ 98.74 % 1020.47 hPa
2024-06-20 17:04:20 21.62 ℃ 97.49 % 1020.64 hPa
2024-06-20 16:54:20 22.25 ℃ 94.98 % 1020.71 hPa
2024-06-20 16:44:20 23.33 ℃ 89.95 % 1020.78 hPa
2024-06-20 16:34:20 24.32 ℃ 79.9 % 1020.8 hPa
2024-06-20 16:24:20 24.68 ℃ 77.92 % 1020.89 hPa
2024-06-20 16:14:20 24.81 ℃ 75.98 % 1020.94 hPa
2024-06-20 16:04:20 24.63 ℃ 80.34 % 1020.96 hPa
2024-06-20 15:54:20 24.75 ℃ 79.23 % 1020.96 hPa
2024-06-20 15:44:20 24.85 ℃ 78.22 % 1020.94 hPa
2024-06-20 15:34:20 24.82 ℃ 78.51 % 1020.86 hPa
2024-06-20 15:24:20 24.52 ℃ 80.68 % 1020.9 hPa
2024-06-20 15:14:20 23.81 ℃ 84.16 % 1020.94 hPa
2024-06-20 15:04:20 23.93 ℃ 84.75 % 1020.97 hPa
2024-06-20 14:54:20 24.23 ℃ 79.75 % 1021.06 hPa
2024-06-20 14:44:20 24.29 ℃ 80.96 % 1021.17 hPa
2024-06-20 14:34:20 24.47 ℃ 80.12 % 1021.29 hPa
2024-06-20 14:24:20 24.22 ℃ 80.58 % 1021.45 hPa
2024-06-20 14:14:22 24.53 ℃ 81.3 % 1021.61 hPa
2024-06-20 14:04:20 24.4 ℃ 82.67 % 1021.79 hPa
2024-06-20 13:54:20 24.48 ℃ 83.69 % 1021.76 hPa
2024-06-20 13:44:20 24.03 ℃ 90.54 % 1021.76 hPa
2024-06-20 13:34:20 23.65 ℃ 91.46 % 1021.69 hPa
2024-06-20 13:24:20 23.18 ℃ 93.45 % 1021.74 hPa
2024-06-20 13:14:20 23.05 ℃ 95.09 % 1021.84 hPa
2024-06-20 13:04:20 22.77 ℃ 98.08 % 1021.97 hPa
2024-06-20 12:54:20 22.52 ℃ 99.5 % 1022.11 hPa
2024-06-20 12:44:21 22.34 ℃ 98.99 % 1022.22 hPa
2024-06-20 12:34:20 22.37 ℃ 97.98 % 1022.39 hPa
2024-06-20 12:24:20 22.36 ℃ 95.97 % 1022.48 hPa
2024-06-20 12:14:20 22.49 ℃ 98.25 % 1022.63 hPa
2024-06-20 12:04:20 22.38 ℃ 96.5 % 1022.63 hPa
2024-06-20 11:54:22 22.35 ℃ 100 % 1022.59 hPa
2024-06-20 11:44:22 21.97 ℃ 100 % 1022.63 hPa
2024-06-20 11:34:20 21.73 ℃ 100 % 1022.63 hPa
2024-06-20 11:24:20 21.47 ℃ 100 % 1022.53 hPa
2024-06-20 11:14:20 21.18 ℃ 100 % 1022.51 hPa
2024-06-20 11:04:20 21.22 ℃ 100 % 1022.5 hPa
2024-06-20 10:54:20 21.19 ℃ 100 % 1022.49 hPa
2024-06-20 10:44:21 21.33 ℃ 100 % 1022.43 hPa
2024-06-20 10:34:20 21.4 ℃ 100 % 1022.45 hPa
2024-06-20 10:24:20 21.32 ℃ 100 % 1022.55 hPa
2024-06-20 10:14:21 21.11 ℃ 100 % 1022.53 hPa
2024-06-20 10:04:20 20.95 ℃ 100 % 1022.43 hPa
2024-06-20 09:54:21 20.37 ℃ 100 % 1022.44 hPa
2024-06-20 09:44:21 20.68 ℃ 100 % 1022.39 hPa
2024-06-20 09:34:21 20.56 ℃ 100 % 1022.36 hPa
2024-06-20 09:24:21 20.26 ℃ 100 % 1022.41 hPa
2024-06-20 09:14:21 19.87 ℃ 100 % 1022.41 hPa
2024-06-20 09:04:21 20.01 ℃ 100 % 1022.51 hPa
2024-06-20 08:54:21 19.92 ℃ 100 % 1022.66 hPa
2024-06-20 08:44:21 19.72 ℃ 100 % 1022.79 hPa
2024-06-20 08:34:21 20.15 ℃ 100 % 1022.88 hPa
2024-06-20 08:24:21 20.39 ℃ 100 % 1023.03 hPa
2024-06-20 08:14:21 20.87 ℃ 100 % 1023.06 hPa
2024-06-20 08:04:21 20.78 ℃ 100 % 1023.1 hPa
2024-06-20 07:54:21 20.53 ℃ 100 % 1023.14 hPa
2024-06-20 07:44:21 20.39 ℃ 100 % 1023.14 hPa
2024-06-20 07:34:21 20.64 ℃ 100 % 1023.09 hPa
2024-06-20 07:24:21 20.21 ℃ 100 % 1023.19 hPa
2024-06-20 07:14:21 20.16 ℃ 100 % 1023.19 hPa
2024-06-20 07:04:21 20.06 ℃ 100 % 1023.18 hPa
2024-06-20 06:54:21 20.13 ℃ 100 % 1023.13 hPa
2024-06-20 06:44:21 21.03 ℃ 100 % 1023.04 hPa
2024-06-20 06:34:21 21.49 ℃ 100 % 1022.93 hPa
2024-06-20 06:24:21 21.4 ℃ 100 % 1022.94 hPa
2024-06-20 06:14:21 21.62 ℃ 100 % 1022.82 hPa
2024-06-20 06:04:21 21.27 ℃ 100 % 1022.63 hPa
2024-06-20 05:54:21 20.55 ℃ 100 % 1022.59 hPa
2024-06-20 05:44:21 19.8 ℃ 100 % 1022.47 hPa
2024-06-20 05:34:21 18.25 ℃ 100 % 1022.46 hPa
2024-06-20 05:24:21 17.01 ℃ 100 % 1022.48 hPa
2024-06-20 05:14:21 15.65 ℃ 100 % 1022.46 hPa
2024-06-20 05:04:21 14.8 ℃ 100 % 1022.48 hPa
2024-06-20 04:54:21 14.79 ℃ 100 % 1022.46 hPa
2024-06-20 04:44:21 14.67 ℃ 100 % 1022.37 hPa
2024-06-20 04:34:21 14.45 ℃ 100 % 1022.29 hPa
2024-06-20 04:24:21 14.24 ℃ 100 % 1022.22 hPa
2024-06-20 04:14:21 14.36 ℃ 100 % 1022.06 hPa
2024-06-20 04:04:21 14.51 ℃ 100 % 1021.73 hPa
2024-06-20 03:54:21 14.33 ℃ 100 % 1021.5 hPa
2024-06-20 03:44:21 14.09 ℃ 100 % 1021.54 hPa
2024-06-20 03:34:21 14.04 ℃ 100 % 1021.62 hPa
2024-06-20 03:24:21 14.26 ℃ 100 % 1021.76 hPa
2024-06-20 03:14:21 14.65 ℃ 100 % 1021.95 hPa
2024-06-20 03:04:21 15.21 ℃ 100 % 1022.08 hPa
2024-06-20 02:54:21 15.63 ℃ 100 % 1022.09 hPa
2024-06-20 02:44:21 15.63 ℃ 100 % 1022.15 hPa
2024-06-20 02:34:21 15.86 ℃ 100 % 1022.14 hPa
2024-06-20 02:24:21 16 ℃ 100 % 1022.13 hPa
2024-06-20 02:14:21 16.06 ℃ 100 % 1022.08 hPa
2024-06-20 02:04:21 15.87 ℃ 100 % 1022.12 hPa
2024-06-20 01:54:21 15.96 ℃ 100 % 1022.19 hPa
2024-06-20 01:44:21 15.94 ℃ 100 % 1022.24 hPa
2024-06-20 01:34:21 15.79 ℃ 100 % 1022.3 hPa
2024-06-20 01:24:21 15.9 ℃ 100 % 1022.21 hPa
2024-06-20 01:14:21 16.11 ℃ 100 % 1022.06 hPa
2024-06-20 01:04:21 16.21 ℃ 100 % 1021.92 hPa
2024-06-20 00:54:21 16.13 ℃ 100 % 1021.84 hPa
2024-06-20 00:44:21 15.85 ℃ 100 % 1021.76 hPa
2024-06-20 00:34:21 15.93 ℃ 100 % 1021.68 hPa
2024-06-20 00:24:21 16.12 ℃ 100 % 1021.61 hPa
2024-06-20 00:14:21 16.23 ℃ 100 % 1021.58 hPa
2024-06-20 00:04:21 16.25 ℃ 100 % 1021.5 hPa
2024-06-19 23:54:21 16.35 ℃ 100 % 1021.42 hPa
2024-06-19 23:44:21 16.36 ℃ 100 % 1021.34 hPa
2024-06-19 23:34:21 16.51 ℃ 100 % 1021.23 hPa
2024-06-19 23:24:21 16.59 ℃ 100 % 1021.15 hPa
2024-06-19 23:14:21 16.45 ℃ 100 % 1021.08 hPa
2024-06-19 23:04:21 16.45 ℃ 100 % 1021.03 hPa
2024-06-19 22:54:21 16.82 ℃ 100 % 1020.9 hPa
2024-06-19 22:44:21 17.15 ℃ 100 % 1020.78 hPa
2024-06-19 22:34:22 17.1 ℃ 100 % 1020.69 hPa
2024-06-19 22:24:22 17.36 ℃ 100 % 1020.69 hPa
2024-06-19 22:14:22 17.55 ℃ 100 % 1020.65 hPa
2024-06-19 22:04:22 17.61 ℃ 100 % 1020.59 hPa
2024-06-19 21:54:22 17.56 ℃ 100 % 1020.55 hPa
2024-06-19 21:44:22 17.67 ℃ 100 % 1020.45 hPa
2024-06-19 21:34:22 17.74 ℃ 100 % 1020.38 hPa
2024-06-19 21:24:22 17.77 ℃ 100 % 1020.3 hPa
2024-06-19 21:14:22 18.14 ℃ 100 % 1020.23 hPa
2024-06-19 21:04:22 18.38 ℃ 100 % 1020.1 hPa
2024-06-19 20:54:22 18.52 ℃ 100 % 1019.99 hPa
2024-06-19 20:44:22 18.64 ℃ 100 % 1019.93 hPa
2024-06-19 20:34:22 18.81 ℃ 100 % 1019.88 hPa
2024-06-19 20:24:22 18.9 ℃ 100 % 1019.76 hPa
2024-06-19 20:14:22 19.32 ℃ 100 % 1019.56 hPa
2024-06-19 20:04:22 19.53 ℃ 100 % 1019.43 hPa
2024-06-19 19:54:22 19.67 ℃ 100 % 1019.28 hPa
2024-06-19 19:44:22 19.57 ℃ 100 % 1019.18 hPa
2024-06-19 19:34:22 19.94 ℃ 100 % 1019.07 hPa
2024-06-19 19:24:22 19.86 ℃ 100 % 1018.98 hPa
2024-06-19 19:14:22 20.01 ℃ 100 % 1018.89 hPa
2024-06-19 19:04:22 20.27 ℃ 100 % 1018.8 hPa
2024-06-19 18:54:22 20.47 ℃ 100 % 1018.72 hPa
2024-06-19 18:44:22 20.65 ℃ 100 % 1018.64 hPa
2024-06-19 18:34:22 20.46 ℃ 100 % 1018.6 hPa
2024-06-19 18:24:22 20.59 ℃ 100 % 1018.44 hPa
2024-06-19 18:14:22 20.75 ℃ 100 % 1018.35 hPa
2024-06-19 18:04:22 20.66 ℃ 100 % 1018.28 hPa
2024-06-19 17:54:22 20.35 ℃ 100 % 1018.29 hPa
2024-06-19 17:44:22 20.41 ℃ 100 % 1018.25 hPa
2024-06-19 17:34:22 20.22 ℃ 100 % 1018.22 hPa
2024-06-19 17:24:22 20.25 ℃ 100 % 1018.22 hPa
2024-06-19 17:14:22 20.38 ℃ 100 % 1018.18 hPa
2024-06-19 17:04:22 20.65 ℃ 100 % 1018.14 hPa
2024-06-19 16:54:22 21.02 ℃ 100 % 1018.09 hPa
2024-06-19 16:44:22 21.15 ℃ 100 % 1018.12 hPa
2024-06-19 16:34:22 21.25 ℃ 100 % 1018.11 hPa
2024-06-19 16:24:22 21.29 ℃ 100 % 1018.04 hPa
2024-06-19 16:14:22 21.78 ℃ 100 % 1017.96 hPa
2024-06-19 16:04:22 21.64 ℃ 100 % 1017.91 hPa
2024-06-19 15:54:22 21.39 ℃ 100 % 1017.84 hPa
2024-06-19 15:44:22 21.43 ℃ 100 % 1017.75 hPa
2024-06-19 15:34:22 21.33 ℃ 100 % 1017.66 hPa
2024-06-19 15:24:22 21.11 ℃ 100 % 1017.59 hPa
2024-06-19 15:14:22 21.12 ℃ 100 % 1017.56 hPa
2024-06-19 15:04:22 21.53 ℃ 100 % 1017.49 hPa
2024-06-19 14:54:22 22.28 ℃ 100 % 1017.49 hPa
2024-06-19 14:44:22 22.13 ℃ 100 % 1017.51 hPa
2024-06-19 14:34:22 21.66 ℃ 100 % 1017.5 hPa
2024-06-19 14:24:22 22.13 ℃ 100 % 1017.49 hPa
2024-06-19 14:14:22 22.61 ℃ 100 % 1017.35 hPa
2024-06-19 14:04:22 21.85 ℃ 100 % 1017.35 hPa
2024-06-19 13:54:22 21.61 ℃ 100 % 1017.26 hPa
2024-06-19 13:44:22 21.46 ℃ 100 % 1017.16 hPa
2024-06-19 13:34:22 21.45 ℃ 100 % 1017 hPa
2024-06-19 13:24:22 21.44 ℃ 100 % 1016.85 hPa
2024-06-19 13:14:22 21.03 ℃ 100 % 1016.79 hPa
2024-06-19 13:04:22 20.54 ℃ 100 % 1016.69 hPa
2024-06-19 12:54:23 20.3 ℃ 100 % 1016.68 hPa
2024-06-19 12:44:22 20.37 ℃ 100 % 1016.66 hPa
2024-06-19 12:34:22 21.54 ℃ 100 % 1016.5 hPa
2024-06-19 12:24:22 21.36 ℃ 100 % 1016.47 hPa
2024-06-19 12:14:22 21.03 ℃ 100 % 1016.51 hPa
2024-06-19 12:04:22 20.01 ℃ 100 % 1016.54 hPa
2024-06-19 11:54:22 19.85 ℃ 100 % 1016.58 hPa
2024-06-19 11:44:22 20.65 ℃ 100 % 1016.43 hPa
2024-06-19 11:34:22 20.21 ℃ 100 % 1016.41 hPa
2024-06-19 11:24:22 20.8 ℃ 100 % 1016.28 hPa
2024-06-19 11:14:22 20.89 ℃ 100 % 1016.19 hPa
2024-06-19 11:04:22 21.78 ℃ 100 % 1016.08 hPa
2024-06-19 10:54:22 21.64 ℃ 100 % 1016.09 hPa
2024-06-19 10:44:23 20.85 ℃ 100 % 1016.12 hPa
2024-06-19 10:34:23 20.34 ℃ 100 % 1016.18 hPa
2024-06-19 10:24:22 20.33 ℃ 100 % 1016.11 hPa
2024-06-19 10:14:22 20.05 ℃ 100 % 1016.05 hPa
2024-06-19 10:04:23 20.15 ℃ 100 % 1015.98 hPa
2024-06-19 09:54:23 20.22 ℃ 100 % 1015.91 hPa
2024-06-19 09:44:23 20.12 ℃ 100 % 1015.78 hPa
2024-06-19 09:34:23 20 ℃ 100 % 1015.68 hPa
2024-06-19 09:24:23 19.89 ℃ 100 % 1015.61 hPa
2024-06-19 09:14:23 19.89 ℃ 100 % 1015.54 hPa
2024-06-19 09:04:23 19.7 ℃ 100 % 1015.55 hPa
2024-06-19 08:54:23 19.9 ℃ 100 % 1015.58 hPa
2024-06-19 08:44:23 20.19 ℃ 100 % 1015.56 hPa
2024-06-19 08:34:23 19.73 ℃ 100 % 1015.48 hPa
2024-06-19 08:24:23 19.66 ℃ 100 % 1015.38 hPa
2024-06-19 08:14:23 19.86 ℃ 100 % 1015.31 hPa
2024-06-19 08:04:23 19.41 ℃ 100 % 1015.25 hPa
2024-06-19 07:54:23 19.24 ℃ 100 % 1015.22 hPa
2024-06-19 07:44:23 19.4 ℃ 100 % 1015.21 hPa
2024-06-19 07:34:23 19.18 ℃ 100 % 1015.21 hPa
2024-06-19 07:24:23 19.13 ℃ 100 % 1015.14 hPa
2024-06-19 07:14:23 18.77 ℃ 100 % 1015.06 hPa
2024-06-19 07:04:23 18.31 ℃ 100 % 1014.97 hPa
2024-06-19 06:54:23 18.31 ℃ 100 % 1014.83 hPa
2024-06-19 06:44:23 18.77 ℃ 100 % 1014.74 hPa
2024-06-19 06:34:23 20.23 ℃ 100 % 1014.64 hPa
2024-06-19 06:24:23 20.94 ℃ 100 % 1014.6 hPa
2024-06-19 06:14:23 19.94 ℃ 100 % 1014.55 hPa
2024-06-19 06:04:23 18.08 ℃ 100 % 1014.48 hPa
2024-06-19 05:54:23 16.41 ℃ 100 % 1014.44 hPa
2024-06-19 05:44:23 15.71 ℃ 100 % 1014.36 hPa
2024-06-19 05:34:23 15.84 ℃ 100 % 1014.26 hPa
2024-06-19 05:24:23 15.42 ℃ 100 % 1014.26 hPa
2024-06-19 05:14:23 15.25 ℃ 100 % 1014.25 hPa
2024-06-19 05:04:23 15.31 ℃ 100 % 1014.2 hPa
2024-06-19 04:54:23 15.34 ℃ 100 % 1014.15 hPa
2024-06-19 04:44:23 15.43 ℃ 100 % 1014.07 hPa
2024-06-19 04:34:23 15.58 ℃ 100 % 1013.95 hPa
2024-06-19 04:24:23 15.53 ℃ 100 % 1013.88 hPa
2024-06-19 04:14:23 15.54 ℃ 100 % 1013.86 hPa
2024-06-19 04:04:23 15.54 ℃ 100 % 1013.8 hPa
2024-06-19 03:54:23 15.61 ℃ 100 % 1013.79 hPa
2024-06-19 03:44:23 15.72 ℃ 100 % 1013.81 hPa
2024-06-19 03:34:23 15.79 ℃ 100 % 1013.77 hPa
2024-06-19 03:24:23 15.89 ℃ 100 % 1013.77 hPa
2024-06-19 03:14:23 15.98 ℃ 100 % 1013.74 hPa
2024-06-19 03:04:23 16.13 ℃ 100 % 1013.66 hPa
2024-06-19 02:54:23 16.14 ℃ 100 % 1013.64 hPa
2024-06-19 02:44:26 16.29 ℃ 100 % 1013.61 hPa
2024-06-19 02:34:23 16.37 ℃ 100 % 1013.59 hPa
2024-06-19 02:24:23 16.49 ℃ 100 % 1013.58 hPa
2024-06-19 02:14:23 16.8 ℃ 100 % 1013.59 hPa
2024-06-19 02:04:23 17.1 ℃ 100 % 1013.58 hPa
2024-06-19 01:54:23 17.29 ℃ 100 % 1013.52 hPa
2024-06-19 01:44:23 17.36 ℃ 100 % 1013.43 hPa
2024-06-19 01:34:23 17.31 ℃ 100 % 1013.36 hPa
2024-06-19 01:24:24 17.34 ℃ 100 % 1013.23 hPa
2024-06-19 01:14:23 17.5 ℃ 100 % 1013.17 hPa
2024-06-19 01:04:23 17.66 ℃ 100 % 1013.17 hPa
2024-06-19 00:54:23 17.72 ℃ 100 % 1013.19 hPa
2024-06-19 00:44:23 17.8 ℃ 100 % 1013.29 hPa
2024-06-19 00:34:23 18.15 ℃ 100 % 1013.3 hPa
2024-06-19 00:24:23 18.13 ℃ 100 % 1013.34 hPa
2024-06-19 00:14:23 18.06 ℃ 100 % 1013.39 hPa
2024-06-19 00:04:23 18 ℃ 100 % 1013.42 hPa
2024-06-18 23:54:24 17.96 ℃ 100 % 1013.44 hPa
2024-06-18 23:44:24 17.88 ℃ 100 % 1013.44 hPa
2024-06-18 23:34:24 17.95 ℃ 100 % 1013.43 hPa
2024-06-18 23:24:23 17.84 ℃ 100 % 1013.41 hPa
2024-06-18 23:14:23 17.77 ℃ 100 % 1013.33 hPa
2024-06-18 23:04:23 17.92 ℃ 100 % 1013.28 hPa
2024-06-18 22:54:24 18.05 ℃ 100 % 1013.28 hPa
2024-06-18 22:44:24 18.33 ℃ 100 % 1013.26 hPa
2024-06-18 22:34:24 18.45 ℃ 100 % 1013.2 hPa
2024-06-18 22:24:24 18.56 ℃ 100 % 1013.13 hPa
2024-06-18 22:14:24 18.74 ℃ 100 % 1013.1 hPa
2024-06-18 22:04:24 18.94 ℃ 100 % 1013.02 hPa
2024-06-18 21:54:24 19.14 ℃ 100 % 1012.98 hPa
2024-06-18 21:44:24 19.25 ℃ 100 % 1012.97 hPa
2024-06-18 21:34:24 19.33 ℃ 100 % 1012.91 hPa
2024-06-18 21:24:24 19.25 ℃ 100 % 1012.9 hPa
2024-06-18 21:14:24 19.1 ℃ 100 % 1012.94 hPa
2024-06-18 21:04:24 19.1 ℃ 100 % 1012.94 hPa
2024-06-18 20:54:24 19.43 ℃ 100 % 1012.99 hPa
2024-06-18 20:44:24 19.42 ℃ 100 % 1013.07 hPa
2024-06-18 20:34:24 19.96 ℃ 100 % 1013.08 hPa
2024-06-18 20:24:24 19.98 ℃ 100 % 1013.15 hPa
2024-06-18 20:14:24 20.28 ℃ 100 % 1013.16 hPa
2024-06-18 20:04:24 20.43 ℃ 100 % 1013.22 hPa
2024-06-18 19:54:24 20.56 ℃ 100 % 1013.25 hPa
2024-06-18 19:44:24 20.64 ℃ 100 % 1013.28 hPa
2024-06-18 19:34:24 20.81 ℃ 100 % 1013.29 hPa
2024-06-18 19:24:24 21.12 ℃ 100 % 1013.3 hPa
2024-06-18 19:14:24 21.02 ℃ 100 % 1013.34 hPa
2024-06-18 19:04:24 21.11 ℃ 100 % 1013.38 hPa
2024-06-18 18:54:24 21.27 ℃ 100 % 1013.42 hPa
2024-06-18 18:44:24 21.28 ℃ 100 % 1013.47 hPa
2024-06-18 18:34:24 21.34 ℃ 100 % 1013.52 hPa
2024-06-18 18:24:24 21.4 ℃ 100 % 1013.58 hPa
2024-06-18 18:14:24 21.54 ℃ 99.99 % 1013.61 hPa
2024-06-18 18:04:24 21.74 ℃ 99.99 % 1013.63 hPa
2024-06-18 17:54:24 22.21 ℃ 99.97 % 1013.68 hPa
2024-06-18 17:44:24 22.01 ℃ 99.95 % 1013.79 hPa
2024-06-18 17:34:27 21.71 ℃ 99.89 % 1013.88 hPa
2024-06-18 17:24:24 21.72 ℃ 99.78 % 1013.88 hPa
2024-06-18 17:14:24 22.05 ℃ 99.56 % 1013.87 hPa
2024-06-18 17:04:24 22.51 ℃ 99.12 % 1013.86 hPa
2024-06-18 16:54:24 22.59 ℃ 98.24 % 1013.83 hPa
2024-06-18 16:44:24 23.2 ℃ 96.48 % 1013.82 hPa
2024-06-18 16:34:24 24.46 ℃ 92.97 % 1013.75 hPa
2024-06-18 16:24:24 24.94 ℃ 85.93 % 1013.8 hPa
2024-06-18 16:14:24 25.86 ℃ 71.86 % 1013.84 hPa
2024-06-18 16:04:24 25.49 ℃ 73.14 % 1013.88 hPa
2024-06-18 15:54:24 26.27 ℃ 73.93 % 1013.92 hPa
2024-06-18 15:44:24 26.18 ℃ 73.53 % 1014.05 hPa
2024-06-18 15:34:24 26.56 ℃ 69.94 % 1014.16 hPa
2024-06-18 15:24:24 26.57 ℃ 68.56 % 1014.23 hPa
2024-06-18 15:14:24 26.63 ℃ 65.98 % 1014.29 hPa
2024-06-18 15:04:24 26.54 ℃ 65.19 % 1014.34 hPa
2024-06-18 14:54:24 26.58 ℃ 65.54 % 1014.35 hPa
2024-06-18 14:44:24 26.67 ℃ 64.39 % 1014.32 hPa
2024-06-18 14:34:24 26.9 ℃ 63.69 % 1014.35 hPa
2024-06-18 14:24:24 26.55 ℃ 63.65 % 1014.44 hPa
2024-06-18 14:14:24 26.31 ℃ 64.43 % 1014.49 hPa
2024-06-18 14:04:24 26.57 ℃ 65.85 % 1014.56 hPa
2024-06-18 13:54:24 26.33 ℃ 69.91 % 1014.66 hPa
2024-06-18 13:44:24 26.29 ℃ 75.54 % 1014.76 hPa
2024-06-18 13:34:24 26.28 ℃ 76.22 % 1014.83 hPa
2024-06-18 13:24:24 26.5 ℃ 78.82 % 1014.85 hPa
2024-06-18 13:14:24 25.91 ℃ 82.97 % 1014.93 hPa
2024-06-18 13:04:24 25.79 ℃ 88.76 % 1015 hPa
2024-06-18 12:54:24 25.64 ℃ 96.69 % 1015.08 hPa
2024-06-18 12:44:24 25.66 ℃ 93.37 % 1015.16 hPa
2024-06-18 12:34:24 25.74 ℃ 93.29 % 1015.19 hPa
2024-06-18 12:24:24 25.96 ℃ 94.49 % 1015.22 hPa
2024-06-18 12:14:25 25.74 ℃ 96.62 % 1015.26 hPa
2024-06-18 12:04:24 25.59 ℃ 96.93 % 1015.26 hPa
2024-06-18 11:54:24 24.8 ℃ 100 % 1015.32 hPa
2024-06-18 11:44:25 24.2 ℃ 100 % 1015.32 hPa
2024-06-18 11:34:24 23.86 ℃ 100 % 1015.35 hPa
2024-06-18 11:24:24 23.69 ℃ 100 % 1015.31 hPa
2024-06-18 11:14:25 23.56 ℃ 100 % 1015.27 hPa
2024-06-18 11:04:25 23.65 ℃ 100 % 1015.29 hPa
2024-06-18 10:54:25 23.78 ℃ 100 % 1015.24 hPa
2024-06-18 10:44:25 23.5 ℃ 100 % 1015.28 hPa
2024-06-18 10:34:24 23.46 ℃ 100 % 1015.29 hPa
2024-06-18 10:24:25 23.25 ℃ 100 % 1015.31 hPa
2024-06-18 10:14:25 23.15 ℃ 100 % 1015.34 hPa
2024-06-18 10:04:25 22.97 ℃ 100 % 1015.39 hPa
2024-06-18 09:54:25 23.05 ℃ 100 % 1015.36 hPa
2024-06-18 09:44:25 23.21 ℃ 100 % 1015.37 hPa
2024-06-18 09:34:25 22.83 ℃ 100 % 1015.44 hPa
2024-06-18 09:24:25 23.05 ℃ 100 % 1015.44 hPa
2024-06-18 09:14:25 22.95 ℃ 100 % 1015.36 hPa
2024-06-18 09:04:25 22.86 ℃ 100 % 1015.3 hPa
2024-06-18 08:54:25 23.06 ℃ 100 % 1015.25 hPa
2024-06-18 08:44:25 22.83 ℃ 100 % 1015.21 hPa
2024-06-18 08:34:25 22.71 ℃ 100 % 1015.15 hPa
2024-06-18 08:24:25 22.51 ℃ 100 % 1015.05 hPa
2024-06-18 08:14:25 22.36 ℃ 100 % 1014.98 hPa
2024-06-18 08:04:25 22.78 ℃ 100 % 1014.92 hPa
2024-06-18 07:54:25 22.78 ℃ 100 % 1014.84 hPa
2024-06-18 07:44:25 22.95 ℃ 100 % 1014.77 hPa
2024-06-18 07:34:25 22.9 ℃ 100 % 1014.76 hPa
2024-06-18 07:24:25 22.57 ℃ 100 % 1014.76 hPa
2024-06-18 07:14:25 22.4 ℃ 100 % 1014.73 hPa
2024-06-18 07:04:25 22.4 ℃ 100 % 1014.77 hPa
2024-06-18 06:54:25 22.9 ℃ 100 % 1014.8 hPa
2024-06-18 06:44:25 23.48 ℃ 100 % 1014.76 hPa
2024-06-18 06:34:25 24.15 ℃ 100 % 1014.66 hPa
2024-06-18 06:24:25 24.55 ℃ 100 % 1014.54 hPa
2024-06-18 06:14:25 24.01 ℃ 100 % 1014.5 hPa
2024-06-18 06:04:25 23.4 ℃ 100 % 1014.47 hPa
2024-06-18 05:54:25 22.84 ℃ 100 % 1014.44 hPa
2024-06-18 05:44:25 21.79 ℃ 100 % 1014.41 hPa
2024-06-18 05:34:25 20.45 ℃ 100 % 1014.35 hPa
2024-06-18 05:24:25 19.8 ℃ 100 % 1014.31 hPa
2024-06-18 05:14:25 18.08 ℃ 100 % 1014.35 hPa
2024-06-18 05:04:25 17.54 ℃ 100 % 1014.34 hPa
2024-06-18 04:54:25 17.43 ℃ 100 % 1014.29 hPa
2024-06-18 04:44:25 17.39 ℃ 100 % 1014.3 hPa
2024-06-18 04:34:25 17.44 ℃ 100 % 1014.31 hPa
2024-06-18 04:24:25 17.68 ℃ 100 % 1014.34 hPa
2024-06-18 04:14:25 17.83 ℃ 100 % 1014.29 hPa
2024-06-18 04:04:25 17.92 ℃ 100 % 1014.24 hPa
2024-06-18 03:54:25 17.98 ℃ 100 % 1014.17 hPa
2024-06-18 03:44:25 18.12 ℃ 100 % 1014.16 hPa
2024-06-18 03:34:25 18.13 ℃ 100 % 1014.12 hPa
2024-06-18 03:24:25 18.05 ℃ 100 % 1014.08 hPa
2024-06-18 03:14:25 18.26 ℃ 100 % 1014.04 hPa
2024-06-18 03:04:25 18.64 ℃ 100 % 1014.02 hPa
2024-06-18 02:54:25 18.56 ℃ 100 % 1014.03 hPa
2024-06-18 02:44:25 18.8 ℃ 100 % 1013.99 hPa
2024-06-18 02:34:25 19.23 ℃ 100 % 1013.96 hPa
2024-06-18 02:24:25 19.35 ℃ 100 % 1013.96 hPa
2024-06-18 02:14:25 19.36 ℃ 100 % 1013.92 hPa
2024-06-18 02:04:25 19.41 ℃ 100 % 1013.89 hPa
2024-06-18 01:54:25 19.37 ℃ 100 % 1013.87 hPa
2024-06-18 01:44:25 19.49 ℃ 100 % 1013.87 hPa
2024-06-18 01:34:25 19.76 ℃ 100 % 1013.84 hPa
2024-06-18 01:24:25 19.98 ℃ 100 % 1013.8 hPa
2024-06-18 01:14:25 20.06 ℃ 100 % 1013.79 hPa
2024-06-18 01:04:25 20.12 ℃ 100 % 1013.77 hPa
2024-06-18 00:54:25 20.16 ℃ 100 % 1013.71 hPa
2024-06-18 00:44:25 20.38 ℃ 100 % 1013.69 hPa
2024-06-18 00:34:25 20.67 ℃ 100 % 1013.64 hPa
2024-06-18 00:24:25 20.74 ℃ 100 % 1013.6 hPa
2024-06-18 00:14:25 20.89 ℃ 100 % 1013.57 hPa
2024-06-18 00:04:25 21.02 ℃ 100 % 1013.54 hPa
2024-06-17 23:54:25 21.49 ℃ 100 % 1013.52 hPa
2024-06-17 23:44:25 21.56 ℃ 100 % 1013.48 hPa
2024-06-17 23:34:25 21.66 ℃ 100 % 1013.39 hPa
2024-06-17 23:24:25 21.82 ℃ 100 % 1013.3 hPa
2024-06-17 23:14:25 21.71 ℃ 100 % 1013.22 hPa
2024-06-17 23:04:25 21.77 ℃ 100 % 1013.16 hPa
2024-06-17 22:54:25 21.44 ℃ 100 % 1013.15 hPa
2024-06-17 22:44:25 21.64 ℃ 100 % 1013.11 hPa
2024-06-17 22:34:26 21.51 ℃ 100 % 1013.02 hPa
2024-06-17 22:24:26 21.63 ℃ 100 % 1012.94 hPa
2024-06-17 22:14:25 21.75 ℃ 100 % 1012.82 hPa
2024-06-17 22:04:26 21.96 ℃ 100 % 1012.71 hPa
2024-06-17 21:54:26 22.04 ℃ 100 % 1012.62 hPa
2024-06-17 21:44:26 22.18 ℃ 100 % 1012.52 hPa
2024-06-17 21:34:26 22.65 ℃ 100 % 1012.38 hPa
2024-06-17 21:24:26 22.96 ℃ 100 % 1012.25 hPa
2024-06-17 21:14:26 23.52 ℃ 100 % 1012.12 hPa
2024-06-17 21:04:26 23.08 ℃ 100 % 1012.03 hPa
2024-06-17 20:54:26 23.01 ℃ 100 % 1011.97 hPa
2024-06-17 20:44:26 23.08 ℃ 100 % 1011.86 hPa
2024-06-17 20:34:26 23.55 ℃ 100 % 1011.77 hPa
2024-06-17 20:24:26 23.63 ℃ 100 % 1011.71 hPa
2024-06-17 20:14:26 23.81 ℃ 100 % 1011.7 hPa
2024-06-17 20:04:26 23.91 ℃ 100 % 1011.72 hPa
2024-06-17 19:54:26 23.96 ℃ 100 % 1011.74 hPa
2024-06-17 19:44:26 23.93 ℃ 100 % 1011.71 hPa
2024-06-17 19:34:26 24.01 ℃ 100 % 1011.69 hPa
2024-06-17 19:24:26 24.29 ℃ 100 % 1011.65 hPa
2024-06-17 19:14:27 24.08 ℃ 100 % 1011.64 hPa
2024-06-17 19:04:26 23.9 ℃ 100 % 1011.62 hPa
2024-06-17 18:54:26 24.27 ℃ 100 % 1011.57 hPa
2024-06-17 18:44:26 23.88 ℃ 100 % 1011.48 hPa
2024-06-17 18:34:26 23.95 ℃ 100 % 1011.44 hPa
2024-06-17 18:24:26 23.78 ℃ 100 % 1011.39 hPa
2024-06-17 18:14:26 23.55 ℃ 100 % 1011.28 hPa
2024-06-17 18:04:26 23.82 ℃ 100 % 1011.24 hPa
2024-06-17 17:54:26 23.91 ℃ 100 % 1011.24 hPa
2024-06-17 17:44:27 23.49 ℃ 100 % 1011.27 hPa
2024-06-17 17:34:26 23.29 ℃ 100 % 1011.31 hPa
2024-06-17 17:24:26 23.25 ℃ 100 % 1011.34 hPa
2024-06-17 17:14:26 23.16 ℃ 100 % 1011.35 hPa
2024-06-17 17:04:26 23.02 ℃ 100 % 1011.34 hPa
2024-06-17 16:54:26 22.49 ℃ 100 % 1011.31 hPa
2024-06-17 16:44:26 22.93 ℃ 100 % 1011.23 hPa
2024-06-17 16:34:26 23.18 ℃ 100 % 1011.13 hPa
2024-06-17 16:24:26 23.69 ℃ 100 % 1011 hPa
2024-06-17 16:14:26 24.21 ℃ 100 % 1010.99 hPa
2024-06-17 16:04:26 24.24 ℃ 100 % 1010.91 hPa
2024-06-17 15:54:26 24.28 ℃ 100 % 1010.97 hPa
2024-06-17 15:44:26 24.16 ℃ 100 % 1010.96 hPa
2024-06-17 15:34:26 23.89 ℃ 100 % 1010.97 hPa
2024-06-17 15:24:26 23.75 ℃ 100 % 1010.95 hPa
2024-06-17 15:14:26 23.55 ℃ 100 % 1010.92 hPa
2024-06-17 15:04:26 23.94 ℃ 100 % 1010.89 hPa
2024-06-17 14:54:26 23.96 ℃ 100 % 1010.87 hPa
2024-06-17 14:44:26 23.25 ℃ 100 % 1010.85 hPa
2024-06-17 14:34:26 23.22 ℃ 100 % 1010.83 hPa
2024-06-17 14:24:26 23.4 ℃ 100 % 1010.85 hPa
2024-06-17 14:14:26 23.49 ℃ 100 % 1010.87 hPa
2024-06-17 14:04:26 23.78 ℃ 100 % 1010.92 hPa
2024-06-17 13:54:26 23.89 ℃ 100 % 1010.94 hPa
2024-06-17 13:44:26 23.8 ℃ 100 % 1010.95 hPa
2024-06-17 13:34:26 23.63 ℃ 100 % 1010.93 hPa
2024-06-17 13:24:26 23.82 ℃ 100 % 1010.94 hPa
2024-06-17 13:14:26 23.25 ℃ 100 % 1010.96 hPa
2024-06-17 13:04:26 22.29 ℃ 100 % 1011.01 hPa
2024-06-17 12:54:26 21.94 ℃ 100 % 1011.01 hPa
2024-06-17 12:44:26 21.47 ℃ 100 % 1011.02 hPa
2024-06-17 12:34:26 21.14 ℃ 100 % 1011.06 hPa
2024-06-17 12:24:26 20.59 ℃ 100 % 1011.09 hPa
2024-06-17 12:14:26 20.38 ℃ 100 % 1011.1 hPa
2024-06-17 12:04:26 20.1 ℃ 100 % 1011.07 hPa
2024-06-17 11:54:26 19.67 ℃ 100 % 1011.07 hPa
2024-06-17 11:44:26 19.35 ℃ 100 % 1011.09 hPa
2024-06-17 11:34:26 19.45 ℃ 100 % 1011.12 hPa
2024-06-17 11:24:26 19.73 ℃ 100 % 1011.13 hPa
2024-06-17 11:14:27 19.98 ℃ 100 % 1011.13 hPa
2024-06-17 11:04:27 20.37 ℃ 100 % 1011.22 hPa
2024-06-17 10:54:27 20.83 ℃ 100 % 1011.3 hPa
2024-06-17 10:44:27 21.01 ℃ 100 % 1011.19 hPa
2024-06-17 10:34:27 21 ℃ 100 % 1011.05 hPa
2024-06-17 10:24:27 20.56 ℃ 100 % 1010.94 hPa
2024-06-17 10:14:27 20.51 ℃ 100 % 1010.89 hPa
2024-06-17 10:04:27 20.35 ℃ 100 % 1010.82 hPa
2024-06-17 09:54:27 20.17 ℃ 100 % 1010.76 hPa
2024-06-17 09:44:27 20.17 ℃ 100 % 1010.67 hPa
2024-06-17 09:34:27 19.96 ℃ 100 % 1010.58 hPa
2024-06-17 09:24:27 19.68 ℃ 100 % 1010.51 hPa
2024-06-17 09:14:27 19.61 ℃ 100 % 1010.52 hPa
2024-06-17 09:04:27 19.56 ℃ 100 % 1010.46 hPa
2024-06-17 08:54:27 19.66 ℃ 100 % 1010.34 hPa
2024-06-17 08:44:27 19.37 ℃ 100 % 1010.29 hPa
2024-06-17 08:34:27 19.53 ℃ 100 % 1010.29 hPa
2024-06-17 08:24:27 19.64 ℃ 100 % 1010.26 hPa
2024-06-17 08:14:27 20.04 ℃ 100 % 1010.21 hPa
2024-06-17 08:04:27 20.61 ℃ 100 % 1010.13 hPa
2024-06-17 07:54:27 20.49 ℃ 100 % 1010.08 hPa
2024-06-17 07:44:27 20.61 ℃ 100 % 1009.97 hPa
2024-06-17 07:34:27 21.04 ℃ 100 % 1009.9 hPa
2024-06-17 07:24:27 21.79 ℃ 100 % 1009.81 hPa
2024-06-17 07:14:27 21.52 ℃ 100 % 1009.75 hPa
2024-06-17 07:04:27 20.94 ℃ 100 % 1009.71 hPa
2024-06-17 06:54:27 21.22 ℃ 100 % 1009.69 hPa
2024-06-17 06:44:27 21.35 ℃ 100 % 1009.67 hPa
2024-06-17 06:34:27 21.84 ℃ 100 % 1009.62 hPa
2024-06-17 06:24:27 21.7 ℃ 100 % 1009.64 hPa
2024-06-17 06:14:27 21.18 ℃ 100 % 1009.68 hPa
2024-06-17 06:04:27 21.51 ℃ 100 % 1009.67 hPa
2024-06-17 05:54:27 21.6 ℃ 100 % 1009.66 hPa
2024-06-17 05:44:27 20.9 ℃ 100 % 1009.61 hPa
2024-06-17 05:34:27 19.33 ℃ 100 % 1009.64 hPa
2024-06-17 05:24:27 18.41 ℃ 100 % 1009.58 hPa
2024-06-17 05:14:27 18 ℃ 100 % 1009.48 hPa
2024-06-17 05:04:27 17.37 ℃ 100 % 1009.44 hPa
2024-06-17 04:54:27 17.59 ℃ 100 % 1009.47 hPa
2024-06-17 04:44:27 17.69 ℃ 100 % 1009.44 hPa
2024-06-17 04:34:27 17.77 ℃ 100 % 1009.43 hPa
2024-06-17 04:24:27 18.09 ℃ 100 % 1009.39 hPa
2024-06-17 04:14:27 18.1 ℃ 100 % 1009.36 hPa
2024-06-17 04:04:27 17.97 ℃ 100 % 1009.32 hPa
2024-06-17 03:54:27 17.81 ℃ 100 % 1009.27 hPa
2024-06-17 03:44:27 17.58 ℃ 100 % 1009.27 hPa
2024-06-17 03:34:27 17.66 ℃ 100 % 1009.27 hPa
2024-06-17 03:24:27 17.86 ℃ 100 % 1009.29 hPa
2024-06-17 03:14:27 18 ℃ 100 % 1009.21 hPa
2024-06-17 03:04:27 18.06 ℃ 100 % 1009.17 hPa
2024-06-17 02:54:27 18.01 ℃ 100 % 1009.12 hPa
2024-06-17 02:44:27 17.73 ℃ 100 % 1009.12 hPa
2024-06-17 02:34:27 17.71 ℃ 100 % 1009.07 hPa
2024-06-17 02:24:27 17.46 ℃ 100 % 1009.07 hPa
2024-06-17 02:14:27 17.67 ℃ 100 % 1009.03 hPa
2024-06-17 02:04:27 17.65 ℃ 100 % 1009.01 hPa
2024-06-17 01:54:27 18.01 ℃ 100 % 1009.06 hPa
2024-06-17 01:44:27 18.38 ℃ 100 % 1009.06 hPa
2024-06-17 01:34:27 18.21 ℃ 100 % 1009.01 hPa
2024-06-17 01:24:27 18.16 ℃ 100 % 1008.98 hPa
2024-06-17 01:14:27 18.08 ℃ 100 % 1008.98 hPa
2024-06-17 01:04:27 18.37 ℃ 100 % 1008.93 hPa
2024-06-17 00:54:27 18.25 ℃ 100 % 1008.85 hPa
2024-06-17 00:44:27 18.56 ℃ 100 % 1008.82 hPa
2024-06-17 00:34:27 18.65 ℃ 100 % 1008.8 hPa
2024-06-17 00:24:27 18.45 ℃ 100 % 1008.81 hPa
2024-06-17 00:14:27 18.41 ℃ 100 % 1008.82 hPa
2024-06-17 00:04:27 18.35 ℃ 100 % 1008.83 hPa
2024-06-16 23:54:27 18.29 ℃ 100 % 1008.81 hPa
2024-06-16 23:44:27 18.56 ℃ 100 % 1008.77 hPa
2024-06-16 23:34:28 18.73 ℃ 100 % 1008.7 hPa
2024-06-16 23:24:27 18.88 ℃ 100 % 1008.56 hPa
2024-06-16 23:14:27 18.96 ℃ 100 % 1008.44 hPa
2024-06-16 23:04:27 18.91 ℃ 100 % 1008.39 hPa
2024-06-16 22:54:28 19.23 ℃ 100 % 1008.34 hPa
2024-06-16 22:44:27 19.67 ℃ 100 % 1008.32 hPa
2024-06-16 22:34:28 20.13 ℃ 100 % 1008.25 hPa
2024-06-16 22:24:28 20.45 ℃ 100 % 1008.14 hPa
2024-06-16 22:14:28 20.38 ℃ 100 % 1008.07 hPa
2024-06-16 22:04:28 20.13 ℃ 100 % 1008.05 hPa
2024-06-16 21:54:28 19.75 ℃ 100 % 1008.06 hPa
2024-06-16 21:44:28 19.38 ℃ 100 % 1008.07 hPa
2024-06-16 21:34:28 19.72 ℃ 100 % 1007.97 hPa
2024-06-16 21:24:28 19.53 ℃ 100 % 1007.93 hPa
2024-06-16 21:14:28 19.64 ℃ 100 % 1007.88 hPa
2024-06-16 21:04:28 19.87 ℃ 100 % 1007.84 hPa
2024-06-16 20:54:28 19.82 ℃ 100 % 1007.79 hPa
2024-06-16 20:44:28 19.95 ℃ 100 % 1007.75 hPa
2024-06-16 20:34:28 19.99 ℃ 100 % 1007.66 hPa
2024-06-16 20:24:28 20.48 ℃ 100 % 1007.52 hPa
2024-06-16 20:14:28 20.4 ℃ 100 % 1007.42 hPa
2024-06-16 20:04:28 20.5 ℃ 100 % 1007.28 hPa
2024-06-16 19:54:28 20.33 ℃ 100 % 1007.18 hPa
2024-06-16 19:44:28 20.11 ℃ 100 % 1007.15 hPa
2024-06-16 19:34:28 20.24 ℃ 100 % 1007.12 hPa
2024-06-16 19:24:28 20.22 ℃ 100 % 1007.13 hPa
2024-06-16 19:14:28 20.52 ℃ 100 % 1007.13 hPa
2024-06-16 19:04:28 20.66 ℃ 100 % 1006.97 hPa
2024-06-16 18:54:28 21.15 ℃ 100 % 1006.91 hPa
2024-06-16 18:44:28 20.7 ℃ 100 % 1006.82 hPa
2024-06-16 18:34:28 20.8 ℃ 100 % 1006.74 hPa
2024-06-16 18:24:28 22.43 ℃ 100 % 1006.55 hPa
2024-06-16 18:14:28 22.45 ℃ 100 % 1006.23 hPa
2024-06-16 18:04:28 22.47 ℃ 100 % 1006.28 hPa
2024-06-16 17:54:28 22.24 ℃ 100 % 1006.31 hPa
2024-06-16 17:44:28 22.09 ℃ 100 % 1006.37 hPa
2024-06-16 17:34:30 22.09 ℃ 100 % 1006.36 hPa
2024-06-16 17:24:28 22.18 ℃ 100 % 1006.3 hPa
2024-06-16 17:14:28 22.45 ℃ 100 % 1006.26 hPa
2024-06-16 17:04:28 22.15 ℃ 100 % 1006.31 hPa
2024-06-16 16:54:28 21.96 ℃ 100 % 1006.38 hPa
2024-06-16 16:44:28 22.03 ℃ 100 % 1006.51 hPa
2024-06-16 16:34:28 22.12 ℃ 100 % 1006.61 hPa
2024-06-16 16:24:28 22.08 ℃ 100 % 1006.71 hPa
2024-06-16 16:14:28 21.93 ℃ 100 % 1006.78 hPa
2024-06-16 16:04:28 21.57 ℃ 100 % 1006.88 hPa
2024-06-16 15:54:28 21.5 ℃ 100 % 1006.91 hPa
2024-06-16 15:44:28 21.74 ℃ 100 % 1006.89 hPa
2024-06-16 15:34:28 21.78 ℃ 100 % 1006.9 hPa
2024-06-16 15:24:28 22.13 ℃ 100 % 1006.94 hPa
2024-06-16 15:14:28 23.09 ℃ 100 % 1006.91 hPa
2024-06-16 15:04:28 23.97 ℃ 100 % 1006.91 hPa
2024-06-16 14:54:28 23.92 ℃ 100 % 1006.9 hPa
2024-06-16 14:44:28 24.31 ℃ 100 % 1006.88 hPa
2024-06-16 14:34:28 24.16 ℃ 100 % 1006.8 hPa
2024-06-16 14:24:28 24.33 ℃ 100 % 1006.8 hPa
2024-06-16 14:14:28 24.39 ℃ 100 % 1006.83 hPa
2024-06-16 14:04:28 24.39 ℃ 100 % 1006.88 hPa
2024-06-16 13:54:28 23.86 ℃ 100 % 1006.96 hPa
2024-06-16 13:44:28 23.79 ℃ 100 % 1007.03 hPa
2024-06-16 13:34:28 23.46 ℃ 100 % 1007.08 hPa
2024-06-16 13:24:28 23.47 ℃ 100 % 1007.1 hPa
2024-06-16 13:14:28 23.07 ℃ 100 % 1007.15 hPa
2024-06-16 13:04:28 22.93 ℃ 100 % 1007.19 hPa
2024-06-16 12:54:28 23 ℃ 100 % 1007.16 hPa
2024-06-16 12:44:28 23.03 ℃ 100 % 1007.16 hPa
2024-06-16 12:34:28 23.28 ℃ 100 % 1007.2 hPa
2024-06-16 12:24:28 23.41 ℃ 100 % 1007.28 hPa
2024-06-16 12:14:28 23.36 ℃ 100 % 1007.34 hPa
2024-06-16 12:04:28 22.89 ℃ 100 % 1007.34 hPa
2024-06-16 11:54:28 22.65 ℃ 100 % 1007.34 hPa
2024-06-16 11:44:28 22.72 ℃ 100 % 1007.29 hPa
2024-06-16 11:34:28 22.59 ℃ 100 % 1007.3 hPa
2024-06-16 11:24:28 22.51 ℃ 100 % 1007.3 hPa
2024-06-16 11:14:28 22.44 ℃ 100 % 1007.32 hPa
2024-06-16 11:04:29 22.17 ℃ 100 % 1007.3 hPa
2024-06-16 10:54:28 22.29 ℃ 100 % 1007.28 hPa
2024-06-16 10:44:28 22.23 ℃ 100 % 1007.3 hPa
2024-06-16 10:34:29 22.33 ℃ 100 % 1007.34 hPa
2024-06-16 10:24:29 22.09 ℃ 100 % 1007.35 hPa
2024-06-16 10:14:29 21.98 ℃ 100 % 1007.37 hPa
2024-06-16 10:04:29 21.86 ℃ 100 % 1007.37 hPa
2024-06-16 09:54:29 21.51 ℃ 100 % 1007.33 hPa
2024-06-16 09:44:29 21.24 ℃ 100 % 1007.31 hPa
2024-06-16 09:34:29 20.95 ℃ 100 % 1007.24 hPa
2024-06-16 09:24:29 20.65 ℃ 100 % 1007.21 hPa
2024-06-16 09:14:29 20.62 ℃ 100 % 1007.13 hPa
2024-06-16 09:04:29 20.98 ℃ 100 % 1007.11 hPa
2024-06-16 08:54:29 21.17 ℃ 100 % 1007.09 hPa
2024-06-16 08:44:29 21.42 ℃ 100 % 1007.07 hPa
2024-06-16 08:34:29 20.59 ℃ 100 % 1007.02 hPa
2024-06-16 08:24:29 20.43 ℃ 100 % 1006.98 hPa
2024-06-16 08:14:29 20 ℃ 100 % 1007.04 hPa
2024-06-16 08:04:29 19.6 ℃ 100 % 1007.05 hPa
2024-06-16 07:54:29 18.97 ℃ 100 % 1007.06 hPa
2024-06-16 07:44:29 17.78 ℃ 100 % 1007.08 hPa
2024-06-16 07:34:29 17.2 ℃ 100 % 1007.07 hPa
2024-06-16 07:24:29 16.71 ℃ 100 % 1007.06 hPa
2024-06-16 07:14:29 16.46 ℃ 100 % 1007.1 hPa
2024-06-16 07:04:29 16.07 ℃ 100 % 1007.14 hPa
2024-06-16 06:54:29 16.03 ℃ 100 % 1007.1 hPa
2024-06-16 06:44:29 16.1 ℃ 100 % 1007.11 hPa
2024-06-16 06:34:29 16.25 ℃ 100 % 1007.11 hPa
2024-06-16 06:24:29 16.12 ℃ 100 % 1007.16 hPa
2024-06-16 06:14:29 16 ℃ 100 % 1007.17 hPa
2024-06-16 06:04:29 15.63 ℃ 100 % 1007.16 hPa
2024-06-16 05:54:29 15.56 ℃ 100 % 1007.15 hPa
2024-06-16 05:44:29 15.68 ℃ 100 % 1007.07 hPa
2024-06-16 05:34:29 15.74 ℃ 100 % 1007.03 hPa
2024-06-16 05:24:29 15.78 ℃ 100 % 1007.01 hPa
2024-06-16 05:14:29 15.95 ℃ 100 % 1007 hPa
2024-06-16 05:04:29 15.87 ℃ 100 % 1006.97 hPa
2024-06-16 04:54:29 16.11 ℃ 100 % 1006.98 hPa
2024-06-16 04:44:29 16.4 ℃ 100 % 1006.95 hPa
2024-06-16 04:34:29 16.2 ℃ 100 % 1006.9 hPa
2024-06-16 04:24:29 15.88 ℃ 100 % 1006.87 hPa
2024-06-16 04:14:29 15.88 ℃ 100 % 1006.87 hPa
2024-06-16 04:04:29 15.61 ℃ 100 % 1006.86 hPa
2024-06-16 03:54:29 15.6 ℃ 100 % 1006.89 hPa
20